     2              OBSERVATION DATA    GPS                 RINEX VERSION / TYPE
teqc 1997Sep28 Duncan Agnew 19980804 18:54:48UTC            PGM / RUN BY / DATE
                                                            COMMENT
Original Marker Name: TORO                                  COMMENT
Campaign Name: Pinyon Polygon 1991                          COMMENT
4-Character Station Name: TORO                              COMMENT
6-Character Antenna Code: TRMSST                            COMMENT
Vertical Measurement Point: BGP                             COMMENT
Vertical Offset to Rinex Ref. Point: 0.0597                 COMMENT
Radial Measurement Point: NGP                               COMMENT
Radial Offset to Rinex Ref. Point: 0.2334                   COMMENT
Antenna Height from Field Measurement: 1.4220 m             COMMENT
Original XYZ: -2369747.9684 -4768435.3633 3503947.1973      COMMENT
New XYZ position is based on association with SCEC monument COMMENT
E1D0J9T6+0011. Position of that monument is believed to be  COMMENT
valid to within 1 m horizontally; vertical accuracy         COMMENT
should be no worse than 3-times this value.                 COMMENT
                                                            COMMENT
Revised Rinex header created by UCSD GPS archive for        COMMENT
GSAC on 12-Apr-1999 (1999:102) 06:53:17 GMT                 COMMENT
For assistance contact dagnew@ucsd.edu or hjohnson@ucsd.edu COMMENT
                                                            COMMENT
TORO 1980                                                   MARKER NAME
Vernon SCRIPPS INSTITUTION OF OCEANOGRAPHY                  OBSERVER / AGENCY
494 TRIMBLE 4000 SST NP 4.11 / SP 4.10                      REC # / TYPE / VERS
37 TR 4000SST L1/L2 GEO                                     ANT # / TYPE
 -2369748.0000 -4768431.0000  3503964.0000                  APPROX POSITION XYZ
        1.3430        0.0000        0.0000                  ANTENNA: DELTA H/E/N
     1     1     0                                          WAVELENGTH FACT L1/2
     3    C1    L1    L2                                    # / TYPES OF OBSERV
     0                                                      INTERVAL
  1991     4    30    22    45    0.000000                  TIME OF FIRST OBS
  1991     5     1     1    59   60.000000                  TIME OF LAST OBS
     0                                                      # OF SATELLITES
                                                            END OF HEADER
 91  4 30 22 45  0.0000000  0  5G 2G 6G13G15G19
  21103835.0164         -0.67348        -0.16373
  21086215.5234         -0.77557        -0.02073
  22464346.5864         -0.53956        -0.06471
  23863718.8834         -0.49056        -0.41571
  23732017.5004         -0.29054
 91  4 30 22 45 15.0000000  0  5G 2G 6G13G15G19
  21102256.5864      -8298.17548     -6465.73063
  21080106.4844     -32098.94047    -25011.55463
  22452351.3054     -63034.32846    -49117.14761
  23860232.4614     -18327.56246    -14281.19361
  23737556.5554      29122.75343
 91  4 30 22 45 30.0000000  0  5G 2G 6G13G15G19
  21100682.7664     -16569.96348    -12911.25263
  21074009.9304     -64145.42247    -49982.81263
  22440370.6254    -125997.88346    -98179.50961
  23856766.0314     -36543.46346    -28475.35661
  23743103.2974      58283.94843
 91  4 30 22 45 45.0000000  0  5G 2G 6G13G15G19
  21099113.3444     -24812.74348    -19334.17763
  21067919.6024     -96136.49247    -74910.89563
  22428404.9064    -188887.20246   -147184.01561
  23853321.6254     -54644.44846    -42579.97161
  23748657.4694      87486.57741
 91  4 30 22 46  0.0000000  0  4G 2G 6G13G15
  21097550.5944     -33026.19048    -25734.24663
  21061843.1334    -128071.54147    -99795.32963
  22416449.5004    -251701.73546   -196130.24961
  23849899.6254     -72630.01346    -56594.63661
 91  4 30 22 46 15.0000000  0  4G 2G 6G13G15
  21095993.8204     -41206.97748    -32108.86763
  21055779.2114    -159947.13847   -124633.43363
  22404511.5704    -314438.16146   -245015.61861
  23846499.5004     -90496.81546    -70516.78461
 91  4 30 22 46 30.0000000  0  4G 2G 6G13G15
  21094442.2274     -49353.87848    -38457.08764
  21049724.8444    -191761.89047   -149424.11863
  22392586.3594    -377095.04646   -293839.00961
  23843122.2894    -108243.50146    -84345.31161
 91  4 30 22 46 45.0000000  0  4G 2G 6G13G15
  21092899.3054     -57467.83248    -44779.63263
  21043682.0704    -223516.06547   -174167.60563
  22380677.1254    -439672.51546   -342600.52561
  23839769.8524    -125870.57046    -98080.62861
 91  4 30 22 47  0.0000000  0  4G 2G 6G13G15
  21091361.4774     -65547.61148    -51075.55664
  21037650.9064    -255208.44447   -198862.93963
  22368785.6094    -502169.21946   -391299.09461
  23836436.1804    -143376.81346   -111721.79761
 91  4 30 22 47 15.0000000  0  4G 2G 6G13G15
  21089831.6254     -73588.51548    -57341.19164
  21031631.9064    -286833.98547   -223506.19663
  22356909.7114    -564580.01946   -439930.72961
  23833127.4224    -160757.41446   -125265.07661
 91  4 30 22 47 30.0000000  0  4G 2G 6G13G15
  21088309.0004     -81589.34448    -63575.59564
  21025627.5314    -318391.00647   -248096.06263
  22345049.1884    -626903.19946   -488494.09661
  23829846.5864    -178010.65246   -138709.11961
 91  4 30 22 47 45.0000000  0  4G 2G 6G13G15
  21086792.7034     -89547.95448    -69777.09864
  21019635.1174    -349877.16547   -272630.70963
  22333208.6644    -689136.23046   -536987.22361
  23826587.4534    -195134.69645   -152052.50061
 91  4 30 22 48  0.0000000  0  4G 2G 6G13G15
  21085289.8754     -97457.86748    -75940.66163
  21013659.3134    -381285.84647   -297104.97763
  22321383.3594    -751272.65646   -585405.06661
  23823354.1564    -212122.88145   -165290.00361
 91  4 30 22 48 15.0000000  0  4G 2G 6G13G15
  21083793.8134    -105323.97848    -82070.08864
  21007696.2734    -412621.58847   -321522.41063
  22309574.9224    -813316.81246   -633751.02461
  23820146.1724    -228979.98445   -178425.35361
 91  4 30 22 48 30.0000000  0  4G 2G 6G13G15
  21082306.0004    -113146.64448    -88165.65763
  21001744.8524    -443884.26747   -345882.91163
  22297785.2344    -875268.55146   -682024.94961
  23816964.0164    -245705.86345   -191458.45661
 91  4 30 22 48 45.0000000  0  4G 2G 6G13G15
  21080825.0394    -120924.98948    -94226.69363
  20995811.9304    -475072.59647   -370185.49163
  22286014.5704    -937126.53946   -730225.82761
  23813805.7664    -262299.38945   -204388.44061
 91  4 30 22 49  0.0000000  0  4G 2G 6G13G15
  21079354.0314    -128658.56048   -100252.83463
  20989891.8594    -506185.99147   -394429.67963
  22274261.7504    -998890.32646   -778353.30861
  23810675.2894    -278759.82945   -217214.71561
 91  4 30 22 49 15.0000000  0  4G 2G 6G13G15
  21077889.2894    -136346.65548   -106243.53764
  20983986.0704    -537223.39747   -418614.64463
  22262525.7894   -1060558.78646   -826406.50961
  23807567.5314    -295086.72646   -229936.91561
 91  4 30 22 49 30.0000000  0  4G 2G 6G13G15
  21076435.2894    -143989.68248   -112199.14063
  20978094.2274    -568185.13047   -442740.64163
  22250809.3444   -1122132.06646   -874385.54361
  23804488.6024    -311280.42046   -242555.32561
 91  4 30 22 49 45.0000000  0  4G 2G 6G13G15
  21074990.8444    -151584.64348   -118117.28464
  20972215.6644    -599067.86647   -466805.09263
  22239111.3914   -1183606.49246   -922287.54861
  23801430.3054    -327337.70346   -255067.44961
 91  4 30 22 50  0.0000000  0  4G 2G 6G13G15
  21073553.2974    -159130.53648   -123997.18863
  20966352.9454    -629870.14447   -490806.85263
  22227433.5944   -1244980.89646   -970111.62261
  23798402.8834    -343257.23846   -267472.23461
 91  4 30 22 50 15.0000000  0  4G 2G 6G13G15
  21072127.1094    -166624.98448   -129837.01464
  20960507.4774    -660589.32347   -514743.86463
  22215772.7274   -1306252.50546  -1017855.58961
  23795396.7344    -359036.53846   -279767.75361
 91  4 30 22 50 30.0000000  0  4G 2G 6G13G15
  21070712.4144    -174068.17848   -135636.90563
  20954679.2734    -691225.32847   -538616.06663
  22204132.6884   -1367421.07546  -1065519.26361
  23792420.9144    -374675.68146   -291954.09061
 91  4 30 22 50 45.0000000  0  4G 2G 6G13G15
  21069306.3364    -181457.17948   -141394.55264
  20948868.2034    -721774.93847   -562420.92963
  22192512.6564   -1428483.54046  -1113100.27661
  23789473.0084    -390171.80346   -304028.95761
 91  4 30 22 51  0.0000000  0  4G 2G 6G13G15
  21067909.1724    -188791.12748   -147109.30463
  20943069.2194    -752236.83147   -586157.44063
  22180914.1804   -1489438.36746  -1160597.41061
  23786551.3754    -405523.51645   -315991.30761
 91  4 30 22 51 15.0000000  0  4G 2G 6G13G15
  21066524.0084    -196069.10748   -152780.44763
  20937289.2344    -782609.80647   -609824.67163
  22169336.6414   -1550284.51246  -1208009.85861
  23783654.7734    -420729.74345   -327840.27461
 91  4 30 22 51 30.0000000  0  4G 2G 6G13G15
  21065151.2894    -203289.60648   -158406.79563
  20931525.7664    -812892.22847   -633421.35163
  22157777.4844   -1611020.19146  -1255336.23561
  23780786.7114    -435789.07645   -339574.77061
 91  4 30 22 51 45.0000000  0  5G 2G 6G13G15G19
  21063789.9924    -210450.93048   -163987.03063
  20925781.7034    -843082.14547   -656945.95263
  22146240.9534   -1671643.24146  -1302574.83061
  23777948.5704    -450699.38045   -351193.13761
  23885010.0944         -0.63353
 91  4 30 22 52  0.0000000  0  5G 2G 6G13G15G19
  21062436.3834    -217552.78548   -169520.93363
  20920055.0084    -873178.98047   -680398.01863
  22134724.6884   -1732153.26146  -1349725.36561
  23775142.8914    -465460.32445   -362695.11261
  23890838.8364      30621.12743
 91  4 30 22 52 15.0000000  0  5G 2G 6G13G15G19
  21061097.2274    -224594.32348   -175007.83363
  20914345.2344    -903181.31547   -703776.43763
  22123234.1414   -1792548.80246  -1396786.69561
  23772362.9694    -480070.98845   -374080.01061
  23896679.8134      61313.18343        -0.05571
 91  4 30 22 52 30.0000000  0  5G 2G 6G13G15G19
  21059767.3284    -231575.24647   -180447.49363
  20908655.1644    -933088.60847   -727080.79463
  22111764.3754   -1852829.32146  -1443758.39861
  23769614.5394    -494531.17345   -385347.65161
  23902534.7894      92075.84943     23970.73161
 91  4 30 22 52 45.0000000  0  5G 2G 6G13G15G19
  21058449.9224    -238493.19447   -185838.10064
  20902983.4454    -962898.43047   -750309.19363
  22100313.8134   -1912992.17146  -1490638.40661
  23766891.4304    -508838.20046   -396495.94061
  23908396.6644     122911.01743     47998.01161
 91  4 30 22 53  0.0000000  0  5G 2G 6G13G15G19
  21057146.3524    -245348.93248   -191180.24064
  20897326.2114    -992610.98647   -773461.81663
  22088887.0164   -1973037.69646  -1537427.01061
  23764201.0084    -522992.58446   -407525.29961
  23914281.9614     153818.15543     72081.35061
 91  4 30 22 53 15.0000000  0  5G 2G 6G13G15G19
  21055854.4774    -252143.43148   -196474.63963
  20891690.8134   -1022227.15647   -796539.33663
  22077482.7504   -2032966.46346  -1584124.61461
  23761532.9694    -536995.05146   -418436.28361
  23920175.7664     184795.94642
 91  4 30 22 53 30.0000000  0  4G 2G 6G13G15
  21054571.5394    -258875.65748   -201720.51764
  20886075.2344   -1051745.60347   -819540.70963
  22066101.1564   -2092777.17146  -1630730.24861
  23758895.3754    -550844.76546   -429228.23161
 91  4 30 22 53 45.0000000  0  4G 2G 6G13G15
  21053303.3134    -265545.40448   -206917.71463
  20880477.4924   -1081165.74347   -842465.47563
  22054742.6484   -2152469.21846  -1677243.40961
  23756290.2344    -564541.20946   -439900.76761
 91  4 30 22 54  0.0000000  0  4G 2G 6G13G15
  21052046.9384    -272152.48448   -212066.07364
  20874897.0864   -1110487.00247   -865313.18864
  22043403.9694   -2212042.12546  -1723663.73761
  23753714.5554    -578084.30546   -450453.81561
 91  4 30 22 54 15.0000000  0  4G 2G 6G13G15
  21050800.7034    -278698.70048   -217167.00063
  20869336.9844   -1139711.04847   -888085.15063
  22032090.2584   -2271497.43046  -1769992.41861
  23751162.6884    -591475.59945   -460888.55161
 91  4 30 22 54 30.0000000  0  4G 2G 6G13G15
  21049566.2584    -285184.48348   -222220.84164
  20863793.2114   -1168837.78847   -910781.28763
  22020800.1884   -2330835.10646  -1816229.45061
  23748644.7814    -604715.26145   -471205.13361
 91  4 30 22 54 45.0000000  0  4G 2G 6G13G15
  21048343.1644    -291615.20748   -227231.77764
  20858267.8134   -1197872.67147   -933405.85063
  22009530.3444   -2390060.48646  -1862378.95961
  23746148.0634    -617808.75745   -481407.81761
 91  4 30 22 55  0.0000000  0  4G 2G 6G13G15
  21047129.1414    -297991.21548   -232200.08764
  20852761.0004   -1226815.46947   -955958.65663
  21998281.3134   -2449173.38746  -1908440.84661
  23743683.5474    -630756.32745   -491496.77161
 91  4 30 22 55 15.0000000  0  4G 2G 6G13G15
  21045926.5554    -304315.57248   -237128.13864
  20847269.5784   -1255668.89247   -978441.81463
  21987054.4924   -2508176.46246  -1954417.15261
  23741250.3754    -643560.62245   -501474.06061
 91  4 30 22 55 30.0000000  0  4G 2G 6G13G15
  21044730.3524    -310586.94348   -242014.91464
  20841795.4924   -1284431.51847  -1000854.22663
  21975844.6254   -2567068.02146  -2000306.56861
  23738847.7734    -656220.45545   -511338.81761
 91  4 30 22 55 45.0000000  0  4G 2G 6G13G15
  21043547.7974    -316805.93848   -246860.87364
  20836339.7274   -1313103.53747  -1023196.03763
  21964658.4304   -2625848.45946  -2046109.39061
  23736465.7974    -668736.10546   -521091.23861
 91  4 30 22 56  0.0000000  0  4G 2G 6G13G15
  21042374.7344    -322977.41048   -251669.80463
  20830897.2894   -1341689.54747  -1045470.83763
  21953493.2584   -2684522.26846  -2091829.12561
  23734111.3204    -681112.41046   -530735.10561
 91  4 30 22 56 15.0000000  0  4G 2G 6G13G15
  21041208.4384    -329103.19548   -256443.13464
  20825477.9144   -1370191.19047  -1067679.90163
  21942348.8594   -2743091.05546  -2137467.02061
  23731780.9304    -693351.25946   -540271.85861
 91  4 30 22 56 30.0000000  0  4G 2G 6G13G15
  21040048.3204    -335198.26648   -261192.53063
  20820065.3364   -1398623.05847  -1089834.58363
  21931221.7344   -2801569.55046  -2183034.55061
  23729477.1564    -705467.40546   -549713.02161
 91  4 30 22 56 45.0000000  0  4G 2G 6G13G15
  21038894.8834    -341259.09248   -265915.24063
  20814670.3754   -1426981.38947  -1111931.95963
  21920110.2814   -2859953.76146  -2228528.62361
  23727192.1174    -717457.08646   -559055.62961
 91  4 30 22 57  0.0000000  0  4G 2G 6G13G15
  21037752.2424    -347261.93948   -270592.76663
  20809293.0004   -1455242.09947  -1133953.26463
  21909023.7424   -2918219.69346  -2273930.52061
  23724934.9614    -729296.82445   -568281.36561
 91  4 30 22 57 15.0000000  0  4G 2G 6G13G15
  21036618.6334    -353228.21548   -275241.80163
  20803929.7114   -1483426.34047  -1155914.98263
  21897953.7894   -2976388.55246  -2319256.78061
  23722708.5634    -741007.86145   -577406.79461
 91  4 30 22 57 30.0000000  0  4G 2G 6G13G15
  21035493.0784    -359141.63648   -279849.65463
  20798583.2034   -1511517.64447  -1177804.29863
  21886905.0474   -3034443.68146  -2364494.42761
  23720509.3594    -752573.86745   -586419.21461
 91  4 30 22 57 45.0000000  0  4G 2G 6G13G15
  21034375.5234    -365020.84848   -284430.84263
  20793249.3754   -1539534.14847  -1199635.32663
  21875875.3594   -3092403.36646  -2409657.69461
  23718331.4534    -764013.21345   -595332.93861
 91  4 30 22 58  0.0000000  0  4G 2G 6G13G15
  21033261.3594    -370866.80348   -288986.12063
  20787932.3364   -1567476.66247  -1221408.70663
  21864863.6954   -3150268.16746  -2454747.02661
  23716179.2584    -775326.71546   -604148.61861
 91  4 30 22 58 15.0000000  0  4G 2G 6G13G15
  21032154.8594    -376679.68648   -293515.63463
  20782629.9064   -1595345.08947  -1243124.33963
  21853870.5164   -3208038.15146  -2499762.46961
  23714048.3984    -786514.61746   -612866.42061
 91  4 30 22 58 30.0000000  0  4G 2G 6G13G15
  21031055.9534    -382457.59048   -298017.88863
  20777340.1334   -1623137.22047  -1264780.51463
  21842897.5394   -3265710.96446  -2544702.19661
  23711946.3054    -797574.72545   -621484.64561
 91  4 30 22 58 45.0000000  0  4G 2G 6G13G15
  21029964.0394    -388202.06748   -302494.09263
  20772067.3284   -1650854.21547  -1286378.14563
  21831940.9144   -3323287.67846  -2589567.05161
  23709861.9454    -808508.56045   -630004.47761
 91  4 30 22 59  0.0000000  0  4G 2G 6G13G15
  21028875.7034    -393916.96248   -306947.24763
  20766805.6724   -1678499.46947  -1307919.88863
  21821000.8204   -3380771.78346  -2634359.72861
  23707805.2424    -819319.65545   -638428.68261
 91  4 30 22 59 15.0000000  0  4G 2G 6G13G15
  21027794.8524    -399599.22748   -311374.98063
  20761557.7274   -1706069.91547  -1329403.35963
  21810079.5864   -3438160.14046  -2679077.80761
  23705776.2034    -830004.91345   -646754.82861
 91  4 30 22 59 30.0000000  0  4G 2G 6G13G15
  21026720.9844    -405250.15848   -315778.28163
  20756324.2814   -1733566.60047  -1350829.33463
  21799176.5634   -3495453.71946  -2723722.03861
  23703765.1414    -840565.78745   -654984.07861
 91  4 30 22 59 45.0000000  0  4G 2G 6G13G15
  21025650.6094    -410870.10548   -320157.44563
  20751107.6094   -1760989.55247  -1372197.84763
  21788292.8284   -3552652.59846  -2768292.47061
  23701776.6414    -851002.46146   -663116.55361
 91  4 30 23  0  0.0000000  0  4G 2G 6G13G15
  21024585.4304    -416460.37748   -324513.49863
  20745904.3524   -1788339.77347  -1393509.67763
  21777428.3054   -3609757.59546  -2812789.76661
  23699815.7034    -861316.06646   -671153.09861
 91  4 30 23  0 15.0000000  0  4G 2G 6G13G15
  21023527.6414    -422021.40948   -328846.76763
  20740714.8284   -1815617.39547  -1414764.93963
  21766579.0004   -3666769.00746  -2857214.12761
  23697875.0704    -871507.20546   -679094.22761
 91  4 30 23  0 30.0000000  0  4G 2G 6G13G15
  21022472.9694    -427552.69448   -333156.84963
  20735535.8134   -1842821.69547  -1435963.08463
  21755746.5474   -3723686.05847  -2901564.95361
  23695961.2584    -881575.30746   -686939.47561
 91  4 30 23  0 45.0000000  0  4G 2G 6G13G15
  21021426.2424    -433053.13748   -337442.91463
  20730374.5474   -1869951.15347  -1457102.92063
  21744933.9924   -3780507.32847  -2945841.14661
  23694067.2814    -891519.05346   -694687.82961
 91  4 30 23  1  0.0000000  0  4G 2G 6G13G15
  21020385.2814    -438525.31948   -341706.94464
  20725227.5394   -1897008.07147  -1478186.22063
  21734138.6954   -3837235.03847  -2990044.43461
  23692200.3594    -901341.01545   -702341.28561
 91  4 30 23  1 15.0000000  0  4G 2G 6G13G15
  21019349.4614    -443964.66548   -345945.38864
  20720093.2664   -1923987.66347  -1499209.24963
  21723363.3284   -3893864.46247  -3034171.13361
  23690354.3134    -911036.51545   -709896.19061
 91  4 30 23  1 30.0000000  0  4G 2G 6G13G15
  21018322.5394    -449375.36848   -350161.50663
  20714972.3524   -1950893.88347  -1520175.11763
  21712607.9224   -3950399.46147  -3078224.26561
  23688532.3444    -920609.59145   -717355.69861
 91  4 30 23  1 45.0000000  0  4G 2G 6G13G15
  21017296.3054    -454757.07848   -354355.03464
  20709865.2034   -1977726.11047  -1541083.32563
  21701867.0634   -4006839.46747  -3122203.37761
  23686733.3134    -930060.03845   -724719.65661
 91  4 30 23  2  0.0000000  0  4G 2G 6G13G15
  21016279.6414    -460107.77948   -358524.41563
  20704773.1884   -2004481.95747  -1561932.03863
  21691141.3594   -4063181.99547  -3166106.53761
  23684958.6334    -939385.71546   -731986.40161
 91  4 30 23  2 15.0000000  0  4G 2G 6G13G15
  21015265.9224    -465429.56748   -362671.25263
  20699695.6724   -2031163.30547  -1582722.68263
  21680437.2584   -4119429.07647  -3209935.30461
  23683207.5864    -948588.47946   -739157.35861
 91  4 30 23  2 30.0000000  0  4G 2G 6G13G15
  21014257.0704    -470723.43147   -366796.33863
  20694633.3674   -2057770.80747  -1603455.77863
  21669753.0234   -4175581.13547  -3253690.04661
  23681479.2274    -957669.42446   -746233.40961
 91  4 30 23  2 45.0000000  0  4G 2G 6G13G15
  21013256.5554    -475985.39348   -370896.56963
  20689586.3054   -2084300.27847  -1624128.07663
  21659087.5084   -4231633.83847  -3297367.36861
  23679778.6804    -966624.33546   -753211.26461
 91  4 30 23  3  0.0000000  0  4G 2G 6G13G15
  21012264.3594    -481217.26748   -374973.34363
  20684550.8754   -2110753.22447  -1644740.74263
  21648441.2504   -4287588.89347  -3340968.59661
  23678093.8524    -975455.09646   -760092.37561
 91  4 30 23  3 15.0000000  0  4G 2G 6G13G15
  21011272.1484    -486418.45748   -379026.21063
  20679532.1484   -2137128.75247  -1665293.08963
  21637811.9454   -4343445.42447  -3384493.05961
  23676436.5314    -984161.19345   -766876.33861
 91  4 30 23  3 30.0000000  0  4G 2G 6G13G15
  21010289.1884    -491589.58948   -383055.65663
  20674527.3594   -2163427.30747  -1685785.46363
  21627200.1564   -4399203.77847  -3427941.01161
  23674803.7114    -992742.93345   -773563.36661
 91  4 30 23  3 45.0000000  0  4G 2G 6G13G15
  21009310.9224    -496730.01948   -387061.17363
  20669538.8284   -2189647.92047  -1706217.08963
  21616605.6484   -4454862.89946  -3471311.64561
  23673197.6484   -1001199.89945   -780153.16661
 91  4 30 23  4  0.0000000  0  4G 2G 6G13G15
  21008338.8674    -501835.97948   -391039.83163
  20664564.6564   -2215786.41447  -1726584.73263
  21606034.8134   -4510418.90747  -3514601.91761
  23671612.5314   -1009527.95146   -786642.52261
 91  4 30 23  4 15.0000000  0  4G 2G 6G13G15
  21007372.4924    -506914.71748   -394997.27763
  20659603.8134   -2241849.87847  -1746893.90863
  21595482.7814   -4565878.78547  -3557817.29861
  23670052.8914   -1017734.70246   -793037.36161
 91  4 30 23  4 30.0000000  0  4G 2G 6G13G15
  21006411.2194    -511963.02548   -398931.01563
  20654660.1884   -2267834.92347  -1767141.98663
  21584948.2504   -4621238.98347  -3600955.00861
  23668514.3364   -1025816.72146   -799335.02361
 91  4 30 23  4 45.0000000  0  4G 2G 6G13G15
  21005455.6094    -516980.40848   -402840.64963
  20649730.5004   -2293740.54247  -1787328.16563
  21574431.6484   -4676498.56247  -3644014.32261
  23667000.9924   -1033773.48446   -805535.09561
 91  4 30 23  5  0.0000000  0  4G 2G 6G13G15
  21004507.4224    -521967.49148   -406726.68064
  20644814.7584   -2319567.20747  -1807452.82163
  21563934.4844   -4731657.86847  -3686995.49561
  23665511.2344   -1041605.33846   -811637.86561
 91  4 30 23  5 15.0000000  0  4G 2G 6G13G15
  21003564.2344    -526920.49848   -410586.15664
  20639915.6564   -2345310.71847  -1827512.68363
  21553456.8914   -4786713.01347  -3729895.50661
  23664040.3204   -1049308.36245   -817640.22761
 91  4 30 23  5 30.0000000  0  4G 2G 6G13G15
  21002629.5394    -531841.43648   -414420.64964
  20635032.7114   -2370972.98347  -1847509.23463
  21542998.3524   -4841665.57246  -3772715.57761
  23662597.3524   -1056884.91945   -823544.01761
 91  4 30 23  5 45.0000000  0  4G 2G 6G13G15
  21001697.9844    -536731.23848   -418230.86964
  20630165.0004   -2396554.55347  -1867442.89363
  21532561.7974   -4896516.24946  -3815456.25961
  23661185.2504   -1064335.59445   -829349.71561
 91  4 30 23  6  0.0000000  0  4G 2G 6G13G15
  21000773.5784    -541588.00448   -422015.35964
  20625313.3444   -2422053.45347  -1887312.14263
  21522144.1024   -4951263.11846  -3858116.04161
  23659786.5234   -1071658.65745   -835055.97061
 91  4 30 23  6 15.0000000  0  4G 2G 6G13G15
  20999856.9064    -546410.58048   -425773.21364
  20620477.5084   -2447468.15047  -1907115.78363
  21511747.0234   -5005904.78147  -3900693.85461
  23658420.7344   -1078852.99746   -840661.92361
 91  4 30 23  6 30.0000000  0  4G 2G 6G13G15
  20998944.8594    -551202.83848   -429507.43564
  20615655.1334   -2472802.27147  -1926856.64763
  21501368.2974   -5060444.64547  -3943192.35561
  23657073.6484   -1085922.28546   -846170.45061
 91  4 30 23  6 45.0000000  0  4G 2G 6G13G15
  20998036.6414    -555962.64148   -433216.37064
  20610851.9614   -2498053.34047  -1946532.79563
  21491007.6484   -5114880.38746  -3985609.71361
  23655754.3594   -1092864.53546   -851579.96461
 91  4 30 23  7  0.0000000  0  4G 2G 6G13G15
  20997138.3754    -560688.69148   -436898.99963
  20606060.7664   -2523219.73247  -1966142.95463
  21480670.0234   -5169210.24446  -4027944.56061
  23654453.4844   -1099678.23746   -856889.32261
 91  4 30 23  7 15.0000000  0  4G 2G 6G13G15
  20996246.3284    -565379.90248   -440554.47663
  20601288.7034   -2548300.23547  -1985686.18463
  21470351.8364   -5223432.86646  -4070195.85661
  23653185.3524   -1106362.07046   -862097.46861
 91  4 30 23  7 30.0000000  0  4G 2G 6G13G15
  20995360.1254    -570037.92248   -444184.09163
  20596533.0234   -2573295.95747  -2005163.34963
  21460054.2424   -5277549.67446  -4112364.69161
  23651939.9614   -1112918.02046   -867205.97661
 91  4 30 23  7 45.0000000  0  4G 2G 6G13G15
  20994480.1884    -574662.92248   -447787.96563
  20591794.4774   -2598207.06547  -2024574.57063
  21449776.4534   -5331560.67146  -4154451.08561
  23650714.1334   -1119346.06046   -872214.82061
 91  4 30 23  8  0.0000000  0  4G 2G 6G13G15
  20993607.1174    -579254.76048   -451366.00463
  20587071.3984   -2623033.07047  -2043919.48663
  21439518.1024   -5385465.48746  -4196454.74361
  23649513.7034   -1125646.05346   -877123.88961
 91  4 30 23  8 15.0000000  0  4G 2G 6G13G15
  20992740.6254    -583810.98248   -454916.29063
  20582361.7814   -2647771.42647  -2063196.10563
  21429281.1884   -5439261.53646  -4238373.65161
  23648336.8524   -1131815.92646   -881931.57461
 91  4 30 23  8 30.0000000  0  4G 2G 6G13G15
  20991879.2034    -588329.55148   -458437.23863
  20577670.4924   -2672419.70447  -2082402.54663
  21419065.6094   -5492946.34847  -4280205.87961
  23647190.7034   -1137853.28246   -886636.00261
 91  4 30 23  8 45.0000000  0  4G 2G 6G13G15
  20991024.1884    -592814.63848   -461932.10763
  20572994.5944   -2696981.98747  -2101541.98463
  21408870.0634   -5546524.10447  -4321954.68661
  23646064.9304   -1143762.44446   -891240.52861
 91  4 30 23  9  0.0000000  0  4G 2G 6G13G15
  20990177.5234    -597264.98248   -465399.90463
  20568338.6724   -2721456.59147  -2120613.09363
  21398695.0634   -5599993.09447  -4363618.73861
  23644965.7974   -1149541.98445   -895744.04961
 91  4 30 23  9 15.0000000  0  4G 2G 6G13G15
  20989336.2194    -601680.05947   -468840.21763
  20563698.2114   -2745842.62247  -2139615.17663
  21388538.7114   -5653352.45447  -4405197.36361
  23643892.7734   -1155191.46045   -900146.21761
 91  4 30 23  9 30.0000000  0  4G 2G 6G13G15
  20988504.8914    -606060.37347   -472253.45463
  20559074.1884   -2770140.42547  -2158548.50363
  21378405.1174   -5706602.30547  -4446690.66161
  23642841.8204   -1160711.26046   -904447.32661
 91  4 30 23  9 45.0000000  0  4G 2G 6G13G15
  20987679.2814    -610407.20048   -475640.58764
  20554468.1094   -2794350.95947  -2177413.83363
  21368295.6564   -5759743.76647  -4488099.49161
  23641813.7504   -1166102.65446   -908648.42361
 91  4 30 23 10  0.0000000  0  4G 2G 6G13G15
  20986856.5554    -614720.85948   -479001.87164
  20549875.5634   -2818474.22047  -2196211.16163
  21358203.7504   -5812776.83747  -4529423.87761
  23640818.1094   -1171365.68246   -912749.47361
 91  4 30 23 10 15.0000000  0  4G 2G 6G13G15
  20986043.3914    -618998.98948   -482335.47364
  20545302.8594   -2842507.80747  -2214938.61463
  21348132.6334   -5865699.15647  -4570661.96661
  23639838.6414   -1176498.19846   -916748.83561
 91  4 30 23 10 30.0000000  0  4G 2G 6G13G15
  20985234.1804    -623243.35548   -485642.77264
  20540745.5164   -2866453.14447  -2233597.31163
  21338082.2424   -5918512.19447  -4611814.88661
  23638887.7664   -1181502.20046   -920648.04261
 91  4 30 23 10 45.0000000  0  4G 2G 6G13G15
  20984432.8204    -627454.16248   -488923.92664
  20536205.2894   -2890310.18647  -2252187.20863
  21328051.4534   -5971215.89347  -4652882.60861
  23637953.7814   -1186377.78946   -924447.17161
 91  4 30 23 11  0.0000000  0  4G 2G 6G13G15
  20983639.0084    -631630.47948   -492178.20164
  20531683.5004   -2914077.66147  -2270707.31663
  21318042.3444   -6023809.04747  -4693864.19261
  23637056.9224   -1191123.94645   -928145.44761
 91  4 30 23 11 15.0000000  0  4G 2G 6G13G15
  20982851.6024    -635772.42248   -495405.68363
  20527179.1024   -2937755.29447  -2289157.41063
  21308056.4304   -6076291.30947  -4734759.37361
  23636176.8594   -1195740.43545   -931742.68561
 91  4 30 23 11 30.0000000  0  4G 2G 6G13G15
  20982071.2974    -639876.07848   -498603.33063
  20522690.8054   -2961339.15247  -2307534.42463
  21298091.8914   -6128658.96147  -4775565.24761
  23635319.4064   -1200223.93845   -935236.29161
 91  4 30 23 11 45.0000000  0  4G 2G 6G13G15
  20981298.1484    -643942.42848   -501771.91363
  20518220.3444   -2984829.93747  -2325838.91362
  21288148.7584   -6180912.46147  -4816282.17461
  23634492.5004   -1204575.45845   -938627.06461
 91  4 30 23 12  0.0000000  0  4G 2G 6G13G15
  20980531.0004    -647972.65948   -504912.33863
  20513766.2734   -3008228.53347  -2344071.56962
  21278225.0634   -6233052.86447  -4856910.97561
  23633693.6334   -1208796.05845   -941915.81161
 91  4 30 23 12 15.0000000  0  4G 2G 6G13G15
  20979769.5474    -651965.59148
  20509331.8284   -3031533.37547  -2362231.17463
  21268324.7344   -6285078.77047  -4897450.55161
  23632915.8284   -1212884.41045
 91  4 30 23 12 30.0000000  0  4G 2G 6G13G15
  20979018.0944    -655921.71048
  20504913.8914   -3054744.99747  -2380318.14363
  21258446.2584   -6336990.36347  -4937901.05161
  23632161.8054   -1216841.23445
 91  4 30 23 12 45.0000000  0  4G 2G 6G13G15
  20978271.3364    -659840.24348   -514159.78263
  20500516.5944   -3077862.38347  -2398331.69063
  21248588.7974   -6388786.74247  -4978261.77461
  23631430.4064   -1220665.52346
 91  4 30 23 13  0.0000000  0  4G 2G 6G13G15
  20977533.5004    -663723.81748   -517185.94063
  20496133.2814   -3100887.67547  -2416273.47163
  21238756.1564   -6440470.25947  -5018534.55261
  23630728.8284   -1224360.07846
 91  4 30 23 13 15.0000000  0  4G 2G 6G13G15
  20976800.4694    -667571.66148   -520184.25863
  20491770.6484   -3123819.92947  -2434142.75163
  21228940.9064   -6492039.92447  -5058718.61761
  23630051.6414   -1227924.18146        -0.22471
 91  4 30 23 13 30.0000000  0  4G 2G 6G13G15
  20976073.6954    -671383.38848   -523154.43363
  20487425.0004   -3146658.45547  -2451938.99363
  21219151.3524   -6543495.17147  -5098813.52361
  23629399.5234   -1231357.33646     -2675.39661
 91  4 30 23 13 45.0000000  0  4G 2G 6G13G15
  20975356.6414    -675157.14948   -526095.02463
  20483096.7344   -3169401.23247  -2469660.62463
  21209381.5554   -6594833.90546  -5138817.64561
  23628773.4844   -1234657.97446     -5247.31961
 91  4 30 23 14  0.0000000  0  4G 2G 6G13G15
  20974644.9694    -678893.09248   -529006.14063
  20478788.1414   -3192048.04547  -2487307.48463
  21199633.2664   -6646056.04446  -5178730.91461
  23628165.9384   -1237826.00146     -7715.91961
 91  4 30 23 14 15.0000000  0  4G 2G 6G13G15
  20973941.7584    -682590.37848   -531887.14264
  20474497.7034   -3214597.77347  -2504878.69163
  21189908.3524   -6697160.45846  -5218552.44761
  23627593.5164   -1240860.78246    -10080.68661
 91  4 30 23 14 30.0000000  0  4G 2G 6G13G15
  20973245.3914    -686252.82848   -534740.99363
  20470222.7344   -3237053.99347  -2522377.03763
  21180204.6884   -6748150.63446  -5258284.96061
  23627032.3054   -1243765.94545    -12344.41961
 91  4 30 23 14 44.9990000  0  4G 2G 6G13G15
  20972554.5194    -689877.21148   -537565.17763
  20465969.6594   -3259412.22747  -2539799.02763
  21170525.7534   -6799019.91846  -5297923.28261
  23626510.2764   -1246538.58745    -14504.89361
 91  4 30 23 14 59.9990000  0  4G 2G 6G13G15
  20971872.5034    -693463.48548   -540359.68463
  20461732.5344   -3281674.43547  -2557146.19063
  21160868.0194   -6849774.58246  -5337472.28761
  23626002.7454   -1249178.47045    -16561.90061
 91  4 30 23 15 14.9990000  0  4G 2G 6G13G15
  20971197.5034    -697013.31548   -543125.79263
  20457513.0264   -3303840.98547  -2574418.81263
  21151231.8084   -6900412.91946  -5376930.64461
  23625529.3784   -1251687.40445    -18516.86261
 91  4 30 23 15 29.9990000  0  4G 2G 6G13G15
  20970527.8084    -700526.00848   -545862.94563
  20453313.1834   -3325911.00647  -2591616.21863
  21141616.2374   -6950934.08446  -5416297.70161
  23625081.6124   -1254064.96546    -20369.48861
 91  4 30 23 15 44.9990000  0  4G 2G 6G13G15
  20969867.3154    -704001.11048   -548570.81563
  20449131.1364   -3347883.73347  -2608737.81063
  21132026.0504   -7001337.40546  -5455572.92861
  23624650.3314   -1256310.50146    -22119.24461
 91  4 30 23 15 59.9990000  0  4G 2G 6G13G15
  20969214.1054    -707438.28748   -551249.13363
  20444969.6514   -3369758.40947  -2625783.00563
  21122456.1054   -7051622.04846  -5494755.67661
  23624246.7304   -1258423.54346    -23765.78361
 91  4 30 23 16 14.9990000  0  4G 2G 6G13G15
  20968567.5504    -710835.91148   -553896.62463
  20440825.4954   -3391533.23347  -2642750.38863
  21112910.1054   -7101786.43746  -5533844.71861
  23623868.3314   -1260402.32646    -25307.69561
 91  4 30 23 16 29.9990000  0  4G 2G 6G13G15
  20967928.4644    -714196.80848   -556515.49563
  20436699.4404   -3413210.74947  -2659641.95563
  21103386.9644   -7151832.94047  -5572841.91161
  23623520.6284   -1262249.95246    -26747.39961
 91  4 30 23 16 44.9990000  0  4G 2G 6G13G15
  20967294.7454    -717522.83948   -559107.20563
  20432593.6834   -3434792.79847  -2676459.13863
  21093886.5114   -7201763.36647  -5611748.66261
  23623190.4564   -1263968.58346    -28086.58861
 91  4 30 23 16 59.9990000  0  4G 2G 6G13G15
  20966667.7844    -720813.19148   -561671.11463
  20428505.4954   -3456278.19847  -2693201.00363
  21084409.4014   -7251576.76847  -5650564.22961
  23622886.5194   -1265557.38445    -29324.58961
 91  4 30 23 17 14.9990000  0  4G 2G 6G13G15
  20966049.6204    -724064.95748   -564204.96563
  20424438.3864   -3477663.79047  -2709865.08863
  21074952.7374   -7301270.21447  -5689286.31661
  23622614.2374   -1267013.50745    -30459.19561
 91  4 30 23 17 29.9990000  0  4G 2G 6G13G15
  20965439.9874    -727278.55248   -566709.06763
  20420385.1364   -3498949.70447  -2726451.49663
  21065518.1754   -7350843.57947  -5727914.83661
  23622365.2534   -1268337.40245    -31490.77461
 91  4 30 23 17 44.9990000  0  4G 2G 6G13G15
  20964835.2924    -730452.23248   -569182.06464
  20416354.1204   -3520133.98047  -2742958.70063
  21056106.8624   -7400295.05447  -5766448.37561
  23622135.0424   -1269527.20745    -32417.88861
 91  4 30 23 17 59.9990000  0  4G 2G 6G13G15
  20964237.0034    -733589.81648   -571626.94463
  20412342.9874   -3541220.07647  -2759389.41463
  21046717.6594   -7449627.97347  -5804889.52861
  23621934.2144   -1270586.81446    -33243.56461
 91  4 30 23 18 14.9990000  0  4G 2G 6G13G15
  20963646.0894    -736690.63248   -574043.16563
  20408346.3554   -3562207.18647  -2775743.00263
  21037353.0264   -7498841.67347  -5843237.78661
  23621758.0034   -1271515.52446    -33967.25061
 91  4 30 23 18 29.9990000  0  4G 2G 6G13G15
  20963063.9174    -739751.45048   -576428.22263
  20404373.0584   -3583091.92447  -2792016.82363
  21028012.1444   -7547932.84947  -5881490.56461
  23621603.4094   -1272310.29946    -34586.56261
 91  4 30 23 18 44.9990000  0  4G 2G 6G13G15
  20962489.5114    -742774.05848   -578783.50063
  20400418.8394   -3603875.94947  -2808212.16763
  21018693.7454   -7596903.34647  -5919649.31261
  23621481.1754   -1272973.32946    -35103.20561
 91  4 30 23 18 59.9990000  0  4G 2G 6G13G15
  20961920.0654    -745758.43148   -581108.98663
  20396483.7224   -3624558.89747  -2824328.74563
  21009397.7374   -7645752.76347  -5957713.71361
  23621380.6754   -1273504.23346    -35516.87861
 91  4 30 23 19 14.9990000  0  4G 2G 6G13G15
  20961363.3084    -748703.94448   -583404.18563
  20392567.1594   -3645139.78847  -2840365.79063
  21000124.8864   -7694479.66247  -5995682.65561
  23621300.9874   -1273902.18746    -35826.93661
 91  4 30 23 19 29.9990000  0  4G 2G 6G13G15
  20960808.0424    -751611.34348   -585669.68163
  20388669.4484   -3665619.17047  -2856323.73463
  20990873.8944   -7743085.05347  -6033556.90161
  23621254.3394   -1274168.27245    -36034.25161
 91  4 30 23 19 44.9990000  0  4G 2G 6G13G15
  20960261.8704    -754480.59548   -587905.46063
  20384790.0034   -3685996.94647  -2872202.50863
  20981647.0424   -7791568.82747  -6071336.39161
  23621230.1054   -1274302.88145
 91  4 30 23 19 59.9990000  0  4G 2G 6G13G15
  20959723.2454    -757311.90048   -590111.67463
  20380932.6514   -3706272.98647  -2888002.00863
  20972445.0734   -7839931.00447  -6109021.12461
  23621224.1204   -1274306.06145
 91  4 30 23 20 14.9990000  0  4G 2G 6G13G15
  20959190.8624    -760106.32148   -592289.14363
  20377095.0034   -3726448.16747  -2903722.92063
  20963265.5504   -7888172.42747  -6146611.76461
  23621246.4804   -1274178.96146
 91  4 30 23 20 29.9990000  0  4G 2G 6G13G15
  20958666.9644    -762863.32748   -594437.46364
  20373274.7374   -3746521.62247  -2919364.56263
  20954109.2304   -7936292.27647  -6184107.67661
  23621298.0814   -1273921.05946
 91  4 30 23 20 44.9990000  0  4G 2G 6G13G15
  20958149.1594    -765584.95148   -596558.21064
  20369471.6754   -3766495.31647  -2934928.48263
  20944975.3624   -7984292.63547  -6221510.48061
  23621373.4564   -1273534.53846
 91  4 30 23 20 59.9990000  0  4G 2G 6G13G15
  20957637.9954    -768267.91648   -598648.83964
  20365692.3624   -3786365.62247  -2950411.83863
  20935861.5734   -8032169.79547  -6258817.28661
  23621468.3554   -1273015.88346        -0.27071
 91  4 30 23 21 14.9990000  0  4G 2G 6G13G15
  20957134.0194    -770912.51748   -600709.57463
  20361932.0734   -3806132.76447  -2965814.79763
  20926774.2304   -8079924.04747  -6296028.31961
  23621595.6594   -1272365.91545       506.20261
 91  4 30 23 21 29.9990000  0  4G 2G 6G13G15
  20956637.3474    -773518.37748   -602740.11363
  20358189.7304   -3825796.02447  -2981136.80663
  20917711.8394   -8127554.78547  -6333143.11161
  23621744.3704   -1271584.20145      1115.35561
 91  4 30 23 21 44.9990000  0  4G 2G 6G13G15
  20956150.2694    -776083.47448   -604738.88963
  20354467.5194   -3845353.21047  -2996376.15563
  20908670.3394   -8175059.74447  -6370159.88461
  23621917.8394   -1270668.87045      1828.63361
 91  4 30 23 21 59.9990000  0  4G 2G 6G13G15
  20955670.4644    -778609.56248   -606707.27363
  20350766.2764   -3864805.74247  -3011533.96263
  20899655.3554   -8222440.42847  -6407079.82261
  23622112.7224   -1269621.58345      2644.73361
 91  4 30 23 22 14.9990000  0  4G 2G 6G13G15
  20955196.9174    -781099.04948   -608647.12263
  20347084.5034   -3884155.83647  -3026611.94763
  20890664.2764   -8269699.11447  -6443904.70261
  23622346.4174   -1268444.78146      3561.74261
 91  4 30 23 22 29.9990000  0  4G 2G 6G13G15
  20954731.3864    -783548.30548   -610555.62463
  20343421.7144   -3903399.54347  -3041607.04463
  20881693.2064   -8316832.00247  -6480631.56461
  23622588.4334   -1267134.91446      4582.42561
 91  4 30 23 22 44.9990000  0  4G 2G 6G13G15
  20954272.9874    -785961.67148   -612436.16863
  20339779.7764   -3922541.25747  -3056522.65363
  20872747.8314   -8363843.36547  -6517263.72461
  23622867.4804   -1265696.54046      5703.23261
 91  4 30 23 22 59.9990000  0  4G 2G 6G13G15
  20953820.6054    -788336.38848   -614286.59163
  20336155.4014   -3941577.94947  -3071356.42863
  20863825.7304   -8410730.43447  -6553799.03961
  23623163.4014   -1264126.88746      6926.32361
 91  4 30 23 23 14.9990000  0  4G 2G 6G13G15
  20953373.1204    -790672.60847   -616107.03463
  20332552.8554   -3960509.51247  -3086108.29063
  20854926.5814   -8457493.14247  -6590237.44661
  23623488.5894   -1262426.22946      8251.50161
 91  4 30 23 23 29.9990000  0  4G 2G 6G13G15
  20952936.5344    -792972.11147   -617898.86863
  20328970.0344   -3979337.45347  -3100779.40763
  20846051.8314   -8504132.78747  -6626579.95661
  23623831.0654   -1260596.43845      9677.31461
 91  4 30 23 23 44.9990000  0  4G 2G 6G13G15
  20952506.4954    -795234.13847   -619661.48663
  20325408.5424   -3998060.85547  -3115369.06563
  20837199.8154   -8550648.56547  -6662825.94661
  23624205.2694   -1258637.00745     11204.17461
 91  4 30 23 23 59.9990000  0  4G 2G 6G13G15
  20952084.8154    -797457.19748   -621393.74263
  20321866.5264   -4016677.97347  -3129875.89763
  20828371.6204   -8597039.02447  -6698974.29662
  23624603.9094   -1256546.61146     12833.06961
 91  4 30 23 24 14.9990000  0  4G 2G 6G13G15
  20951668.7144    -799640.86548   -623095.29863
  20318344.1674   -4035188.29547  -3144299.51763
  20819566.5194   -8643303.42747  -6735024.41161
  23625029.7374   -1254324.73646     14564.41561
 91  4 30 23 24 29.9990000  0  4G 2G 6G13G15
  20951260.3314    -801787.56548   -624768.04363
  20314840.3474   -4053593.85347  -3158641.51063
  20810786.8394   -8689444.05047  -6770978.08361
  23625477.0584   -1251973.93446     16396.23261
 91  4 30 23 24 44.9990000  0  4G 2G 6G13G15
  20950858.0344    -803899.14848   -626413.42063
  20311357.5894   -4071896.24747  -3172903.10863
  20802029.5344   -8735462.44547  -6806836.50461
  23625947.3084   -1249496.05045     18327.05861
 91  4 30 23 24 59.9990000  0  4G 2G 6G13G15
  20950464.7454    -805974.32948   -628030.43363
  20307894.8704   -4090094.25947  -3187083.37263
  20793295.6364   -8781357.41447  -6842598.75261
  23626445.0344   -1246890.06345     20357.70661
 91  4 30 23 25 14.9990000  0  4G 2G 6G13G15
  20950074.5894    -808010.80748   -629617.28963
  20304451.1984   -4108185.22847  -3201180.22263
  20784586.8084   -8827126.57447  -6878262.96461
  23626961.3784   -1244153.99445     22489.71261
 91  4 30 23 25 29.9990000  0  4G 2G 6G13G15
  20949693.8944    -810010.85348   -631175.76763
  20301029.1674   -4126171.14547  -3215195.22863
  20775900.3704   -8872771.70947  -6913830.53461
  23627502.7144   -1241289.82245     24721.54061
 91  4 30 23 25 44.9990000  0  4G 2G 6G13G15
  20949321.6594    -811972.98348   -632704.69963
  20297627.4804   -4144050.40847  -3229127.11863
  20767238.9874   -8918291.47347  -6949300.42661
  23628076.0974   -1238296.15345     27054.26961
 91  4 30 23 25 59.9990000  0  4G 2G 6G13G15
  20948954.6754    -813898.01548   -634204.72464
  20294245.6514   -4161823.71047  -3242976.43363
  20758599.9094   -8963686.71247  -6984673.28562
  23628671.5264   -1235174.21245     29486.95961
 91  4 30 23 26 14.9990000  0  4G 2G 6G13G15
  20948595.8004    -815783.17248   -635673.68064
  20290883.0974   -4179487.87147  -3256740.70063
  20749984.9334   -9008954.15347  -7019946.54161
  23629291.2304   -1231921.18446     32021.78761
 91  4 30 23 26 29.9990000  0  4G 2G 6G13G15
  20948245.1514    -817631.11848   -637113.64164
  20287540.6594   -4197045.53147  -3270421.98463
  20741394.5424   -9054096.22347  -7055122.10961
  23629933.0264   -1228540.04846     34656.46061
 91  4 30 23 26 44.9990000  0  4G 2G 6G13G15
  20947901.5344    -819438.06548   -638521.65164
  20284220.6204   -4214492.62247  -3284017.12963
  20732830.3314   -9099109.24447  -7090197.12861
  23630604.7374   -1225026.82245     37394.05461
 91  4 30 23 26 59.9990000  0  4G 2G 6G13G15
  20947566.7454    -821205.42448   -639898.81163
  20280923.6674   -4231830.36347  -3297527.05363
  20724291.3864   -9143994.34947  -7125172.48261
  23631294.6834   -1221382.97845     40233.42961
 91  4 30 23 27 14.9990000  0  4G 2G 6G13G15
  20947235.8864    -822932.70047   -641244.73363
  20277646.6364   -4249058.07847  -3310951.23963
  20715772.9644   -9188751.00947  -7160047.74062
  23632015.9484   -1217608.50145     43174.59661
 91  4 30 23 27 29.9990000  0  4G 2G 6G13G15
  20946914.2614    -824624.15547   -642562.74963
  20274386.4094   -4266179.70447  -3324292.75063
  20707279.0974   -9233383.31747  -7194826.09961
  23632756.3624   -1213707.65945     46214.24261
 91  4 30 23 27 44.9990000  0  4G 2G 6G13G15
  20946599.4254    -826280.14748   -643853.13163
  20271148.5194   -4283195.48747  -3337551.78863
  20698809.1834   -9277891.50947  -7229507.74262
  23633522.0034   -1209680.75445     49352.09761
 91  4 30 23 27 59.9990000  0  4G 2G 6G13G15
  20946291.4404    -827898.39348   -645114.09863
  20267930.1904   -4300102.96847  -3350726.44163
  20690365.4644   -9322272.94547  -7264090.62362
  23634317.5264   -1205525.93846     52589.60661
 91  4 30 23 28 14.9990000  0  4G 2G 6G13G15
  20945988.3084    -829486.69148   -646351.73163
  20264731.5424   -4316909.87647  -3363822.73863
  20681942.3474   -9366535.69347  -7298581.01161
  23635130.1204   -1201251.06046     55920.66461
 91  4 30 23 28 29.9990000  0  4G 2G 6G13G15
  20945695.0734    -831033.21548   -647556.81963
  20261555.8084   -4333604.16447  -3376831.27863
  20673543.7454   -9410667.61647  -7332969.46261
  23635964.7694   -1196844.26145     59354.53461
 91  4 30 23 28 44.9990000  0  4G 2G 6G13G15
  20945407.0584    -832540.41248   -648731.25563
  20258400.5654   -4350187.83847  -3389753.61863
  20665170.9254   -9454670.81547  -7367257.60461
  23636828.2224   -1192308.37645     62889.00261
 91  4 30 23 28 59.9990000  0  4G 2G 6G13G15
  20945127.5264    -834010.02148   -649876.40663
  20255266.2534   -4366662.51847  -3402591.02763
  20656820.2844   -9498546.91947  -7401446.72261
  23637709.8234   -1187645.08545     66522.75561
 91  4 30 23 29 14.9990000  0  4G 2G 6G13G15
  20944855.5504    -835440.59448   -650991.14063
  20252150.7534   -4383026.69747  -3415342.33263
  20648496.0504   -9542294.46047  -7435535.65461
  23638628.6594   -1182852.97045     70256.89861
 91  4 30 23 29 29.9990000  0  4G 2G 6G13G15
  20944589.4174    -836832.31848   -652075.59963
  20249058.4484   -4399280.41747  -3428007.57163
  20640194.0264   -9585913.79347  -7469524.69161
  23639566.3234   -1177932.52445     74091.02461
 91  4 30 23 29 44.9990000  0  4G 2G 6G13G15
  20944334.1594    -838185.84548   -653130.29763
  20245986.0504   -4415424.13247  -3440587.08262
  20631918.4334   -9629405.47147  -7503414.25361
  23640526.8624   -1172884.86246     78024.27461
 91  4 30 23 29 59.9990000  0  4G 2G 6G13G15
  20944083.7144    -839500.70148   -654154.85963
  20242934.1124   -4431457.10147  -3453080.28362
  20623666.9804   -9672768.67347  -7537203.70061
  23641510.3394   -1167709.16246     82057.28661
 91  4 30 23 30 14.9990000  0  4G 2G 6G13G15
  20943840.6054    -840775.30748   -655148.05863
  20239905.5344   -4447377.49747  -3465485.77762
  20615439.8394   -9716001.47947  -7570891.54562
  23642519.5894   -1162403.83046     86191.30261
 91  4 30 23 30 29.9990000  0  4G 2G 6G13G15
  20943603.7614    -842010.60648   -656110.63563
  20236897.5814   -4463185.89947  -3477804.00262
  20607235.9804   -9759104.81547  -7604478.50162
  23643558.4724   -1156970.06546     90425.38361
 91  4 30 23 30 44.9990000  0  4G 2G 6G13G15
  20943377.8864    -843210.54348   -657045.65563
  20233908.9644   -4478886.22647  -3490038.01963
  20599057.3624   -9802082.62147  -7637967.63962
  23644610.3154   -1151411.92545     94756.40261
 91  4 30 23 30 59.9990000  0  4G 2G 6G13G15
  20943157.2224    -844371.02147   -657949.92163
  20230943.6904   -4494474.50347  -3502184.72563
  20590904.6984   -9844930.79347  -7671355.76261
  23645693.7144   -1145726.03945     99186.96661
 91  4 30 23 31 14.9990000  0  4G 2G 6G13G15
  20942944.4484    -845491.47547   -658823.00763
  20227997.4254   -4509949.85647  -3514243.44463
  20582776.7764   -9887648.77347  -7704642.43861
  23646801.4954   -1139911.71345    103717.63061
 91  4 30 23 31 29.9990000  0  4G 2G 6G13G15
  20942736.2534    -846572.91347   -659665.68563
  20225074.7064   -4525312.91547  -3526214.65963
  20574671.7064   -9930237.22347  -7737828.19661
  23647931.0114   -1133969.89545    108347.62961
 91  4 30 23 31 44.9990000  0  4G 2G 6G13G15
  20942540.2534    -847614.15847   -660477.05063
  20222174.1444   -4540562.34647  -3538097.33363
  20566591.6594   -9972694.92147  -7770912.06861
  23649084.8234   -1127899.60845    113077.71161
 91  4 30 23 31 59.9990000  0  4G 2G 6G13G15
  20942347.8084    -848620.92748   -661261.55663
  20219291.3624   -4555703.71147  -3549895.79962
  20558535.3084  -10015027.30847  -7803898.29261
  23650266.6284   -1121706.65945    117903.37961
 91  4 30 23 32 14.9990000  0  4G 2G 6G13G15
  20942164.3624    -849586.31748   -662013.80763
  20216432.6364   -4570729.97947  -3561604.56662
  20550504.3394  -10057227.38747  -7836781.42061
  23651464.4334   -1115384.52445    122829.71661
 91  4 30 23 32 29.9990000  0  4G 2G 6G13G15
  20941987.6054    -850514.70448   -662737.23163
  20213593.4404   -4585645.18947  -3573226.79562
  20542501.2844  -10099299.35947  -7869564.71662
  23652691.3784   -1108937.43845    127853.43061
 91  4 30 23 32 44.9990000  0  4G 2G 6G13G15
  20941818.7764    -851403.05348   -663429.44963
  20210777.4404   -4600446.44347  -3584760.23062
  20534517.7764  -10141240.45047  -7902246.02762
  23653940.6514   -1102362.79745    132976.54661
 91  4 30 23 32 59.9990000  0  4G 2G 6G13G15
  20941658.3554    -852253.19048   -664091.88863
  20207982.3624   -4615135.24247  -3596206.04562
  20526561.5344  -10183052.28747  -7934826.62361
  23655218.5114   -1095662.42445    138197.61461
 91  4 30 23 33 14.9990000  0  4G 2G 6G13G15
  20941501.6444    -853064.27348   -664723.89963
  20205208.9874   -4629710.53047  -3607563.40863
  20518630.0734  -10224733.66247  -7967305.56561
  23656519.6754   -1088835.67845    143517.16261
 91  4 30 23 33 29.9990000  0  4G 2G 6G13G15
  20941356.0814    -853834.97447   -665324.44763
  20202457.3784   -4644170.88447  -3618831.21562
  20510723.4174  -10266283.44247  -7999681.95962
  23657842.9804   -1081881.61046    148935.89361
 91  4 30 23 33 44.9990000  0  4G 2G 6G13G15
  20941215.9484    -854567.19747   -665895.01363
  20199727.6984   -4658517.91947  -3630010.71962
  20502841.0734  -10307703.45147  -8031957.23762
  23659191.2064   -1074801.89746    154452.53161
 91  4 30 23 33 59.9990000  0  4G 2G 6G13G15
  20941084.1904    -855256.86247   -666432.43163
  20197019.7694   -4672747.57347  -3641098.75562
  20494983.8154  -10348989.56047  -8064128.17862
  23660560.7614   -1067592.96245    160069.87261
 91  4 30 23 34 14.9990000  0  4G 2G 6G13G15
  20940959.6514    -855908.72447   -666940.38163
  20194333.6984   -4686864.39847  -3652098.87062
  20487152.9644  -10390146.26247  -8096198.28062
  23661956.4874   -1060259.76245    165784.04861
 91  4 30 23 34 29.9990000  0  4G 2G 6G13G15
  20940842.0264    -856520.61148   -667417.17663
  20191669.5504   -4700865.99147  -3663009.19662
  20479345.1514  -10431171.38147  -8128165.84562
  23663374.4954   -1052800.23445    171596.67261
 91  4 30 23 34 44.9990000  0  4G 2G 6G13G15
  20940735.1754    -857091.60248   -667862.10463
  20189026.0584   -4714751.24347  -3673828.86162
  20471566.0974  -10472063.88947  -8160030.07862
  23664818.6984   -1045213.61445    177508.35261
 91  4 30 23 34 59.9990000  0  4G 2G 6G13G15
  20940637.0504    -857621.20948   -668274.77763
  20186405.1834   -4728519.63047  -3684557.46962
  20463809.3084  -10512823.32647  -8191790.63062
  23666284.1674   -1037499.68045    183519.22661
 91  4 30 23 35 14.9990000  0  4G 2G 6G13G15
  20940539.4404    -858111.44848   -668656.77363
  20183807.2064   -4742172.92347  -3695196.39263
  20456076.7924  -10553451.39847  -8223448.81362
  23667781.6514   -1029660.28245    189627.84361
 91  4 30 23 35 29.9990000  0  4G 2G 6G13G15
  20940457.4254    -858559.73948   -669006.09663
  20181232.8084   -4755708.30547  -3705743.43363
  20448370.9804  -10593945.47247  -8255002.58862
  23669297.6514   -1021693.24446    195835.90961
 91  4 30 23 35 44.9990000  0  4G 2G 6G13G15
  20940379.3704    -858967.04748   -669323.48063
  20178679.0114   -4769126.62847  -3716199.27463
  20440689.5734  -10634306.22347  -8286452.47762
  23670838.7534   -1013599.64046    202142.58661
 91  4 30 23 35 59.9990000  0  4G 2G 6G13G15
  20940309.5814    -859336.36748   -669611.26863
  20176145.9254   -4782430.67047  -3726566.05463
  20433033.9804  -10674536.54647  -8317800.72462
  23672399.7224   -1005382.38945    208545.62461
 91  4 30 23 36 14.9990000  0  4G 2G 6G13G15
  20940245.1904    -859662.87848   -669865.70563
  20173638.4094   -4795615.44547  -3736839.90362
  20425404.6444  -10714631.83747  -8349043.75462
  23673987.7454    -997037.01845    215048.50161
 91  4 30 23 36 29.9990000  0  4G 2G 6G13G15
  20940194.3784    -859950.78448   -670090.05263
  20171151.8864   -4808685.10847  -3747024.05462
  20417799.5034  -10754596.23247  -8380184.79262
  23675599.1594    -988568.13145    221647.63461
 91  4 30 23 36 44.9990000  0  4G 2G 6G13G15
  20940143.0734    -860200.09748   -670284.32163
  20168686.1364   -4821639.44547  -3757118.33762
  20410219.9874  -10794429.66047  -8411223.77962
  23677233.0424    -979976.09745    228342.72361
 91  4 30 23 36 59.9990000  0  4G 2G 6G13G15
  20940104.5194    -860404.63548
  20166243.8084   -4834472.24747  -3767117.91262
  20402665.4804  -10834125.85047  -8442155.82962
  23678890.6444    -971254.66445    235138.66461
 91  4 30 23 37 14.9990000  0  4G 2G 6G13G15
  20940072.3154    -860569.75148
  20163824.4254   -4847188.50547  -3777026.67162
  20395135.7374  -10873690.20247  -8472985.14062
  23680575.9094    -962409.12645    242031.30461
 91  4 30 23 37 29.9990000  0  4G 2G 6G13G15
  20940051.6594    -860696.59647
  20161427.1984   -4859789.38047  -3786845.52562
  20387633.4334  -10913123.76947  -8503712.54062
  23682282.8394    -953440.85245    249019.56661
 91  4 30 23 37 44.9990000  0  4G 2G 6G13G15
  20940031.6284    -860782.63547
  20159052.3084   -4872272.13447  -3796572.34262
  20380155.6754  -10952423.75447  -8534335.84462
  23684015.8944    -944347.82845    256105.01961
 91  4 30 23 37 59.9990000  0  4G 2G 6G13G15
  20940024.2454    -860828.19147
  20156699.3864   -4884636.97147  -3806207.27863
  20372701.7924  -10991590.58447  -8564855.40362
  23685767.3864    -935130.47745    263287.34061
 91  4 30 23 38 14.9990000  0  4G 2G 6G13G15
  20940021.5344    -860834.24447
  20154367.9254   -4896884.67147  -3815750.93763
  20365274.2454  -11030625.19547  -8595271.93462
  23687543.4874    -925789.74445    270565.82561
 91  4 30 23 38 29.9990000  0  4G 2G 6G13G15
  20940026.1674    -860814.99648
  20152056.4874   -4909029.39947  -3825214.36062
  20357867.9644  -11069541.82947  -8625596.53162
  23689340.6444    -916340.17445    277929.11361
 91  4 30 23 38 44.9990000  0  4G 2G 6G13G15
  20940038.8314    -860753.48548
  20149768.0734   -4921053.91447  -3834584.11363
  20350488.9174  -11108323.22147  -8655815.75062
  23691161.5734    -906764.94645    285390.33161
 91  4 30 23 38 59.9990000  0  4G 2G 6G13G15
  20940057.9014    -860650.43248
  20147502.6124   -4932958.87347  -3843860.70463
  20343134.4954  -11146970.03247  -8685930.10062
  23693009.8474    -897064.96445    292948.77661
 91  4 30 23 39 14.9990000  0  4G 2G 6G13G15
  20940087.3944    -860503.77148
  20145258.8314   -4944742.08047  -3853042.41863
  20335804.0114  -11185480.29247  -8715938.04462
  23694882.2454    -887238.69245    300605.63061
 91  4 30 23 39 29.9990000  0  4G 2G 6G13G15
  20940122.4484    -860315.27748
  20143040.9644   -4956404.99347  -3862130.39663
  20328501.9404  -11223855.52147  -8745840.77162
  23696776.9954    -877287.97345    308359.42661
 91  4 30 23 39 44.9990000  0  4G 2G 6G13G15
  20940165.9804    -860083.70348
  20140844.6984   -4967946.41347  -3871123.70263
  20321224.0034  -11262094.54447  -8775637.35662
  23698695.3944    -867211.69945    316211.07261
 91  4 30 23 39 59.9990000  0  4G 2G 6G13G15
  20940218.6594    -859809.41548        -0.43073
  20138669.6054   -4979366.39647  -3880022.38863
  20313974.5344  -11300197.50347  -8805327.92062
  23700635.3554    -857010.29045    324160.19161
 91  4 30 23 40 14.9990000  0  4G 2G 6G13G15
  20940279.3554    -859493.41148       245.81663
  20136521.5034   -4990665.98247  -3888827.25963
  20306750.6444  -11338165.48447  -8834913.31562
  23702601.0734    -846684.94545    332205.87761
 91  4 30 23 40 29.9990000  0  4G 2G 6G13G15
  20940348.1204    -859135.85647       524.43463
  20134393.5344   -5001845.09247  -3897538.24963
  20299550.8474  -11375998.56347  -8864393.58862
  23704588.5654    -836236.12645    340347.80561
 91  4 30 23 40 44.9990000  0  4G 2G 6G13G15
  20940422.1284    -858738.66347       833.93063
  20132290.3234   -5012905.42047  -3906156.68162
  20292376.1594  -11413698.64547  -8893770.22562
  23706597.3154    -825665.89845    348584.33461
 91  4 30 23 40 59.9990000  0  4G 2G 6G13G15
  20940502.5114    -858305.36347      1171.57063
  20130206.3624   -5023850.59647  -3914685.37762
  20285226.3394  -11451269.40147  -8923046.09262
  23708631.0034    -814978.26845    356912.36961
 91  4 30 23 41 14.9990000  0  4G 2G 6G13G15
  20940596.9014    -857831.46047      1540.83963
  20128145.0734   -5034675.84647  -3923120.62262
  20278103.1124  -11488706.25447  -8952217.61962
  23710692.1444    -804168.75545    365335.38361
 91  4 30 23 41 29.9990000  0  4G 2G 6G13G15
  20940690.8314    -857316.63048      1942.00163
  20126108.6594   -5045380.69947  -3931462.06262
  20271003.9174  -11526008.66847  -8981284.38662
  23712771.4174    -793237.17445    373853.49461
 91  4 30 23 41 44.9990000  0  4G 2G 6G13G15
  20940797.4174    -856758.49748      2376.89563
  20124095.7454   -5055962.73547  -3939707.80662
  20263933.3154  -11563174.34347  -9010244.61162
  23714875.9404    -782181.36345    382468.42161
 91  4 30 23 41 59.9990000  0  4G 2G 6G13G15
  20940913.6284    -856160.63548      2842.74963
  20122105.1124   -5066425.40847  -3947860.53863
  20256886.3704  -11600206.84547  -9039101.05862
  23717001.9094    -771005.29645    391177.03861
 91  4 30 23 42 14.9990000  0  4G 2G 6G13G15
  20941037.0194    -855519.23848      3342.54063
  20120136.6904   -5076764.77047  -3955917.18362
  20249864.8784  -11637102.17947  -9067850.62262
  23719148.1514    -759705.28445    399982.23361
 91  4 30 23 42 29.9990000  0  4G 2G 6G13G15
  20941162.5034    -854836.93048      3874.20263
  20118192.4254   -5086983.40447  -3963879.75462
  20242869.4644  -11673863.11547  -9096495.46262
  23721323.7924    -748284.28345    408881.70661
 91  4 30 23 42 44.9990000  0  4G 2G 6G13G15
  20941302.2844    -854111.92348      4439.12863
  20116270.8554   -5097079.33747  -3971746.71862
  20235899.7694  -11710487.78947  -9125034.11862
  23723521.9874    -736740.71045    417876.67461
 91  4 30 23 42 59.9980000  0  4G 2G 6G13G15
  20941448.8344    -853345.13448      5036.62963
  20114373.4514   -5107052.52947  -3979518.03762
  20228955.1934  -11746974.38747  -9153465.18362
  23725740.7174    -725076.06045    426965.99561
 91  4 30 23 43 14.9980000  0  4G 2G 6G13G15
  20941601.1784    -852538.75648      5664.98563
  20112497.2254   -5116906.47847  -3987196.43862
  20222038.8814  -11783330.28347  -9181794.40562
  23727984.1074    -713291.41645    436148.79561
 91  4 30 23 43 29.9980000  0  4G 2G 6G13G15
  20941763.9204    -851689.46948      6326.76763
  20110647.6864   -5126637.23347  -3994778.83362
  20215147.2794  -11819549.86047  -9210017.40162
  23730249.4754    -701384.77745    445426.67661
 91  4 30 23 43 44.9980000  0  4G 2G 6G13G15
  20941932.0374    -850797.87748      7021.51863
  20108818.8974   -5136245.11947  -4002265.48962
  20208278.9514  -11855633.47047  -9238134.45262
  23732534.3734    -689356.75845    454799.16261
 91  4 30 23 43 59.9980000  0  4G 2G 6G13G15
  20942110.6784    -849864.40648      7748.90063
  20107013.6004   -5145730.51447  -4009656.70763
  20201438.5374  -11891581.51747  -9266145.87862
  23734846.6544    -677208.08845    464265.66361
 91  4 30 23 44 14.9980000  0  4G 2G 6G13G15
  20942295.6394    -848889.64448      8508.45763
  20105230.3654   -5155093.78147  -4016952.75963
  20194623.3114  -11927394.23747  -9294051.84662
  23737180.1934    -664939.45545    473825.63361
 91  4 30 23 44 29.9980000  0  4G 2G 6G13G15
  20942490.5224    -847872.63348      9300.93363
  20103473.5144   -5164333.84747  -4024152.81763
  20187832.6474  -11963070.87647  -9321851.77062
  23739541.1474    -652550.15145    483479.63661
 91  4 30 23 44 44.9980000  0  4G 2G 6G13G15
  20942693.2874    -846810.82748     10128.31363
  20101740.4284   -5173448.07147  -4031254.80962
  20181070.8894  -11998608.91547  -9349543.70962
  23741925.1004    -640038.03845    493229.32661
 91  4 30 23 44 59.9980000  0  4G 2G 6G13G15
  20942904.6864    -845705.78748     10989.38263
  20100028.9824   -5182437.84547  -4038259.82562
  20174335.8654  -12034009.98147  -9377128.92762
  23744329.2324    -627404.62345    503073.52861
 91  4 30 23 45 14.9980000  0  4G 2G 6G13G15
  20943121.3894    -844556.75948     11884.72963
  20098342.0534   -5191302.50347  -4045167.34462
  20167623.6314  -12069273.13347  -9404606.66662
  23746758.4284    -614649.37545    513012.65661
 91  4 30 23 45 29.9980000  0  4G 2G 6G13G15
  20943348.4594    -843364.48948     12813.76263
  20096677.9904   -5200042.49347  -4051977.72662
  20160939.9124  -12104399.15147  -9431977.55462
  23749205.5224    -601773.57045    523045.73061
 91  4 30 23 45 44.9980000  0  4G 2G 6G13G15
  20943582.6314    -842128.62148     13776.76463
  20095038.7014   -5208657.44147  -4058690.66562
  20154280.7954  -12139387.85147  -9459241.43362
  23751675.2014    -588777.07045    533172.84461
 91  4 30 23 45 59.9980000  0  4G 2G 6G13G15
  20943826.1934    -840852.08548     14771.46263
  20093424.2324   -5217150.03647  -4065308.26762
  20147648.7404  -12174242.04547  -9486400.50662
  23754167.1314    -575662.68645    543391.83961
 91  4 30 23 46 14.9980000  0  4G 2G 6G13G15
  20944076.7174    -839535.89948     15797.05763
  20091828.8574   -5225521.45647  -4071831.44762
  20141041.4984  -12208962.67747  -9513455.49762
  23756689.4674    -562431.86245    553701.57861
 91  4 30 23 46 29.9980000  0  4G 2G 6G13G15
  20944335.9904    -838177.94348     16855.19763
  20090260.2094   -5233769.43447  -4078258.44462
  20134459.9824  -12243547.85347  -9540404.93962
  23759229.8264    -549082.78245    564103.46161
 91  4 30 23 46 44.9980000  0  4G 2G 6G13G15
  20944602.0844    -836777.19348     17946.68563
  20088714.8574   -5241892.70947  -4084588.27163
  20127903.9674  -12277996.24447  -9567247.80362
  23761797.2324    -535614.84245    574597.96461
 91  4 30 23 46 59.9980000  0  4G 2G 6G13G15
  20944874.8814    -835334.80048     19070.62762
  20087192.6784   -5249892.48247  -4090821.86563
  20121376.2094  -12312309.00947  -9593984.98262
  23764378.1624    -522029.46045    585183.96561
 91  4 30 23 47 14.9980000  0  4G 2G 6G13G15
  20945158.3114    -833849.90848     20227.68362
  20085693.9124   -5257767.69547  -4096958.39163
  20114872.5924  -12346485.51647  -9620615.99561
  23766988.7484    -508325.79845    595862.12961
 91  4 30 23 47 29.9980000  0  4G 2G 6G13G15
  20945449.8574    -832320.80148     21419.20062
  20084219.3424   -5265516.45747  -4102996.38463
  20108396.3034  -12380523.96047  -9647139.42262
  23769620.8574    -494502.42045    606633.59461
 91  4 30 23 47 44.9980000  0  4G 2G 6G13G15
  20945749.0144    -830749.72048     22643.42062
  20082768.9824   -5273140.99547  -4108937.58563
  20101944.6004  -12414426.35347  -9673556.84062
  23772270.0294    -480561.82845    617496.36161
 91  4 30 23 47 59.9980000  0  5G 2G 6G13G15G12
  20946055.4984    -829137.30548     23899.84763
  20081341.1784   -5280641.72547  -4114782.31663
  20095517.6074  -12448193.46847  -9699868.84162
  23774947.4364    -466504.73245    628449.93761
  24817829.4044     -63065.75043
 91  4 30 23 48 14.9980000  0  5G 2G 6G13G15G12
  20946370.1624    -827480.93448     25190.52563
  20079938.6864   -5288015.95347  -4120528.46862
  20089117.1394  -12481822.70747  -9726073.39962
  23777641.7724    -452328.75545    639496.13361
  24805823.9124    -126149.32143
 91  4 30 23 48 29.9980000  0  5G 2G 6G13G15G12
  20946693.8504    -825780.34548     26515.64763
  20078557.1314   -5295263.58647  -4126175.97362
  20082744.7564  -12515314.00447  -9752170.46162
  23780361.4204    -438034.04645    650634.87361
  24793815.2954    -189251.69743
 91  4 30 23 48 44.9980000  0  5G 2G 6G13G15G12
  20947027.3264    -824036.82448     27874.22463
  20077201.8974   -5302385.58747  -4131725.57762
  20076398.3734  -12548668.73347  -9778161.12162
  23783104.7564    -423622.15745    661864.92261
  24781800.5294    -252373.93443
 91  4 30 23 48 59.9980000  0  5G 2G 6G13G15G12
  20947366.4434    -822251.80848     29265.14763
  20075873.1934   -5309383.15947  -4137178.22762
  20070075.4284  -12581887.83747  -9804046.09962
  23785874.1474    -409094.43445    673185.22261
  24769782.4984    -315517.01342        -0.11471
 91  4 30 23 49 14.9980000  0  5G 2G 6G13G15G12
  20947714.0454    -820424.70648     30688.86163
  20074563.8424   -5316255.90247  -4142533.61562
  20063780.6474  -12614971.25347  -9829825.33862
  23788657.6394    -394450.96845    684595.70961
  24757759.2724    -378680.55442    -49218.41461
 91  4 30 23 49 29.9980000  0  5G 2G 6G13G15G12
  20948069.7174    -818553.64648     32146.82063
  20073280.4674   -5323001.78347  -4147790.15363
  20057511.9824  -12647916.98847  -9855497.29662
  23791467.4284    -379690.05945    696097.68761
  24745748.3654    -441862.43743    -98450.95761
 91  4 30 23 49 44.9980000  0  5G 2G 6G13G15G12
  20948435.0924    -816635.07048     33641.80263
  20072020.9984   -5329616.99547  -4152944.86663
  20051270.8264  -12680721.37247  -9881059.11562
  23794298.8184    -364808.29945    707693.85361
  24733724.2564    -505058.83244   -147694.83861
 91  4 30 23 49 59.9980000  0  5G 2G 6G13G15G12
  20948808.0764    -814674.56548     35169.45663
  20070785.8114   -5336107.18447  -4158002.17163
  20045052.5614  -12713389.92047  -9906515.09462
  23797153.0224    -349811.44945    719379.70761
  24721690.1004    -568275.24344   -196954.31861
 91  4 30 23 50 14.9980000  0  5G 2G 6G13G15G12
  20949189.7484    -812670.25948     36731.23963
  20069574.4124   -5342470.47747  -4162960.58363
  20038862.4674  -12745920.97447  -9931863.94062
  23800024.5064    -334698.10045    731156.33661
  24709662.3654    -631509.79244
 91  4 30 23 50 29.9980000  0  5G 2G 6G13G15G12
  20949577.7794    -810624.67648     38325.18763
  20068388.6004   -5348709.37947  -4167822.08763
  20032697.6004  -12778316.95347  -9957107.52462
  23802924.4754    -319471.12645    743021.51661
  24697624.6934    -694764.78743
 91  4 30 23 50 44.9980000  0  5G 2G 6G13G15G12
  20949976.6544    -808535.88848     39952.81062
  20067222.2484   -5354821.66447  -4172584.90662
  20026557.7484  -12810576.00647  -9982244.40262
  23805841.6864    -304128.85845    754976.51661
  24685579.9674    -758037.91643
 91  4 30 23 50 59.9980000  0  5G 2G 6G13G15G12
  20950381.5224    -806402.53548     41615.16262
  20066087.6234   -5360805.92547  -4177247.96362
  20020445.6934  -12842696.79847 -10007273.55162
  23808788.2954    -288670.19445    767022.21161
  24673527.6624    -821327.75942
 91  4 30 23 51 14.9980000  0  5G 2G 6G13G15G12
  20950796.0064    -804224.94948     43311.97662
  20064974.3034   -5366662.43847  -4181811.47162
  20014361.8424  -12874679.79947 -10032195.33662
  23811751.9364    -273095.61245    779158.22061
  24661483.4674    -884634.50143
 91  4 30 23 51 29.9980000  0  5G 2G 6G13G15G12
  20951217.1394    -802005.41348     45041.48163
  20063881.5924   -5372393.25047  -4186277.02862
  20008300.7954  -12906527.06847 -10057011.36462
  23814735.2794    -257407.38145    791382.79261
  24649435.0374    -947960.13243        -0.22671
 91  4 30 23 51 44.9980000  0  5G 2G 6G13G15G12
  20951650.4904    -799739.93448     46806.78763
  20062814.8424   -5377994.66547  -4190641.77363
  20002267.4434  -12938234.92147 -10081718.75262
  23817739.2954    -241602.09945    803698.58561
  24637379.4284   -1011300.72743    -49356.49561
 91  4 30 23 51 59.9980000  0  5G 2G 6G13G15G12
  20952090.1004    -797428.83548     48607.63963
  20061773.2324   -5383466.80847  -4194905.78963
  19996259.2794  -12969803.92947 -10106317.95162
  23820771.0144    -225680.46545    816105.03861
  24625324.5144   -1074656.41943    -98724.46961
 91  4 30 23 52 14.9980000  0  5G 2G 6G13G15G12
  20952537.4594    -795078.37048     50439.16463
  20060755.3654   -5388815.63447  -4199073.71563
  19990276.6004  -13001240.00747 -10130813.56262
  23823823.2564    -209648.92145    828597.14161
  24613266.7094   -1138033.01743   -148108.76161
 91  4 30 23 52 29.9980000  0  5G 2G 6G13G15G12
  20952992.0684    -792683.64547     52305.16963
  20059762.7644   -5394036.36947  -4203141.82163
  19984321.1624  -13032538.23347 -10155201.75661
  23826896.1234    -193502.75445    841178.56961
  24601205.9364   -1201425.58443   -197505.52861
 91  4 30 23 52 44.9980000  0  5G 2G 6G13G15G12
  20953456.6474    -790246.36248     54204.32363
  20058794.9904   -5399130.64847  -4207111.38763
  19978389.6624  -13063700.44747 -10179483.96962
  23829989.0614    -177243.93345    853847.77861
  24589140.7174   -1264835.91043   -246916.09761
 91  4 30 23 52 59.9980000  0  5G 2G 6G13G15G12
  20953928.1544    -787764.75848     56138.03263
  20057849.8654   -5404096.60247  -4210980.97063
  19972483.9044  -13094724.92047 -10203658.85162
  23833109.3504    -160870.84845    866606.00661
  24577063.3184   -1328261.90343   -296338.84861
 91  4 30 23 53 14.9980000  0  5G 2G 6G13G15G12
  20954407.5764    -785239.63847     58105.64563
  20056926.5924   -5408935.04747  -4214751.19963
  19966608.8424  -13125612.70347 -10227727.21762
  23836241.6004    -144384.87945    879452.20461
  24564986.0224   -1391704.22943   -345774.38761
 91  4 30 23 53 29.9980000  0  5G 2G 6G13G15G12
  20954899.0534    -782670.28347     60107.72563
  20056029.6784   -5413645.08747  -4218421.37163
  19960757.2564  -13156363.03747 -10251688.48362
  23839399.6544    -127785.28545    892386.91161
  24552910.6624   -1455161.96443   -395221.92661
 91  4 30 23 53 44.9980000  0  5G 2G 6G13G15G12
  20955394.3184    -780055.91948     62144.88462
  20055159.3894   -5418225.90347  -4221990.84862
  19954932.0534  -13186975.16747 -10275542.06062
  23842581.3894    -111071.65145    905410.50461
  24540838.2094   -1518634.09143   -444680.66261
 91  4 30 23 53 59.9980000  0  5G 2G 6G13G15G12
  20955900.8654    -777398.06147     64215.93763
  20054312.1864   -5422678.77147  -4225460.62162
  19949132.8344  -13217450.39247 -10299288.95162
  23845781.3574     -94245.73645    918521.58361
  24528761.6234   -1582121.72244   -494151.51161
 91  4 30 23 54 14.9980000  0  5G 2G 6G13G15G12
  20956416.1154    -774694.20348     66322.82563
  20053488.3654   -5427001.23147  -4228828.77662
  19943360.5534  -13247786.38147 -10322927.34762
  23849009.9044     -77305.33545    931721.88761
  24516681.7174   -1645622.37044   -543632.48461
 91  4 30 23 54 29.9980000  0  5G 2G 6G13G15G12
  20956939.4044    -771946.05348     68464.23462
  20052694.1704   -5431195.20747  -4232096.80362
  19937613.2324  -13277985.03647 -10346458.73162
  23852252.5614     -60252.66145    945009.69561
  24504594.4674   -1709137.83144   -593125.00061
 91  4 30 23 54 44.9980000  0  5G 2G 6G13G15G12
  20957469.7174    -769155.93648     70638.35262
  20051917.4824   -5435262.68347  -4235266.26362
  19931892.2484  -13308048.49047 -10369884.76762
  23855518.8654     -43090.14045    958383.07461
  24492503.9754   -1772670.06344   -642630.55461
 91  4 30 23 54 59.9980000  0  5G 2G 6G13G15G12
  20958010.4594    -766320.27148     72847.95962
  20051169.3814   -5439199.95047  -4238334.26762
  19926194.4824  -13337973.41547 -10393202.85562
  23858808.8184     -25814.46345    971844.62561
  24480412.1704   -1836215.26744   -692146.21561
 91  4 30 23 55 14.9980000  0  5G 2G 6G13G15G12
  20958556.9364    -763439.72048     75092.54262
  20050446.8264   -5443007.78647  -4241301.41462
  19920526.7874  -13367760.51847 -10416413.54662
  23862117.1314      -8426.54545    985393.64561
  24468313.6234   -1899773.98643   -741672.43061
 91  4 30 23 55 29.9980000  0  5G 2G 6G13G15G12
  20959115.7404    -760514.01747     77372.30063
  20049744.0064   -5446685.91847  -4244167.49162
  19914885.8894  -13397409.66347 -10439516.74862
  23865447.1234       9073.49445    999030.00061
  24456215.5924   -1963345.90043   -791208.90461
 91  4 30 23 55 44.9980000  0  5G 2G 6G13G15G12
  20959680.6234    -757543.66447     79686.84563
  20049068.2324   -5450234.75847  -4246932.81162
  19909269.9284  -13426921.28347 -10462512.78462
  23868796.3114      26684.89745   1012753.15561
  24444111.8034   -2026931.21643   -840755.84861
 91  4 30 23 55 59.9980000  0  5G 2G 6G13G15G12
  20960254.5614    -754528.44947     82036.34563
  20048418.9984   -5453653.92847  -4249597.09162
  19903678.8264  -13456295.00647 -10485401.35962
  23872163.9754      44407.60544   1026563.02961
  24432011.5764   -2090529.48743   -890312.84561
 91  4 30 23 56 14.9980000  0  5G 2G 6G13G15G12
  20960835.6004    -751468.21447     84420.92763
  20047793.2484   -5456943.28547  -4252160.22762
  19898115.0764  -13485531.01247 -10508182.63061
  23875554.7874      62241.54544   1040459.61461
  24419896.4434   -2154140.52943   -939879.83061
 91  4 30 23 56 29.9980000  0  5G 2G 6G13G15G12
  20961425.4594    -748362.98847     86840.56963
  20047190.8264   -5460102.79947  -4254622.19962
  19892580.4284  -13514629.45247 -10530856.70562
  23878978.1784      80186.17345   1054442.44361
  24407790.9364   -2217764.07742   -989456.55661
 91  4 30 23 56 44.9980000  0  5G 2G 6G13G15G12
  20962024.8034    -745212.85147     89295.20663
  20046613.7484   -5463132.61547  -4256983.11462
  19887069.0454  -13543590.50347 -10553423.73462
  23882417.0224      98241.11345   1068511.19761
  24395682.3034   -2281400.28142  -1039043.14461
 91  4 30 23 56 59.9980000  0  5G 2G 6G13G15G12
  20962632.8184    -742016.27047     91786.03263
  20046063.2324   -5466031.14047  -4259241.72262
  19881583.9824  -13572412.55247 -10575882.44861
  23885873.9514     116407.71945   1082666.96261
  24383576.9824   -2345047.22643  -1088638.13661
 91  4 30 23 57 14.9980000  0  5G 2G 6G13G15G12
  20963248.9674    -738776.06447     94310.85663
  20045535.7484   -5468800.90647  -4261400.00063
  19876127.5224  -13601098.42447 -10598235.04561
  23889351.5924     134683.11145   1096907.49361
  24371466.1544   -2408707.42444  -1138243.39961
 91  4 30 23 57 29.9980000  0  5G 2G 6G13G15G12
  20963877.8974    -735490.22947     96871.23863
  20045031.9124   -5471440.00847  -4263456.45462
  19870693.9824  -13629646.20347 -10620480.03561
  23892847.8264     153069.01945   1111234.15561
  24359355.0224   -2472378.75145  -1187857.32061
 91  4 30 23 57 44.9980000  0  5G 2G 6G13G15G12
  20964510.4514    -732158.67047     99467.25263
  20044555.7954   -5473948.39147  -4265411.04862
  19865287.9904  -13658055.86647 -10642617.40962
  23896365.9364     171564.90545   1125646.51261
  24347241.4044   -2536061.04645  -1237479.76261
 91  4 30 23 57 59.9980000  0  5G 2G 6G13G15G12
  20965151.6864    -728781.28447    102098.97962
  20044103.5454   -5476325.75347  -4267263.54962
  19859908.0534  -13686327.41547 -10664647.16462
  23899909.1234     190170.62444   1140144.47261
  24335119.4204   -2599753.98645  -1287110.54761
 91  4 30 23 58 14.9980000  0  5G 2G 6G13G15G12
  20965802.0144    -725358.22747    104766.29662
  20043677.5224   -5478572.39347  -4269014.17962
  19854553.4904  -13714461.28947 -10686569.63861
  23903467.4824     208885.68944   1154727.64961
  24322992.9984   -2663457.55745  -1336749.59361
 91  4 30 23 58 29.9980000  0  5G 2G 6G13G15G12
  20966463.5454    -721892.30347    107467.00862
  20043271.6314   -5480690.84347  -4270664.92062
  19849225.2094  -13742460.37047 -10708387.07562
  23907047.9984     227707.24545   1169393.79261
  24310868.1004   -2727174.33944  -1386398.94261
 91  4 30 23 58 44.9980000  0  5G 2G 6G13G15G12
  20967132.2724    -718380.36848    110203.57362
  20042896.5614   -5482678.18547  -4272213.49162
  19843923.4044  -13770321.51847 -10730097.03061
  23910650.1004     246637.91645   1184144.94461
  24298731.7404   -2790901.08642  -1436056.10061
 91  4 30 23 58 59.9980000  0  5G 2G 6G13G15G12
  20967811.6624    -714822.80648    112975.70562
  20042539.2254   -5484534.66747  -4273660.10662
  19838648.1394  -13798044.96447 -10751699.68862
  23914274.5764     265677.24145   1198980.77761
  24286594.1394   -2854637.89242  -1485721.09961
 91  4 30 23 59 14.9980000  0  5G 2G 6G13G15G12
  20968493.9204    -711220.25848    115782.88362
  20042213.7174   -5486260.96847  -4275005.28663
  19833398.4754  -13825631.41247 -10773195.59861
  23917914.3424     284824.25145   1213900.48361
  24274472.1074   -2918385.41542  -1535394.46761
 91  4 30 23 59 29.9980000  0  5G 2G 6G13G15G12
  20969190.2094    -707573.88548    118624.20862
  20041906.4514   -5487858.04847  -4276249.78063
  19828176.7254  -13853082.05247 -10794585.68261
  23921586.3114     304077.63745   1228903.09361
  24262346.2724   -2982144.46443  -1585076.75461
 91  4 30 23 59 44.9980000  0  5G 2G 6G13G15G12
  20969888.9904    -703882.68747    121500.46262
  20041630.1474   -5489324.93047  -4277392.82363
  19822977.9284  -13880396.08247 -10815869.32061
  23925271.0374     323437.77145   1243988.89061
  24250210.0224   -3045913.88944  -1634767.15561
 91  4 30 23 59 59.9980000  0  5G 2G 6G13G15G12
  20970599.5924    -700144.40847    124413.39563
  20041375.9984   -5490659.36547  -4278432.66463
  19817805.1784  -13907571.35647 -10837044.83661
  23928972.6864     342906.63245   1259159.40161
  24238073.2094   -3109691.32944  -1684463.77461
 91  5  1  0  0 14.9980000  0  5G 2G 6G13G15G12
  20971321.4124    -696357.04247    127364.56863
  20041146.6314   -5491859.34047  -4279367.72163
  19812661.7954  -13934606.05847 -10858110.81861
  23932694.8574     362485.88544   1274415.92161
  24225935.9124   -3173474.49044  -1734164.83061
 91  5  1  0  0 29.9980000  0  5G 2G 6G13G15G12
  20972053.0534    -692525.52847    130350.14063
  20040941.5844   -5492929.70547  -4280201.77863
  19807542.5144  -13961505.30247 -10879071.24361
  23936440.7874     382170.36544   1289754.47561
  24213792.0064   -3237268.15844  -1783874.13361
 91  5  1  0  0 44.9980000  0  5G 2G 6G13G15G12
  20972792.2644    -688646.20047    133372.99163
  20040766.2564   -5493866.78747  -4280931.98963
  19802449.7954  -13988265.31347 -10899923.17461
  23940207.3574     401963.47445   1305177.68261
  24201650.8974   -3301068.39644  -1833588.48761
 91  5  1  0  0 59.9980000  0  5G 2G 6G13G15G12
  20973536.8034    -684720.05547    136432.30563
  20040612.0844   -5494671.63047  -4281559.15563
  19797382.5844  -14014887.22347 -10920667.49661
  23943999.6864     421863.95545   1320684.52361
  24189514.6784   -3364876.10444  -1883308.68561
 91  5  1  0  1 14.9980000  0  5G 2G 6G13G15G12
  20974294.5614    -680750.28247    139525.61962
  20040485.7794   -5495347.15847  -4282085.55263
  19792343.1234  -14041374.23947 -10941306.69461
  23947807.7874     441868.39345   1336272.37561
  24177364.6624   -3428694.18743  -1933036.96361
 91  5  1  0  1 29.9980000  0  5G 2G 6G13G15G12
  20975059.3264    -676733.38148    142655.67262
  20040381.7094   -5495890.12547  -4282508.66363
  19787329.6544  -14067723.04647 -10961838.19962
  23951632.0534     461979.69145   1351943.48561
  24165222.1314   -3492519.15743  -1982770.64861
 91  5  1  0  1 44.9980000  0  5G 2G 6G13G15G12
  20975832.7094    -672670.91747    145821.23262
  20040302.8034   -5496302.17547  -4282829.75463
  19782341.5224  -14093935.42047 -10982263.39861
  23955476.4044     482195.87345   1367696.32461
  24153077.6704   -3556352.39444  -2032510.69961
 91  5  1  0  1 59.9980000  0  5G 2G 6G13G15G12
  20976615.6624    -668559.49847    149024.92862
  20040246.9904   -5496579.71947  -4283046.03062
  19777379.2094  -14120007.88747 -11002579.58061
  23959342.1004     502520.41344   1383533.62061
  24140928.6934   -3620190.23443  -2082254.39561
 91  5  1  0  2 14.9980000  0  5G 2G 6G13G15G12
  20977402.8894    -664405.64547    152261.69562
  20040221.4824   -5496729.35947
  19772443.6704  -14145947.00747 -11022791.86661
  23963227.4284     522946.22044   1399449.83061
  24128777.4514   -3684039.04443  -2132006.62461
 91  5  1  0  2 29.9980000  0  5G 2G 6G13G15G12
  20978200.4434    -660201.22547    155537.85862
  20040221.8574   -5496742.89747
  19767534.4594  -14171745.15547 -11042894.29161
  23967137.8734     543481.24844   1415451.15461
  24116623.8504   -3747890.51643  -2181760.89761
 91  5  1  0  2 44.9980000  0  5G 2G 6G13G15G12
  20979011.4364    -655951.07347    158849.65262
  20040239.7564   -5496625.15147
  19762652.7724  -14197406.98847 -11062890.50261
  23971071.1394     564120.45945   1431533.61761
  24104466.3654   -3811749.12442  -2231520.75461
 91  5  1  0  2 59.9980000  0  5G 2G 6G13G15G12
  20979829.5224    -651655.03047    162197.20862
  20040287.1934   -5496375.79047
  19757796.3574  -14222932.52048 -11082780.50861
  23975019.2324     584863.66545   1447697.11761
  24092311.3264   -3875614.59542  -2281285.90661
 91  5  1  0  3 14.9980000  0  5G 2G 6G13G15G12
  20980655.3184    -647314.02247    165579.80063
  20040360.2724   -5495995.75546
  19752963.2874  -14248322.65148 -11102565.00562
  23978982.4754     605709.40445   1463940.51861
  24080153.6314   -3939487.57142  -2331056.98261
 91  5  1  0  3 29.9980000  0  5G 2G 6G13G15G12
  20981491.0374    -642925.83047    168999.15463
  20040458.5764   -5495482.88747        -0.41772
  19748157.3344  -14273575.29647 -11122242.36961
  23982970.6394     626659.46945   1480265.21061
  24068007.3654   -4003365.69943  -2380832.03561
 91  5  1  0  3 44.9980000  0  5G 2G 6G13G15G12
  20982333.2014    -638490.35947    172455.34563
  20040580.9824   -5494837.15847       502.74362
  19743378.7484  -14298690.58547 -11141812.70161
  23986971.5614     647713.85544   1496671.21161
  24055850.6074   -4067248.79343  -2430610.96161
 91  5  1  0  3 59.9980000  0  5G 2G 6G13G15G12
  20983187.2094    -634009.07147    175947.24363
  20040727.6544   -5494060.11647      1108.21962
  19738623.9284  -14323670.04747 -11161277.19461
  23990998.1314     668870.79844   1513157.15661
  24043699.6544   -4131138.12644  -2480394.73461
 91  5  1  0  4 14.9980000  0  5G 2G 6G13G15G12
  20984049.2644    -629480.49647    179475.99263
  20040900.2404   -5493150.24547      1817.19562
  19733897.5224  -14348512.47447 -11180634.90561
  23995044.2564     690131.46445   1529723.92161
  24031536.3504   -4195032.00844  -2530182.04061
 91  5  1  0  4 29.9980000  0  5G 2G 6G13G15G12
  20984916.5924    -624903.81347    183042.20763
  20041102.0534   -5492106.56347      2630.44662
  19729197.4044  -14373216.92047 -11199885.10361
  23999111.4124     711496.44445   1546371.93661
  24019378.4824   -4258929.21844  -2579971.96661
 91  5  1  0  4 44.9980000  0  5G 2G 6G13G15G12
  20985798.8574    -620279.28547    186645.72062
  20041327.7644   -5490929.18147      3547.88162
  19724520.3894  -14397783.68747 -11219028.01662
  24003197.7484     732965.16945   1563100.78361
  24007221.2874   -4322829.89544  -2629764.57261
 91  5  1  0  4 59.9980000  0  5G 2G 6G13G15G12
  20986692.0064    -615607.07147    190286.39762
  20041573.2014   -5489618.59847      4569.11762
  19719874.0454  -14422213.19047 -11238063.97162
  24007305.3344     754537.01145   1579909.95561
  23995054.2644   -4386734.17644  -2679559.99361
 91  5  1  0  5 14.9980000  0  5G 2G 6G13G15G12
  20987589.3654    -610888.59447    193963.12462
  20041846.1704   -5488176.17747      5693.07162
  19715252.1154  -14446506.97847 -11256994.17462
  24011431.1544     776210.13045   1596798.06661
  23982897.1004   -4450643.27244  -2729359.15961
 91  5  1  0  5 29.9980000  0  5G 2G 6G13G15G12
  20988495.5454    -606123.95647    197675.81962
  20042145.1314   -5486601.87647      6919.78562
  19710652.6154  -14470665.18247 -11275818.71862
  24015569.0224     797984.13445   1613764.77561
  23970731.6394   -4514556.98244  -2779161.92261
 91  5  1  0  5 44.9980000  0  5G 2G 6G13G15G12
  20989413.4514    -601309.68447    201427.17662
  20042471.4364   -5484892.26247      8251.93462
  19706081.9044  -14494684.57247 -11294535.09962
  24019728.7324     819862.15344   1630812.58261
  23958568.3264   -4578471.64744  -2828965.47461
 91  5  1  0  5 59.9980000  0  5G 2G 6G13G15G12
  20990337.5454    -596447.47847    205215.88562
  20042821.1314   -5483049.13947      9688.12162
  19701537.7324  -14518566.97147 -11313144.73062
  24023910.5764     841842.35944   1647940.01261
  23946405.1394   -4642388.73843  -2878770.86261
 91  5  1  0  6 14.9980000  0  5G 2G 6G13G15G12
  20991271.3264    -591536.45847    209042.63563
  20043198.0144   -5481071.43547     11229.17062
  19697019.2794  -14542311.45247 -11331646.89762
  24028118.3894     863925.47444   1665147.62061
  23934239.0224   -4706307.09543  -2928577.29361
 91  5  1  0  6 29.9980000  0  5G 2G 6G13G15G12
  20992212.7794    -586578.57048    212905.91062
  20043601.5374   -5478961.22047     12873.48063
  19692526.2874  -14565920.29947 -11350043.37662
  24032337.1864     886108.87944   1682433.40161
  23922073.4124   -4770228.60743  -2978386.15361
 91  5  1  0  6 44.9980000  0  5G 2G 6G13G15G12
  20993165.6474    -581574.73248    216804.99562
  20044031.6864   -5476719.52847     14620.23662
  19688057.8894  -14589394.50047 -11368334.93762
  24036582.0144     908391.43845   1699796.42861
  23909913.1784   -4834153.93344  -3028197.98561
 91  5  1  0  6 59.9980000  0  5G 2G 6G13G15G12
  20994126.8034    -576522.37548    220741.88762
  20044481.8734   -5474343.78647     16471.44262
  19683616.5374  -14612731.71647 -11386519.76562
  24040841.5374     930775.01645   1717238.14361
  23897751.7724   -4898080.50644  -3078010.81161
 91  5  1  0  7 14.9980000  0  5G 2G 6G13G15G12
  20995099.9754    -571421.17447    224716.83262
  20044955.6474   -5471833.70047     18427.34162
  19679201.9904  -14635931.53447 -11404597.51562
  24045118.2094     953260.08245   1734758.96961
  23885585.3654   -4962007.55844  -3127823.96261
 91  5  1  0  7 29.9980000  0  5G 2G 6G13G15G12
  20996077.6474    -566272.37047    228728.87662
  20045463.5454   -5469190.42147     20487.02662
  19674814.9824  -14658995.31547 -11422569.26962
  24049417.5614     975844.95845   1752357.53961
  23873421.2174   -5025936.26744  -3177638.44061
 91  5  1  0  7 44.9980000  0  5G 2G 6G13G15G12
  20997068.8184    -561075.98247    232777.99163
  20045988.9284   -5466414.11247     22650.37662
  19670451.7874  -14681923.45347 -11440435.33061
  24053734.9204     998529.24345   1770033.53261
  23861246.8504   -5089866.37743  -3227454.05861
 91  5  1  0  7 59.9980000  0  5G 2G 6G13G15G12
  20998063.4124    -555832.73347    236863.62162
  20046543.3264   -5463505.35347     24916.93362
  19666113.4674  -14704716.54747 -11458196.16161
  24058069.9984    1021311.94845   1787786.27561
  23849089.4364   -5153798.38743  -3277271.08261
 91  5  1  0  8 14.9980000  0  5G 2G 6G13G15G12
  20999074.6074    -550537.15947    240990.02762
  20047121.3344   -5460458.89547     27290.78762
  19661803.1474  -14727369.28247 -11475847.62561
  24062424.2404    1044198.05245   1805619.59261
  23836925.6624   -5217726.74444  -3327085.32061
 91  5  1  0  8 29.9980000  0  5G 2G 6G13G15G12
  21000086.3424    -545195.75447    245152.14262
  20047730.0534   -5457280.98047     29767.07962
  19657518.1474  -14749888.38447 -11493394.95861
  24066795.0454    1067180.76245   1823528.19561
  23824756.5454   -5281657.69444  -3376901.58461
 91  5  1  0  8 44.9980000  0  5G 2G 6G13G15G12
  21001114.7174    -539807.13047    249351.05262
  20048357.2324   -5453970.40947     32346.72762
  19653258.4514  -14772272.52848 -11510837.13061
  24071186.3894    1090261.40844   1841513.12361
  23812597.9984   -5345589.46745  -3426718.47161
 91  5  1  0  8 59.9980000  0  5G 2G 6G13G15G12
  21002146.7484    -534368.57947    253588.85762
  20049012.5064   -5450524.52847     35031.80662
  19649025.3574  -14794519.24948 -11528172.22161
  24075598.7794    1113442.17744   1859576.06261
  23800427.9824   -5409519.23545  -3476533.81361
 91  5  1  0  9 14.9980000  0  5G 2G 6G13G15G12
  21003191.8974    -528879.00047    257866.42262
  20049696.7954   -5446942.14247     37823.24662
  19644817.4434  -14816627.62148 -11545399.51061
  24080033.4434    1136723.95245   1877717.69261
  23788266.2954   -5473445.72845  -3526346.58361
 91  5  1  0  9 29.9980000  0  5G 2G 6G13G15G12
  21004247.1394    -523342.01647    262180.93762
  20050403.6154   -5443226.90447     40718.20562
  19640635.6624  -14838601.32047 -11562521.86061
  24084482.0224    1160102.71345   1895934.85061
  23776097.2794   -5537372.21844  -3576159.37661
 91  5  1  0  9 44.9980000  0  5G 2G 6G13G15G12
  21005310.3654    -517756.55947    266533.23662
  20051135.2324   -5439377.82847     43717.46362
  19636481.2794  -14860439.62547 -11579538.70661
  24088944.8574    1183579.04845   1914228.10761
  23763934.2954   -5601297.54545  -3625971.23061
 91  5  1  0  9 59.9980000  0  5G 2G 6G13G15G12
  21006383.4044    -512122.46347    270923.43062
  20051892.1154   -5435394.76947     46821.13562
  19632351.2014  -14882142.40247 -11596449.94661
  24093431.8424    1207152.89345   1932597.29161
  23751772.1074   -5665221.41645  -3675781.96661
 91  5  1  0 10 14.9980000  0  5G 2G 6G13G15G12
  21007465.3344    -506438.06747    275352.81862
  20052677.2014   -5431276.06247     50030.51462
  19628247.6074  -14903707.99847 -11613254.28461
  24097939.5534    1230825.62845   1951043.55361
  23739605.4824   -5729141.86445  -3725590.01761
 91  5  1  0 10 29.9980000  0  5G 2G 6G13G15G12
  21008556.1154    -500706.08947    279819.28462
  20053485.1004   -5427024.70347     53343.25762
  19624169.5454  -14925139.45247 -11629954.10661
  24102458.7094    1254593.99345   1969564.35661
  23727441.0454   -5793061.53245  -3775397.43361
 91  5  1  0 10 44.9970000  0  5G 2G 6G13G15G12
  21009654.3844    -494926.82147    284322.59662
  20054319.6964   -5422640.72947     56759.32562
  19620116.2984  -14946435.21547 -11646548.19261
  24106995.3684    1278456.14144   1988158.24661
  23715274.8604   -5856975.66844  -3825200.61961
 91  5  1  0 10 59.9970000  0  5G 2G 6G13G15G12
  21010761.4624    -489099.35647    288863.46262
  20055182.0244   -5418123.40047     60279.30462
  19616087.7044  -14967598.19847 -11663038.81461
  24111560.8454    1302415.21744   2006827.66161
  23703103.9394   -5920892.45543  -3875005.84661
 91  5  1  0 11 14.9970000  0  5G 2G 6G13G15G12
  21011881.1574    -483222.71047    293442.64362
  20056065.5954   -5413471.74347     63903.96462
  19612085.3454  -14988625.97947 -11679424.08362
  24116139.1264    1326470.70445   2025572.19961
  23690940.3294   -5984806.18343  -3924808.72861
 91  5  1  0 11 29.9970000  0  5G 2G 6G13G15G12
  21013011.8684    -477295.85447    298060.95663
  20056972.7744   -5408684.61847     67634.17762
  19608110.8604  -15009517.58147 -11695703.23761
  24120733.7354    1350623.36745   2044392.44761
  23678787.4234   -6048715.49244  -3974608.13861
 91  5  1  0 11 44.9970000  0  5G 2G 6G13G15G12
  21014146.4544    -471319.34747    302717.94662
  20057912.3214   -5403763.00147     71469.18062
  19604161.5174  -15030273.83947 -11711876.92661
  24125350.6574    1374872.04545   2063287.50861
  23666631.0244   -6112620.85745  -4024404.42161
 91  5  1  0 11 59.9970000  0  5G 2G 6G13G15G12
  21015291.8994    -465295.80147    307411.61263
  20058876.4234   -5398709.18147     75407.21262
  19600237.3924  -15050897.20747 -11727947.07361
  24129984.8764    1399214.00645   2082255.23361
  23654474.3764   -6176524.51945  -4074199.40561
 91  5  1  0 12 14.9970000  0  5G 2G 6G13G15G12
  21016449.9234    -459223.24547    312143.45162
  20059860.0094   -5393521.48747     79449.54862
  19596338.7124  -15071385.94047 -11743912.30062
  24134624.7904    1423650.69144   2101296.80861
  23642313.4074   -6240424.42345  -4123991.44461
 91  5  1  0 12 29.9970000  0  5G 2G 6G13G15G12
  21017611.8684    -453100.11447    316914.69563
  20060875.0874   -5388198.36647     83597.41462
  19592465.4934  -15091738.78747 -11759771.63961
  24139298.6814    1448183.09145   2120412.91161
  23630154.9394   -6304318.81345  -4173779.20161
 91  5  1  0 12 44.9970000  0  5G 2G 6G13G15G12
  21018789.6264    -446928.20847    321723.95063
  20061908.8924   -5382741.49447     87849.49562
  19588617.7434  -15111957.68947 -11775526.61162
  24143984.1654    1472809.38345   2139602.19061
  23617993.6264   -6368209.13144  -4223563.76261
 91  5  1  0 12 59.9970000  0  5G 2G 6G13G15G12
  21019969.9314    -440711.62747    326568.01462
  20062976.0794   -5377155.18247     92202.43462
  19584795.6104  -15132046.78947 -11791180.44162
  24148689.0954    1497525.01944   2158861.08461
  23605829.4234   -6432099.29444  -4273348.27361
 91  5  1  0 13 14.9970000  0  5G 2G 6G13G15G12
  21021157.3374    -434478.11747    331425.27762
  20064059.0174   -5371467.08047     96634.70362
  19580992.9464  -15152033.94648 -11806754.82961
  24153401.4934    1522302.07843   2178167.87161
  23593672.6424   -6496016.97845  -4323154.15461
 91  5  1  0 13 29.9970000  0  5G 2G 6G13G15G12
  21022354.3994    -428197.59647    336319.18262
  20065164.7124   -5365647.15147    101169.69562
  19577214.7984  -15171889.26648 -11822226.49562
  24158135.6654    1547170.25343   2197545.66361
  23581514.5484   -6559931.77345  -4372957.80861
 91  5  1  0 13 44.9970000  0  5G 2G 6G13G15G12
  21023558.3144    -421868.51947    341250.91762
  20066298.5094   -5359694.04847    105808.45762
  19573460.9544  -15191611.50747 -11837594.46062
  24162885.5794    1572130.69544   2216995.33861
  23569353.7204   -6623841.88245  -4422757.79061
 91  5  1  0 13 59.9970000  0  5G 2G 6G13G15G12
  21024769.2204    -415488.92647    346222.01462
  20067460.9234   -5353605.87147    110552.47862
  19569733.1424  -15211198.85447 -11852857.31162
  24167652.2204    1597185.02544   2236518.19361
  23557193.9464   -6687745.21745  -4472552.47661
 91  5  1  0 14 14.9970000  0  5G 2G 6G13G15G12
  21025992.5244    -409058.78347    351232.50462
  20068644.5874   -5347382.62847    115401.75162
  19566032.2514  -15230651.57048 -11868015.25062
  24172441.2284    1622332.81844   2256113.85661
  23545031.3764   -6751641.46345  -4522341.65761
 91  5  1  0 14 29.9970000  0  5G 2G 6G13G15G12
  21027227.9704    -402582.32947
  20069850.4234   -5341028.34146
  19562354.6184  -15249973.91348 -11883071.60662
  24177244.0094    1647569.70144   2275778.96361
  23532867.3454   -6815534.53744  -4572128.37761
 91  5  1  0 14 44.9970000  0  5G 2G 6G13G15G12
  21028469.6894    -396056.14247
  20071083.5644   -5334540.01546
  19558704.1574  -15269162.58448 -11898023.80662
  24182059.7204    1672898.68644   2295515.82461
  23520706.7434   -6879420.90144  -4621909.86861
 91  5  1  0 14 59.9970000  0  5G 2G 6G13G15G12
  21029720.3844    -389479.11547
  20072344.5874   -5327916.35346
  19555079.4394  -15288216.80448 -11912871.23762
  24186897.2744    1698320.55744   2315325.07061
  23508544.1264   -6943299.14243  -4671685.03761
 91  5  1  0 15 14.9970000  0  5G 2G 6G13G15G12
  21030980.8064    -382852.50747    371652.90362
  20073633.7674   -5321158.80646    135835.79362
  19551479.0174  -15307137.83748 -11927614.88962
  24191755.7674    1723833.47044   2335205.24061
  23496396.0014   -7007170.33844  -4721454.71561
 91  5  1  0 15 29.9970000  0  5G 2G 6G13G15G12
  21032252.5094    -376174.13547    376856.81262
  20074944.2284   -5314265.13447    141207.46962
  19547901.4074  -15325923.61748 -11942253.15261
  24196625.0564    1749439.55144   2355157.99861
  23484249.0954   -7071032.12645  -4771217.05561
 91  5  1  0 15 44.9970000  0  5G 2G 6G13G15G12
  21033534.0014    -369444.65047    382100.55962
  20076281.8604   -5307236.16147    146684.57162
  19544352.2044  -15344575.05048 -11956786.72362
  24201520.3764    1775137.58845   2375182.42561
  23472099.1034   -7134884.98045  -4820972.37961
 91  5  1  0 15 59.9970000  0  5G 2G 6G13G15G12
  21034825.4624    -362668.17447    387380.91662
  20077641.3374   -5300076.09747    152263.83662
  19540827.5404  -15363096.60048 -11971219.08562
  24206426.2824    1800923.01944   2395274.95961
  23459949.0244   -7198732.77245  -4870723.77761
 91  5  1  0 16 14.9970000  0  5G 2G 6G13G15G12
  21036120.4544    -355842.56647    392699.55962
  20079031.2824   -5292782.74747    157946.94862
  19537329.1654  -15381486.14048 -11985548.57961
  24211346.7744    1826797.80343   2415437.10961
  23447799.2984   -7262573.11345  -4920469.37261
 91  5  1  0 16 29.9970000  0  5G 2G 6G13G15G12
  21037428.0954    -348966.18647    398057.75562
  20080446.0244   -5285354.62147    163735.08262
  19533854.8214  -15399742.15048 -11999774.02762
  24216285.6344    1852763.18543   2435669.87061
  23435652.7044   -7326404.02345  -4970207.62261
 91  5  1  0 16 44.9970000  0  5G 2G 6G13G15G12
  21038748.5874    -342039.55947    403455.10962
  20081883.1734   -5277792.16947    169627.88262
  19530405.8924  -15417865.39848 -12013896.02162
  24221237.4934    1878818.48443   2455972.71961
  23423510.3454   -7390225.72245  -5019938.68561
 91  5  1  0 16 59.9970000  0  5G 2G 6G13G15G12
  21040075.0324    -335063.99147    408890.59562
  20083351.3454   -5270096.91747    175624.16362
  19526982.9854  -15435857.33548 -12027915.69562
  24226214.8994    1904961.82043   2476344.16361
  23411365.2674   -7454039.41445  -5069663.53861
 91  5  1  0 17 14.9970000  0  5G 2G 6G13G15G12
  21041413.8604    -328036.24047    414366.75362
  20084836.9624   -5262265.53647    181726.52562
  19523584.9704  -15453715.17248 -12041830.87462
  24231208.6424    1931196.38244   2496786.63161
  23399223.3374   -7517841.72745  -5119379.52761
 91  5  1  0 17 29.9970000  0  5G 2G 6G13G15G12
  21042758.2354    -320958.44147    419881.89662
  20086354.2824   -5254300.45047    187933.06162
  19520211.8534  -15471441.10948 -12055643.27862
  24236225.5174    1957519.55044   2517298.18561
  23387081.6034   -7581634.59345  -5169088.12061
 91  5  1  0 17 44.9970000  0  5G 2G 6G13G15G12
  21044115.8844    -313832.13447    425434.83662
  20087892.7744   -5246203.11747    194242.65262
  19516861.3844  -15489036.74848 -12069354.15162
  24241251.4704    1983929.26345   2537877.16661
  23374946.6654   -7645419.20745  -5218790.33061
 91  5  1  0 17 59.9970000  0  5G 2G 6G13G15G12
  21045483.6894    -306657.24647    431025.63762
  20089459.1734   -5237973.47747    200655.34462
  19513537.8534  -15506502.21648 -12082963.59362
  24246291.6574    2010425.42444   2558523.48361
  23362808.6344   -7709195.21645  -5268485.77161
 91  5  1  0 18 14.9970000  0  5G 2G 6G13G15G12
  21046857.2514    -299432.13947    436655.56662
  20091053.9394   -5229610.17347    207172.19762
  19510239.2594  -15523836.32048 -12096470.67462
  24251354.7204    2037009.10144   2579238.02861
  23350676.9934   -7772960.88845  -5318173.21561
 91  5  1  0 18 29.9970000  0  5G 2G 6G13G15G12
  21048239.5174    -292156.53047    442324.85962
  20092672.6814   -5221112.86747    213793.46662
  19506965.0404  -15541038.75448 -12109875.15462
  24256426.3924    2063680.37243   2600020.82361
  23338547.4624   -7836715.52645  -5367852.04261
 91  5  1  0 18 44.9970000  0  5G 2G 6G13G15G12
  21049634.3144    -284828.80847    448034.76062
  20094313.9854   -5212480.06747    220520.30562
  19503717.8064  -15558108.10848 -12123175.92662
  24261514.1344    2090440.45043   2620872.83661
  23326416.9544   -7900457.38345  -5417520.89561
 91  5  1  0 18 59.9970000  0  5G 2G 6G13G15G12
  21051040.0484    -277450.43947    453784.11862
  20095979.5404   -5203713.46747    227351.40562
  19500495.5174  -15575045.98448 -12136374.26962
  24266621.6104    2117287.37442   2641792.53561
  23314286.8064   -7964187.72045  -5467180.77761
 91  5  1  0 19 14.9970000  0  5G 2G 6G13G15G12
  21052453.7204    -270025.25047    459569.97362
  20097672.6034   -5194816.79747    234283.85462
  19497296.8294  -15591856.39548 -12149473.26062
  24271745.1574    2144217.08742   2662776.75461
  23302157.3844   -8027910.16845  -5516834.52761
 91  5  1  0 19 29.9970000  0  5G 2G 6G13G15G12
  21053874.9394    -262548.88047    465395.70762
  20099390.7594   -5185785.89347    241320.89962
  19494122.5014  -15608535.31448 -12162469.80862
  24276887.6894    2171233.58343   2683828.56961
  23290029.9234   -8091620.10045  -5566478.51961
 91  5  1  0 19 44.9970000  0  5G 2G 6G13G15G12
  21055305.8844    -255023.07547    471259.95162
  20101135.5484   -5176622.42347    248461.23562
  19490973.4314  -15625084.66648 -12175365.39562
  24282049.0404    2198334.95043   2704946.46561
  23277907.6104   -8155318.88144  -5616113.83461
 91  5  1  0 19 59.9970000  0  5G 2G 6G13G15G12
  21056747.0014    -247446.77747    477163.54362
  20102906.7354   -5167325.42747    255705.62963
  19487848.8684  -15641503.35248 -12188159.16462
  24287220.0954    2225521.97644   2726131.16261
  23265792.0874   -8219005.19945  -5665739.44661
 91  5  1  0 20 14.9970000  0  5G 2G 6G13G15G12
  21058199.0714    -239817.14147    483108.69262
  20104704.3294   -5157892.39447    263056.02563
  19484749.9704  -15657788.92248 -12200849.20462
  24292417.1104    2252796.64844   2747384.11461
  23253683.2124   -8282676.23945  -5715353.13161
 91  5  1  0 20 29.9970000  0  5G 2G 6G13G15G12
  21059663.7044    -232133.42547    489095.96962
  20106522.8064   -5148322.48647    270513.08262
  19481675.3994  -15673940.76148 -12213435.04262
  24297620.0644    2280159.66844   2768705.94761
  23241569.6034   -8346330.85145  -5764953.99561
 91  5  1  0 20 44.9970000  0  5G 2G 6G13G15G12
  21061138.3764    -224398.87247    495122.88162
  20108366.3144   -5138618.91247    278074.29462
  19478627.2434  -15689962.29248 -12225919.33962
  24302842.3924    2307607.28343   2790093.67961
  23229457.6424   -8409971.97645  -5814544.36261
 91  5  1  0 20 59.9970000  0  5G 2G 6G13G15G12
  21062614.8454    -216614.76447    501188.41262
  20110241.4934   -5128783.37747    285738.32962
  19475603.6104  -15705855.29248 -12238303.48062
  24308075.2204    2335137.57843   2811545.88761
  23217351.0324   -8473600.92245  -5864125.21361
 91  5  1  0 21 14.9970000  0  5G 2G 6G13G15G12
  21064108.2354    -208779.80047    507293.56462
  20112136.4784   -5118814.51047    293506.25862
  19472604.9544  -15721618.57848 -12250586.54862
  24313334.5094    2362751.97343   2833063.58161
  23205240.1574   -8537215.99045  -5913695.30861
 91  5  1  0 21 29.9970000  0  5G 2G 6G13G15G12
  21065609.7204    -200893.54147    513438.68562
  20114059.1814   -5108711.97147    301378.34662
  19469628.1264  -15737251.97648 -12262768.40762
  24318607.3534    2390450.19144   2854646.62161
  23193132.4394   -8600816.54345  -5963254.09361
 91  5  1  0 21 44.9970000  0  5G 2G 6G13G15G12
  21067118.6034    -192955.46747    519624.19262
  20116006.6894   -5098475.45047    309354.83362
  19466677.9314  -15752754.99848 -12274848.67762
  24323898.7044    2418232.53944   2876295.18261
  23181033.6264   -8664401.73645  -6012800.86461
 91  5  1  0 21 59.9970000  0  5G 2G 6G13G15G12
  21068638.3294    -184968.68447    525847.64062
  20117979.6734   -5088107.87847    317433.43762
  19463750.9544  -15768130.94848 -12286829.92062
  24329194.3844    2446095.77043   2898006.80361
  23168932.6814   -8727974.51045  -6062338.01061
 91  5  1  0 22 14.9970000  0  4G 2G 6G13G12
  21070168.8214    -176931.96247    532110.00662
  20119977.8684   -5077608.35347    325614.86662
  19460849.5094  -15783378.89947 -12298711.42862
  23156843.2354   -8791533.43445  -6111864.33761
 91  5  1  0 22 29.9970000  0  4G 2G 6G13G12
  21071704.4464    -168844.41747    538411.97462
  20122003.9854   -5066975.99447    333899.81662
  19457970.9314  -15798498.18547 -12310492.67262
  23144755.3144   -8855077.21145  -6161378.87661
 91  5  1  0 22 44.9970000  0  4G 2G 6G13G12
  21073257.0014    -160705.79947    544753.72963
  20124050.5094   -5056210.54747    342288.47662
  19455117.1264  -15813488.78747 -12322173.64262
  23132665.4624   -8918605.38945  -6210881.24561
 91  5  1  0 22 59.9970000  0  4G 2G 6G13G12
  21074815.8374    -152517.19947    551134.43163
  20126121.9154   -5045313.30847    350779.81962
  19452290.5874  -15828351.75947 -12333755.16262
  23120580.2904   -8982118.75445  -6260372.08061
 91  5  1  0 23 14.9970000  0  4G 2G 6G13G12
  21076381.7984    -144274.98547    557556.90562
  20128222.6344   -5034280.78247    359376.57762
  19449488.8294  -15843083.63547 -12345234.53462
  23108499.5874   -9045613.51345  -6309848.39661
 91  5  1  0 23 29.9970000  0  4G 2G 6G13G12
  21077959.4074    -135982.22147    564018.77562
  20130348.0794   -5023116.16047    368076.26262
  19446711.0644  -15857687.98747 -12356614.52762
  23096416.8684   -9109092.60345  -6359312.52061
 91  5  1  0 23 44.9970000  0  4G 2G 6G13G12
  21079548.3214    -127635.09647    570523.01762
  20132499.4234   -5011815.61547    376881.85362
  19443956.5874  -15872160.83547 -12367892.06162
  23084336.7284   -9172551.69445  -6408761.04261
 91  5  1  0 23 59.9970000  0  4G 2G 6G13G12
  21081146.8534    -119234.48147    577068.94462
  20134676.7284   -5000380.31647    385792.45062
  19441226.8604  -15886503.47047 -12379068.12962
  23072265.1104   -9235991.44845  -6458194.54861
 91  5  1  0 24 14.9970000  0  4G 2G 6G13G12
  21082757.1574    -110780.84747    583656.16762
  20136877.4784   -4988810.84147    394807.60862
  19438520.8454  -15900716.86847 -12390143.49461
  23060199.5644   -9299412.24045  -6507613.22461
 91  5  1  0 24 29.9970000  0  4G 2G 6G13G12
  21084372.9544    -102277.45247    590282.17362
  20139104.2674   -4977110.32547    403924.87662
  19435841.6264  -15914804.24747 -12401120.66661
  23048139.0324   -9362817.00645  -6557019.46561
 91  5  1  0 24 44.9970000  0  4G 2G 6G13G12
  21086003.1104     -93724.74847    596946.59962
  20141354.8604   -4965279.35147    413143.80762
  19433185.1344  -15928766.31447 -12412000.18761
  23036077.2354   -9426205.80345  -6606413.21461
 91  5  1  0 24 59.9970000  0  4G 2G 6G13G12
  21087640.0714     -85120.77247    603650.98062
  20143629.6574   -4953316.27447    422465.65962
  19430552.0244  -15942601.34847 -12422780.72561
  23024015.7434   -9489576.58945  -6655792.92061
 91  5  1  0 25 14.9970000  0  4G 2G 6G13G12
  21089285.8684     -76463.23847    610397.09562
  20145932.4154   -4941218.83247    431892.21962
  19427944.6184  -15956307.40147 -12433460.75462
  23011956.6424   -9552926.84445  -6705156.62661
 91  5  1  0 25 29.9970000  0  4G 2G 6G13G12
  21090941.9854     -67753.59447    617183.80962
  20148262.0324   -4928988.66547    441422.20562
  19425359.6654  -15969886.18648 -12444041.60762
  22999898.8764   -9616257.72045  -6754505.28261
 91  5  1  0 25 44.9970000  0  4G 2G 6G13G12
  21092613.0094     -58991.39747    624011.47162
  20150612.0014   -4916625.30047    451055.97962
  19422800.0014  -15983337.19648 -12454522.90762
  22987850.0644   -9679568.46844  -6803838.28661
 91  5  1  0 25 59.9970000  0  4G 2G 6G13G12
  21094289.1964     -50177.28247    630879.59162
  20152990.7674   -4904129.71747    460792.76762
  19420263.7674  -15996661.59748 -12464905.55362
  22975812.1894   -9742859.66245  -6853156.04561
 91  5  1  0 26 14.9970000  0  4G 2G 6G13G12
  21095975.7124     -41311.75747    637787.77662
  20155395.1424   -4891502.51847    470632.11362
  19417752.9784  -16009860.15848 -12475190.13662
  22963777.2904   -9806131.57046  -6902458.71261
 91  5  1  0 26 29.9970000  0  4G 2G 6G13G12
  21097671.1344     -32394.39247    644736.34962
  20157819.5404   -4878743.28747    480574.35262
  19415263.4314  -16022932.65048 -12485376.48462
  22951740.4544   -9869383.39346  -6951745.73661
 91  5  1  0 26 44.9970000  0  4G 2G 6G13G12
  21099378.4074     -23426.41447    651724.35662
  20160275.0174   -4865853.31347    490618.46762
  19412800.7744  -16035880.26848 -12495465.52661
  22939711.5484   -9932616.16146  -7001017.89661
 91  5  1  0 26 59.9970000  0  4G 2G 6G13G12
  21101095.9154     -14403.74147    658754.97462
  20162752.9784   -4852828.57447    500767.60062
  19410360.3374  -16048699.05848 -12505454.18262
  22927677.2514   -9995825.44445  -7050271.78561
 91  5  1  0 27 14.9970000  0  4G 2G 6G13G12
  21102823.7904      -5332.09747    665823.76362
  20165254.9854   -4839675.07347    511017.07162
  19407945.0484  -16061395.12948 -12515347.22062
  22915649.2204  -10059016.67245  -7099511.60861
 91  5  1  0 27 29.9970000  0  4G 2G 6G13G12
  21104558.4784       3793.35147    672934.49162
  20167786.1494   -4826388.16247    521370.48462
  19405553.0174  -16073963.96648 -12525141.11462
  22903629.7904  -10122184.82045  -7148733.46261
 91  5  1  0 27 44.9970000  0  4G 2G 6G13G12
  21106304.9934      12970.06547    680085.16761
  20170338.5794   -4812970.40047    531825.86462
  19403186.8374  -16086408.19048 -12534837.89962
  22891611.2514  -10185332.11645  -7197939.08461
 91  5  1  0 27 59.9970000  0  4G 2G 6G13G12
  21108062.2744      22199.21847    687276.70661
  20172915.8844   -4799420.78547    542383.98662
  19400842.4544  -16098726.95148 -12544436.93562
  22879602.1814  -10248457.23045  -7247127.39361
 91  5  1  0 28 14.9970000  0  4G 2G 6G13G12
  21109828.8764      31479.65847    694508.19661
  20175518.2434   -4785740.52247    553043.91062
  19398521.4154  -16110921.55848 -12553939.22462
  22867592.2514  -10311560.96145  -7296299.05361
 91  5  1  0 28 29.9970000  0  4G 2G 6G13G12
  21111605.4934      40813.97047    701781.66961
  20178146.4314   -4771927.16647    563807.53162
  19396225.0014  -16122989.85448 -12563343.08662
  22855588.6574  -10374640.50745  -7345451.87061
 91  5  1  0 28 44.9970000  0  4G 2G 6G13G12
  21113391.3844      50200.41347    709095.76462
  20180801.0324   -4757982.76747    574673.28162
  19393951.7744  -16134933.80048 -12572650.04962
  22843587.7674  -10437697.22045  -7394586.90761
 91  5  1  0 28 59.9970000  0  4G 2G 6G13G12
  21115186.2434      59638.96047    716450.45362
  20183478.6574   -4743907.32947    585641.13262
  19391702.9624  -16146753.57748 -12581860.25862
  22831596.0794  -10500730.91445  -7443704.01361
 91  5  1  0 29 14.9970000  0  4G 2G 6G13G12
  21116994.2514      69131.16647    723846.94562
  20186183.0874   -4729699.39647    596712.21862
  19389476.1264  -16158447.92547 -12590972.72762
  22819609.6264  -10563739.75246  -7492801.72061
 91  5  1  0 29 29.9970000  0  4G 2G 6G13G12
  21118809.3064      78676.61147    731284.92862
  20188910.9154   -4715359.48647    607886.16162
  19387274.4154  -16170017.40347 -12599987.89562
  22807622.2434  -10626723.96046  -7541880.25561
 91  5  1  0 29 44.9970000  0  4G 2G 6G13G12
  21120633.5714      88273.90147    738763.31962
  20191665.7824   -4700889.26247    619161.63362
  19385097.6894  -16181463.79847 -12608907.14962
  22795639.9234  -10689684.74445  -7590940.52361
 91  5  1  0 29 59.9970000  0  4G 2G 6G13G12
  21122471.3144      97923.42047    746282.40862
  20194445.7984   -4686288.55947    630538.76362
  19382943.3994  -16192786.67648 -12617730.15462
  22783663.9934  -10752621.33845  -7639981.95761
 91  5  1  0 30 14.9970000  0  4G 2G 6G13G12
  21124318.1894     107628.77047    753845.00462
  20197247.6734   -4671553.87847    642020.30662
  19380812.6034  -16203982.69548 -12626454.31962
  22771693.5244  -10815529.71345  -7689001.40361
 91  5  1  0 30 29.9970000  0  4G 2G 6G13G12
  21126177.3064     117389.50847    761450.76062
  20200077.3214   -4656685.57947    653605.96462
  19378705.6104  -16215052.62548 -12635080.23361
  22759726.2354  -10878410.14445  -7737999.06461
 91  5  1  0 30 44.9970000  0  4G 2G 6G13G12
  21128041.6424     127204.20947    769098.55462
  20202934.4314   -4641685.24947    665294.50462
  19376622.9234  -16225998.42848 -12643609.42662
  22747762.8144  -10941263.90545  -7786975.95361
 91  5  1  0 30 59.9970000  0  4G 2G 6G13G12
  21129922.8294     137072.45947    776788.08362
  20205812.8604   -4626553.81747    677085.21162
  19374563.4704  -16236820.29848 -12652042.05161
  22735805.8924  -11004090.98545  -7835932.07261
 91  5  1  0 31 14.9970000  0  4G 2G 6G13G12
  21131809.3994     146995.93447    784520.64062
  20208717.7284   -4611289.34347    688979.58762
  19372529.1104  -16247517.21148 -12660377.30861
  22723856.5714  -11066889.60245  -7884865.99461
 91  5  1  0 31 29.9970000  0  4G 2G 6G13G12
  21133706.8454     156969.62947    792292.32362
  20211646.1894   -4595897.15247    700973.48562
  19370515.2044  -16258094.43948 -12668619.30362
  22711913.6964  -11129664.54345  -7933781.49961
 91  5  1  0 31 44.9970000  0  4G 2G 6G13G12
  21135614.9624     166993.77447    800103.31162
  20214599.5094   -4580377.30447    713066.85062
  19368525.5324  -16268551.75448 -12676767.85761
  22699976.6264  -11192415.29646  -7982678.11161
 91  5  1  0 31 59.9970000  0  4G 2G 6G13G12
  21137535.0714     177071.59847    807956.15062
  20217575.3454   -4564726.76347    725262.05462
  19366558.0324  -16278886.18147 -12684820.65361
  22688039.5484  -11255138.19946  -8031553.03361
 91  5  1  0 32 14.9970000  0  4G 2G 6G13G12
  21139460.0564     187203.42447    815851.06062
  20220581.4154   -4548945.20947    737559.34462
  19364615.2744  -16289097.68947 -12692777.66562
  22676108.4784  -11317832.75946  -8080405.85961
 91  5  1  0 32 29.9970000  0  4G 2G 6G13G12
  21141397.2904     197390.56347    823789.07562
  20223608.6964   -4533031.33247    749959.74062
  19362695.4784  -16299185.33048 -12700638.15161
  22664180.6494  -11380497.52246  -8129235.48261
 91  5  1  0 32 44.9970000  0  4G 2G 6G13G12
  21143349.1574     207630.08047    831767.90162
  20226661.0564   -4516988.45147    762460.65062
  19360799.0564  -16309152.23047 -12708404.56462
  22652261.0404  -11443134.97545  -8178043.83261
 91  5  1  0 32 59.9970000  0  4G 2G 6G13G12
  21145306.5644     217921.37347    839787.07562
  20229737.3534   -4500817.26347    775061.53662
  19358924.8994  -16318999.10847 -12716077.44462
  22640347.1264  -11505745.48645  -8226831.21261
 91  5  1  0 33 14.9970000  0  4G 2G 6G13G12
  21147275.1034     228266.81447    847848.41462
  20232840.2744   -4484515.55547    787764.15262
  19357073.9154  -16328723.97347 -12723655.25862
  22628437.0174  -11568326.39846  -8275595.52561
 91  5  1  0 33 29.9970000  0  4G 2G 6G13G12
  21149253.1814     238665.14747    855950.97862
  20235966.7904   -4468084.48747    800567.54962
  19355246.3064  -16338328.10747 -12731138.99062
  22616536.1264  -11630878.45146  -8324337.30761
 91  5  1  0 33 44.9970000  0  4G 2G 6G13G12
  21151242.7284     249117.92847    864095.96862
  20239119.0014   -4451522.91647    813472.62862
  19353443.0714  -16347810.43948 -12738527.81462
  22604639.4464  -11693400.08646  -8373055.38661
 91  5  1  0 33 59.9970000  0  4G 2G 6G13G12
  21153244.1494     259625.69647    872283.80362
  20242295.8214   -4434830.45947    826479.71062
  19351663.3604  -16357170.65848 -12745821.48962
  22592749.5404  -11755890.46146  -8421749.11461
 91  5  1  0 34 14.9970000  0  4G 2G 6G13G12
  21155254.9464     270188.77747    880514.74562
  20245497.1814   -4418006.88247    839588.95762
  19349905.8764  -16366408.49248 -12753019.79462
  22580863.7354  -11818348.91946  -8470417.94461
 91  5  1  0 34 29.9970000  0  4G 2G 6G13G12
  21157274.0014     280802.69747    888785.31462
  20248722.1574   -4401056.85847    852796.73162
  19348170.8534  -16375528.55048 -12760126.32862
  22568981.0714  -11880779.59446  -8519065.16361
 91  5  1  0 34 44.9970000  0  4G 2G 6G13G12
  21159303.6814     291473.03947    897099.83362
  20251972.1104   -4383974.93847    866107.27862
  19346457.3454  -16384525.80848 -12767137.17762
  22557104.1894  -11943176.90245  -8567686.36061
 91  5  1  0 34 59.9970000  0  4G 2G 6G13G12
  21161343.5014     302195.79847    905455.20162
  20255247.6574   -4366765.40547    879517.25662
  19344767.2044  -16393404.88348 -12774055.93862
  22545238.1344  -12005544.61945  -8616284.52161
 91  5  1  0 35 14.9970000  0  4G 2G 6G13G12
  21163393.2904     312972.22347    913852.38762
  20258548.1734   -4349427.32247    893027.40562
  19343100.4704  -16402164.47548 -12780881.59662
  22533376.9854  -12067881.01245  -8664858.28561
 91  5  1  0 35 29.9970000  0  4G 2G 6G13G12
  21165453.6654     323801.84647    922291.03762
  20261869.3454   -4331961.15547    906637.36762
  19341456.4314  -16410805.34448 -12787614.73762
  22521518.7514  -12130186.34046  -8713407.82761
 91  5  1  0 35 44.9970000  0  4G 2G 6G13G12
  21167527.4394     334684.04347    930770.63162
  20265218.6034   -4314367.53447    920346.65162
  19339834.8994  -16419328.30948 -12794256.00761
  22509669.2824  -12192460.75646  -8761933.26661
 91  5  1  0 35 59.9970000  0  4G 2G 6G13G12
  21169606.7204     345622.64847    939294.19162
  20268591.1814   -4296642.65647    934158.23162
  19338234.9394  -16427729.76548 -12800802.59961
  22497826.0564  -12254700.16646  -8810431.42961
 91  5  1  0 36 14.9970000  0  4G 2G 6G13G12
  21171700.9154     356614.90047    947859.55662
  20271987.6814   -4278789.81547    948069.50762
  19336658.1264  -16436013.00748 -12807257.07862
  22485987.0014  -12316907.10946  -8858904.29061
 91  5  1  0 36 29.9970000  0  4G 2G 6G13G12
  21173801.6894     367661.21447    956467.05962
  20275411.5794   -4260808.83047    962080.64662
  19335106.1034  -16444177.68648 -12813619.16961
  22474155.2674  -12379081.03945  -8907351.42961
 91  5  1  0 36 44.9970000  0  4G 2G 6G13G12
  21175915.7594     378761.78347    965116.83162
  20278857.1034   -4242699.50047    976191.78462
  19333574.3144  -16452223.66548 -12819888.76561
  22462326.8764  -12441221.38345  -8955772.42361
 91  5  1  0 36 59.9970000  0  4G 2G 6G13G12
  21178036.6494     389915.99747    973808.39862
  20282327.9314   -4224462.63447    990402.29962
  19332067.1814  -16460152.01248 -12826066.69662
  22450506.6344  -12503328.51145  -9004167.52461
 91  5  1  0 37 14.9970000  0  4G 2G 6G13G12
  21180167.9394     401123.65447    982541.59762
  20285822.5794   -4206098.64646   1004711.87562
  19330578.7594  -16467963.30748 -12832153.42562
  22438698.7824  -12565402.24546  -9052536.59261
 91  5  1  0 37 29.9970000  0  4G 2G 6G13G12
  21182314.0874     412386.87247    991318.10062
  20289341.0404   -4187605.62946   1019121.99262
  19329114.4854  -16475655.40548 -12838147.27062
  22426895.4934  -12627440.16746  -9100877.74861
 91  5  1  0 37 44.9960000  0  4G 2G 6G13G12
  21184467.9344     423706.74447   1000138.75962
  20292884.3014   -4168983.13546   1033632.98662
  19327673.4654  -16483226.49948 -12844046.82862
  22415097.7074  -12689436.02846  -9149186.14561
 91  5  1  0 37 59.9960000  0  4G 2G 6G13G12
  21186630.0984     435080.30447   1009001.24862
  20296453.0434   -4150233.10446   1048243.37162
  19326255.1844  -16490682.08448 -12849856.37862
  22403305.7624  -12751402.30046  -9197471.48761
 91  5  1  0 38 14.9960000  0  4G 2G 6G13G12
  21188804.1294     446505.48646   1017903.95262
  20300045.9884   -4131358.43946   1062950.87962
  19324856.9654  -16498023.53348 -12855576.98962
  22391515.4494  -12813335.75646  -9245731.26261
 91  5  1  0 38 29.9960000  0  4G 2G 6G13G12
  21190988.5514     457984.51846   1026848.61462
  20303659.7234   -4112357.28546   1077756.95362
  19323481.0664  -16505248.65548 -12861206.94862
  22379741.8954  -12875234.05046  -9293963.63461
 91  5  1  0 38 44.9960000  0  4G 2G 6G13G12
  21193185.6684     469520.03446   1035837.27862
  20307300.1764   -4093226.86746   1092663.75162
  19322128.3094  -16512355.02048 -12866744.36462
  22367969.2854  -12937094.24946  -9342166.30061
 91  5  1  0 38 59.9960000  0  4G 2G 6G13G12
  21195392.2154     481111.03347   1044869.19661
  20310965.1214   -4073968.47946   1107670.25162
  19320799.3014  -16519343.99548 -12872190.30962
  22356204.9654  -12998917.03646  -9390339.82561
 91  5  1  0 39 14.9960000  0  4G 2G 6G13G12
  21197606.3564     492759.70447   1053946.06561
  20314655.4494   -4054580.28946   1122777.90762
  19319491.6524  -16526213.79348 -12877543.39362
  22344448.3014  -13060699.98646  -9438482.28861
 91  5  1  0 39 29.9960000  0  4G 2G 6G13G12
  21199834.7774     504463.25247   1063065.68361
  20318368.6524   -4035065.10146   1137984.49862
  19318205.5434  -16532967.28948 -12882805.85762
  22332695.9264  -13122445.36246  -9486595.50961
 91  5  1  0 39 44.9960000  0  4G 2G 6G13G12
  21202071.5984     516222.88847   1072229.01261
  20322109.0434   -4015421.86146   1153290.86862
  19316944.3164  -16539603.64348 -12887977.04362
  22320955.3714  -13184151.86546  -9534678.43961
 91  5  1  0 39 59.9960000  0  4G 2G 6G13G12
  21204320.2384     528034.90147   1081433.14761
  20325867.9494   -3995654.62746   1168693.87562
  19315702.6374  -16546126.95948 -12893060.14062
  22309221.4344  -13245822.96846  -9582733.78561
 91  5  1  0 40 14.9960000  0  4G 2G 6G13G12
  21206579.9964     539905.70847   1090683.09061
  20329656.0434   -3975757.10046   1184198.39761
  19314484.3484  -16552531.12448 -12898050.39762
  22297496.9184  -13307451.84346  -9630756.22161
 91  5  1  0 40 29.9960000  0  4G 2G 6G13G12
  21208847.3014     551829.37847   1099974.23161
  20333467.0904   -3955735.28546   1199799.78261
  19313287.2934  -16558822.09948 -12902952.46562
  22285772.0124  -13369044.08546  -9678750.10361
 91  5  1  0 40 44.9960000  0  4G 2G 6G13G12
  21211126.0274     563807.46747   1109307.78062
  20337301.4814   -3935588.05646   1215498.90261
  19312112.2464  -16564998.66548 -12907765.38062
  22274057.6844  -13430597.94946  -9726714.08161
 91  5  1  0 40 59.9960000  0  4G 2G 6G13G12
  21213416.4654     575841.17047   1118684.65161
  20341158.0824   -3915314.29746   1231296.61261
  19310958.7704  -16571059.94548 -12912488.46162
  22262352.3404  -13492111.91446  -9774646.98561
 91  5  1  0 41 14.9960000  0  4G 2G 6G13G12
  21215716.8324     587928.93947   1128103.66162
  20345037.9654   -3894915.65846   1247191.63061
  19309827.6214  -16577007.57348 -12917122.98562
  22250653.3244  -13553587.20346  -9822549.74761
 91  5  1  0 41 29.9960000  0  4G 2G 6G13G12
  21218027.4884     600068.93147   1137563.37561
  20348943.2704   -3874394.12746   1263182.37961
  19308718.1524  -16582844.00448 -12921670.86362
  22238965.5984  -13615025.35946  -9870423.56961
 91  5  1  0 41 44.9960000  0  4G 2G 6G13G12
  21220350.1684     612266.02747   1147067.58961
  20352871.6914   -3853745.32946   1279272.29861
  19307628.2384  -16588564.45448 -12926128.36062
  22227279.0824  -13676421.26846  -9918264.46861
 91  5  1  0 41 59.9960000  0  4G 2G 6G13G12
  21222679.4964     624520.25547   1156616.31862
  20356826.3244   -3832969.18546   1295461.46061
  19306563.4654  -16594169.14248 -12930495.65162
  22215600.9734  -13737774.60646  -9966072.21161
 91  5  1  0 42 14.9960000  0  4G 2G 6G13G12
  21225022.0664     636830.09346   1166208.36761
  20360802.0124   -3812067.50846   1311748.43061
  19305518.0434  -16599659.99348 -12934774.24062
  22203933.5824  -13799086.62446 -10013847.76261
 91  5  1  0 42 29.9960000  0  4G 2G 6G13G12
  21227376.0824     649196.21846   1175844.27761
  20364802.2234   -3791039.91946   1328133.54261
  19304495.4024  -16605036.69048 -12938963.87562
  22192276.8404  -13860356.42546 -10061590.40861
 91  5  1  0 42 44.9960000  0  4G 2G 6G13G12
  21229738.9104     661616.45346   1185522.36361
  20368829.7704   -3769888.49046   1344615.14161
  19303494.1374  -16610301.17848 -12943066.07362
  22180630.7544  -13921585.53246 -10109301.32461
 91  5  1  0 42 59.9960000  0  4G 2G 6G13G12
  21232113.6454     674093.01946   1195244.35461
  20372881.4494   -3748611.19446   1361194.83161
  19302514.0044  -16615451.67448 -12947079.44762
  22168987.8714  -13982771.53446 -10156978.64261
 91  5  1  0 43 14.9960000  0  4G 2G 6G13G12
  21234499.5744     686624.82246   1205009.37761
  20376950.3014   -3727209.76346   1377871.24461
  19301554.8014  -16620489.94448 -12951005.37262
  22157351.6994  -14043915.46946 -10204623.19161
 91  5  1  0 43 29.9960000  0  4G 2G 6G13G12
  21236895.5744     699212.22146   1214817.70762
  20381047.9964   -3705684.04046   1394644.51561
  19300616.3244  -16625415.93248 -12954843.80062
  22145722.8164  -14105016.71846 -10252234.48861
 91  5  1  0 43 44.9960000  0  4G 2G 6G13G12
  21239298.8634     711857.49446   1224671.13062
  20385168.4884   -3684031.52546   1411516.56661
  19299699.8324  -16630227.46948 -12958593.04862
  22134098.9574  -14166072.42046 -10299810.30461
 91  5  1  0 43 59.9960000  0  4G 2G 6G13G12
  21241716.0904     724557.29346   1234567.03262
  20389311.6914   -3662255.96746   1428484.48761
  19298806.3564  -16634928.18648 -12962255.94162
  22122487.4884  -14227085.69146 -10347353.06061
 91  5  1  0 44 14.9960000  0  4G 2G 6G13G12
  21244143.0434     737315.40846   1244508.39062
  20393478.9344   -3640353.81346   1445551.03761
  19297934.4964  -16639514.45648 -12965829.65262
  22110888.4414  -14288052.52246 -10394859.63561
 91  5  1  0 44 29.9960000  0  4G 2G 6G13G12
  21246583.8164     750129.27146   1254493.18962
  20397671.1294   -3618327.72146   1462714.17661
  19297081.1604  -16643989.05348 -12969316.34462
  22099294.4654  -14348975.02146 -10442331.65461
 91  5  1  0 44 44.9960000  0  4G 2G 6G13G12
  21249030.6604     762998.60146   1264521.20762
  20401887.0274   -3596178.25046   1479973.47261
  19296251.1684  -16648352.63348 -12972716.53762
  22087715.4344  -14409853.32846 -10489769.23661
 91  5  1  0 44 59.9960000  0  4G 2G 6G13G12
  21251492.6524     775926.68446   1274594.99862
  20406128.1684   -3573902.47846   1497331.18661
  19295442.5274  -16652602.25048 -12976027.92262
  22076139.4814  -14470683.71046 -10537169.45961
 91  5  1  0 45 14.9960000  0  4G 2G 6G13G12
  21253961.8484     788909.42546   1284711.38462
  20410390.5824   -3551504.41346   1514784.21261
  19294652.7934  -16656742.35648 -12979253.97962
  22064570.8634  -14531469.94646 -10584535.27761
 91  5  1  0 45 29.9960000  0  4G 2G 6G13G12
  21256445.2464     801951.03046   1294873.63862
  20414675.9814   -3528980.00146   1532335.68061
  19293887.8874  -16660768.67947 -12982391.37862
  22053012.3484  -14592207.47846 -10631863.15761
 91  5  1  0 45 44.9960000  0  4G 2G 6G13G12
  21258938.5824     815049.62247   1305080.31262
  20418985.4024   -3506331.57546   1549983.77261
  19293143.0594  -16664683.55847 -12985441.92662
  22041461.4344  -14652897.86946 -10679154.30661
 91  5  1  0 45 59.9960000  0  4G 2G 6G13G12
  21261443.1064     828205.77847   1315331.84161
  20423316.7934   -3483558.80046   1567728.75161
  19292418.2854  -16668486.76047 -12988405.45462
  22029920.0274  -14713540.36546 -10726408.14061
 91  5  1  0 46 14.9960000  0  4G 2G 6G13G12
  21263955.0514     841415.90947   1325625.42961
  20427671.3794   -3460665.43446   1585567.70261
  19291714.3404  -16672182.23147 -12991285.04062
  22018390.2234  -14774138.18146 -10773627.16261
 91  5  1  0 46 29.9960000  0  4G 2G 6G13G12
  21266479.7854     854682.77747   1335963.22461
  20432050.8874   -3437648.90746   1603502.62361
  19291033.5664  -16675767.64647 -12994078.86762
  22006864.3954  -14834688.31746 -10820809.03961
 91  5  1  0 46 44.9960000  0  4G 2G 6G13G12
  21269015.3324     868006.42147   1346345.26361
  20436458.0664   -3414509.52046   1621533.26061
  19290372.8164  -16679243.14547 -12996787.04662
  21995355.8404  -14895190.49846 -10867953.51961
 91  5  1  0 46 59.9960000  0  4G 2G 6G13G12
  21271560.9734     881384.47947   1356769.70861
  20440885.0204   -3391249.82846   1639657.64661
  19289732.4344  -16682611.19048 -12999411.49062
  21983851.7854  -14955646.76846 -10915062.22661
 91  5  1  0 47 14.9960000  0  4G 2G 6G13G12
  21274117.1684     894821.48747   1367240.07761
  20445333.5664   -3367865.30546   1657879.31361
  19289112.8794  -16685867.71648 -13001949.04062
  21972353.4184  -15016052.27446 -10962131.38761
 91  5  1  0 47 29.9960000  0  4G 2G 6G13G12
  21276683.5904     908314.16847   1377753.83562
  20449805.1374   -3344359.72746   1676195.32061
  19288515.7314  -16689016.23348 -13004402.42862
  21960868.5824  -15076409.97646 -11009163.31261
 91  5  1  0 47 44.9960000  0  4G 2G 6G13G12
  21279262.4654     921865.47246   1388313.25462
  20454302.5514   -3320730.20146   1694607.90561
  19287936.4414  -16692053.97648 -13006769.49662
  21949390.2234  -15136716.39246 -11056155.27761
 91  5  1  0 47 59.9960000  0  4G 2G 6G13G12
  21281855.0744     935473.69846   1398917.03562
  20458822.9414   -3296978.52446   1713115.67461
  19287378.0984  -16694982.85848 -13009051.74662
  21937926.8324  -15196972.92246 -11103108.37261
 91  5  1  0 48 14.9960000  0  4G 2G 6G13G12
  21284453.7704     949138.24146   1409564.70162
  20463365.3094   -3273105.58046   1731717.92361
  19286842.2934  -16697804.03448 -13011250.06162
  21926471.3634  -15257180.01646 -11150022.93961
 91  5  1  0 48 29.9960000  0  4G 2G 6G13G12
  21287063.4264     962861.59746   1420258.19661
  20467930.8484   -3249109.33646   1750416.24961
  19286326.4184  -16700515.31248 -13013362.74262
  21915027.2624  -15317334.91146 -11196896.80461
 91  5  1  0 48 44.9960000  0  4G 2G 6G13G12
  21289688.0514     976641.18746   1430995.50561
  20472520.9574   -3224992.28946   1769208.69461
  19285829.9414  -16703119.44248 -13015391.93262
  21903586.8794  -15377439.69946 -11243731.62061
 91  5  1  0 48 59.9960000  0  4G 2G 6G13G12
  21292319.9494     990479.55246   1441778.63161
  20477133.9964   -3200752.28246   1788096.96261
  19285354.6454  -16705613.94848 -13017335.69662
  21892157.2314  -15437491.51746 -11290525.16361
 91  5  1  0 49 14.9960000  0  4G 2G 6G13G12
  21294964.3564    1004372.54746   1452604.30861
  20481771.6684   -3176393.52446   1807077.75461
  19284900.0274  -16708003.51248 -13019197.68562
  21880738.1764  -15497494.29346 -11337280.51061
 91  5  1  0 49 29.9960000  0  4G 2G 6G13G12
  21297617.5434    1018321.18746   1463473.35661
  20486429.0354   -3151915.51946   1826151.48961
  19284466.7544  -16710287.33948 -13020977.28962
  21869330.2544  -15557446.73446 -11383996.65561
 91  5  1  0 49 44.9960000  0  4G 2G 6G13G12
  21300281.6064    1032327.27146   1474387.15161
  20491108.2854   -3127316.55646   1845319.44861
  19284049.8874  -16712463.86948 -13022673.28362
  21857932.8714  -15617346.60346 -11430671.83261
 91  5  1  0 49 59.9960000  0  4G 2G 6G13G12
  21302958.0594    1046392.11746   1485346.72062
  20495813.0514   -3102595.50146   1864582.54061
  19283656.4964  -16714532.14848 -13024284.93362
  21846547.8324  -15677192.37746 -11477304.85061
 91  5  1  0 50 14.9960000  0  4G 2G 6G13G12
  21305648.0824    1060514.06646   1496350.78662
  20500541.7154   -3077754.31746   1883939.26261
  19283283.6454  -16716494.05747 -13025813.68962
  21835172.1994  -15736985.34047 -11523896.69861
 91  5  1  0 50 29.9960000  0  4G 2G 6G13G12
  21308346.1524    1074694.05547   1507400.09462
  20505292.1064   -3052792.17346   1903390.23061
  19282929.6914  -16718349.11947 -13027259.19662
  21823803.5594  -15796724.22446 -11570446.39661
 91  5  1  0 50 44.9960000  0  4G 2G 6G13G12
  21311055.6214    1088927.27347   1518490.88362
  20510063.9734   -3027714.35946   1922931.32861
  19282599.7624  -16720102.42148 -13028625.39662
  21812441.2544  -15856413.59246 -11616957.52961
 91  5  1  0 50 59.9960000  0  4G 2G 6G13G12
  21313774.6604    1103220.18547   1529628.19861
  20514858.0904   -3002514.47246   1942567.56561
  19282284.4264  -16721747.70648 -13029907.43562
  21801090.8564  -15916046.65546 -11663424.78561
 91  5  1  0 51 14.9960000  0  4G 2G 6G13G12
  21316505.3564    1117568.75347   1540808.88161
  20519675.8094   -2977196.90246   1962295.49661
  19281991.8634  -16723289.30248 -13031108.67762
  21789753.2854  -15975627.17646 -11709851.12961
 91  5  1  0 51 29.9960000  0  4G 2G 6G13G12
  21319247.7934    1131975.00747   1552034.51061
  20524519.2544   -2951759.78946   1982116.57861
  19281718.7464  -16724725.53448 -13032227.81862
  21778424.5824  -16035152.78746 -11756234.68561
 91  5  1  0 51 44.9960000  0  4G 2G 6G13G12
  21321998.8324    1146438.17646   1563304.48462
  20529383.0204   -2926204.21646   2002029.97861
  19281465.8954  -16726057.52448 -13033265.72862
  21767109.1844  -16094623.80046 -11802575.68961
 91  5  1  0 51 59.9960000  0  4G 2G 6G13G12
  21324763.0824    1160959.67746   1574619.89862
  20534267.3874   -2900528.85046   2022036.70661
  19281234.0354  -16727283.94748 -13034221.38262
  21755805.0904  -16154038.52846 -11848872.81461
 91  5  1  0 52 14.9960000  0  4G 2G 6G13G12
  21327536.4024    1175537.05546   1585978.85562
  20539172.8634   -2874736.51346   2042134.57461
  19281018.6994  -16728407.67548 -13035097.01262
  21744509.4414  -16213399.16146 -11895127.77661
 91  5  1  0 52 29.9960000  0  4G 2G 6G13G12
  21330322.6064    1190174.87946   1597384.91562
  20544104.6214   -2848822.83846   2062326.98361
  19280825.6064  -16729424.31648 -13035889.20462
  21733221.2464  -16272700.71046 -11941336.70561
 91  5  1  0 52 44.9960000  0  4G 2G 6G13G12
  21333119.7314    1204872.14546   1608837.29261
  20549059.2384   -2822788.96746   2082613.06061
  19280650.4964  -16730335.40048 -13036599.15162
  21721944.0664  -16331943.87146 -11987500.15861
 91  5  1  0 52 59.9960000  0  4G 2G 6G13G12
  21335927.6914    1219626.53746   1620334.17061
  20554037.0354   -2796637.56146   2102990.72961
  19280499.0514  -16731143.47048 -13037228.81462
  21710680.3164  -16391130.55246 -12033619.60961
 91  5  1  0 53 14.9960000  0  4G 2G 6G13G12
  21338742.4024    1234438.10946   1631875.61661
  20559037.4024   -2770368.69646   2123459.92261
  19280362.8634  -16731848.57748 -13037778.25062
  21699430.1524  -16450260.43646 -12079694.79761
 91  5  1  0 53 29.9960000  0  4G 2G 6G13G12
  21341574.0434    1249308.02946   1643462.52961
  20564055.9734   -2743981.44946   2144021.35161
  19280248.7624  -16732449.81748 -13038246.75462
  21688191.7234  -16509332.02946 -12125724.56561
 91  5  1  0 53 44.9960000  0  4G 2G 6G13G12
  21344415.7544    1264235.02446   1655093.91561
  20569099.1914   -2717477.37046   2164673.82861
  19280152.6684  -16732948.78548 -13038635.56062
  21676961.0594  -16568346.38746 -12171709.72161
 91  5  1  0 53 59.9960000  0  4G 2G 6G13G12
  21347266.5274    1279220.79946   1666771.13261
  20574161.8014   -2690854.95446   2185418.51161
  19280076.7624  -16733344.18148 -13038943.66962
  21665744.0824  -16627301.35746 -12217648.60161
 91  5  1  0 54 14.9960000  0  4G 2G 6G13G12
  21350130.6214    1294265.54646   1678494.28761
  20579252.0984   -2664114.30446   2206255.32661
  19280023.3714  -16733636.07648 -13039171.11962
  21654538.5274  -16686196.50146 -12263540.86161
 91  5  1  0 54 29.9960000  0  4G 2G 6G13G12
  21353003.5434    1309369.24046   1690263.37161
  20584362.5984   -2637255.63546   2227184.10161
  19279986.7464  -16733824.92748
  21643340.9264  -16745031.45646 -12309386.21861
 91  5  1  0 54 44.9960000  0  4G 2G 6G13G12
  21355890.4264    1324533.03046   1702079.26561
  20589497.9964   -2610278.02646   2248205.54461
  19279970.5824  -16733909.61548
  21632158.1764  -16803804.62846 -12355183.44661
 91  5  1  0 54 59.9960000  0  4G 2G 6G13G12
  21358786.4024    1339753.89946   1713939.64761
  20594654.2384   -2583184.99746   2269316.93161
  19279976.3324  -16733893.59848
  21620984.3954  -16862518.83646 -12400934.73461
 91  5  1  0 55 14.9960000  0  4G 2G 6G13G12
  21361693.2074    1355032.08946   1725844.69561
  20599831.8324   -2555976.30146   2290518.46761
  19279994.9814  -16733777.01448
  21609824.0744  -16921173.57946 -12446639.68161
 91  5  1  0 55 29.9960000  0  4G 2G 6G13G12
  21364611.9574    1370364.97646   1737792.37061
  20605030.7074   -2528654.82346   2311807.87861
  19280035.9184  -16733562.82248
  21598671.7154  -16979771.07846 -12492300.04061
 91  5  1  0 55 44.9960000  0  4G 2G 6G13G12
  21367540.4654    1385757.02046   1749786.14861
  20610250.3094   -2501216.51046   2333188.32261
  19280097.9024  -16733246.78248
  21587533.3714  -17038306.67646 -12537912.13561
 91  5  1  0 55 59.9960000  0  4G 2G 6G13G12
  21370478.7704    1401208.54846   1761826.26561
  20615493.9414   -2473661.18046   2354659.94961
  19280175.9734  -16732828.77348        -0.04872
  21576404.9024  -17096779.66046 -12583475.46261
 91  5  1  0 56 14.9960000  0  4G 2G 6G13G12
  21373431.0274    1416719.56846   1773912.72461
  20620762.6064   -2445989.11046   2376222.54861
  19280277.2154  -16732309.01448       404.96462
  21565290.0124  -17155189.55246 -12628989.61861
 91  5  1  0 56 29.9960000  0  4G 2G 6G13G12
  21376393.5204    1432288.91146   1786044.63661
  20626052.1064   -2418201.84646   2397874.91462
  19280393.1994  -16731689.23748       887.90262
  21554185.0984  -17213537.31646 -12674455.37761
 91  5  1  0 56 44.9960000  0  4G 2G 6G13G12
  21379367.1914    1447916.25546   1798221.75061
  20631360.0824   -2390299.70946   2419616.78462
  19280532.5824  -16730969.63848      1448.62462
  21543095.3094  -17271822.71346 -12719872.52261
 91  5  1  0 56 59.9960000  0  4G 2G 6G13G12
  21382354.6134    1463601.70746   1810444.13461
  20636691.3014   -2362282.98546   2441447.94062
  19280685.6294  -16730150.81748      2086.67462
  21532014.8164  -17330045.46546 -12765240.83461
 91  5  1  0 57 14.9960000  0  4G 2G 6G13G12
  21385349.7624    1479346.78946   1822712.99261
  20642042.8634   -2334150.35746   2463369.41262
  19280861.5274  -16729231.19348      2803.26762
  21520948.8484  -17388203.63646 -12810558.82361
 91  5  1  0 57 29.9960000  0  4G 2G 6G13G12
  21388357.6684    1495149.52246   1835026.76861
  20647420.3014   -2305904.00346   2485379.50862
  19281053.8484  -16728213.23448      3596.48262
  21509892.9414  -17446298.82846 -12855827.75061
 91  5  1  0 57 44.9960000  0  4G 2G 6G13G12
  21391375.0434    1511011.70646   1847386.87061
  20652816.6134   -2277542.46646   2507479.36362
  19281268.7704  -16727095.55148      4467.41262
  21498852.1524  -17504329.04246 -12901046.06061
 91  5  1  0 57 59.9960000  0  4G 2G 6G13G12
  21394405.5824    1526931.05547   1859791.52661
  20658234.5744   -2249068.30546   2529666.96962
  19281498.2464  -16725880.87248      5413.91662
  21487816.0984  -17562296.19546 -12946215.25261
 91  5  1  0 58 14.9960000  0  4G 2G 6G13G12
  21397445.4654    1542907.27046   1872240.48961
  20663674.3094   -2220482.08746   2551941.87462
  19281749.0274  -16724569.59048      6435.69762
  21476797.7384  -17620200.31446 -12991335.32961
 91  5  1  0 58 29.9960000  0  4G 2G 6G13G12
  21400496.1214    1558942.58046   1884735.49561
  20669136.3874   -2191781.89946   2574305.58762
  19282015.4264  -16723159.63948      7534.35962
  21465794.1994  -17678038.82747 -13036404.24161
 91  5  1  0 58 44.9960000  0  4G 2G 6G13G12
  21403559.3874    1575036.92546   1897276.50561
  20674620.3484   -2162967.84946   2596758.03462
  19282301.8714  -16721651.34147      8709.65762
  21454804.6134  -17735811.29847 -13081421.68261
 91  5  1  0 58 59.9960000  0  4G 2G 6G13G12
  21406634.1914    1591191.70446   1909864.60961
  20680125.6294   -2134038.99746   2619299.94161
  19282608.1294  -16720043.76947      9962.30762
  21443822.3244  -17793516.10147 -13126386.38161
 91  5  1  0 59 14.9960000  0  4G 2G 6G13G12
  21409719.8094    1607405.63446   1922498.80761
  20685651.4414   -2104996.70746   2641930.24262
  19282933.1844  -16718338.59048     11291.01062
  21432851.5824  -17851154.16846 -13171299.09561
 91  5  1  0 59 29.9960000  0  4G 2G 6G13G12
  21412815.8714    1623677.88646   1935178.43961
  20691198.6684   -2075842.28446   2664647.91161
  19283276.7234  -16716536.92348     12694.90562
  21421894.6064  -17908726.05146 -13216160.26161
 91  5  1  0 59 44.9960000  0  4G 2G 6G13G12
  21415924.0824    1640009.49746   1947904.31661
  20696767.1294   -2046574.88346   2687453.61762
  19283637.9414  -16714637.87548     14174.67562
  21410952.2544  -17966230.37146 -13260968.78561
 91  5  1  0 59 59.9960000  0  4G 2G 6G13G12
  21419039.9264    1656398.27246   1960674.73561
  20702359.4964   -2017197.07946   2710345.37362
  19284018.2704  -16712644.15148     15728.21962
  21400023.8094  -18023669.05646 -13305726.16461
 91  5  1  1  0 14.9960000  0  4G 2G 6G13G12
  21422171.7934    1672848.23446   1973492.83261
  20707971.3794   -1987704.72046   2733326.38562
  19284414.9964  -16710551.74848     17358.66162
  21389107.6374  -18081037.41547 -13350428.73261
 91  5  1  1  0 29.9960000  0  4G 2G 6G13G12
  21425314.9734    1689357.21446   1986356.91361
  20713605.5204   -1958100.39046   2756394.63762
  19284832.6374  -16708363.12147     19064.07262
  21378201.3714  -18138337.41646 -13395078.01761
 91  5  1  1  0 44.9960000  0  4G 2G 6G13G12
  21428466.6454    1705925.15946   1999266.95561
  20719259.7544   -1928384.47046   2779549.84562
  19285264.2314  -16706078.79547     20844.05662
  21367310.7154  -18195568.83046 -13439673.86061
 91  5  1  1  0 59.9960000  0  4G 2G 6G13G12
  21431631.8714    1722549.98346   2012221.32661
  20724936.6374   -1898559.20846   2802790.25262
  19285718.3324  -16703701.19548     22696.72762
  21356431.9814  -18252733.47846 -13484217.68661
 91  5  1  1  1 14.9960000  0  4G 2G 6G13G12
  21434806.0824    1739233.14646   2025221.15661
  20730632.4574   -1868623.62846   2826116.62862
  19286189.7934  -16701228.96448     24623.13262
  21345567.3324  -18309829.54146 -13528708.07461
 91  5  1  1  1 29.9960000  0  4G 2G 6G13G12
  21437991.1764    1755972.97946   2038265.13661
  20736348.0274   -1838579.46446   2849527.61362
  19286676.5594  -16698664.03948     26621.77062
  21334714.5124  -18366858.19046 -13573145.92361
 91  5  1  1  1 44.9960000  0  4G 2G 6G13G12
  21441187.6764    1772771.58146   2051354.91261
  20742086.1684   -1808424.96446   2873024.57162
  19287183.6684  -16696004.71947     28693.96362
  21323877.3794  -18423816.95846 -13617529.32361
 91  5  1  1  1 59.9960000  0  4G 2G 6G13G12
  21444396.1764    1789631.60546   2064492.55161
  20747847.3094   -1778157.62347   2896609.45362
  19287707.3404  -16693248.38047     30841.75162
  21313050.2234  -18480702.75446 -13661855.86661
 91  5  1  1  2 14.9960000  0  4G 2G 6G13G12
  21447614.9414    1806550.71746   2077676.22361
  20753628.3244   -1747780.28247   2920280.06062
  19288250.1064  -16690398.06748     33062.77162
  21302240.2854  -18537517.75146 -13706127.25161
 91  5  1  1  2 29.9960000  0  4G 2G 6G13G12
  21450846.3874    1823528.78846   2090905.84961
  20759429.5514   -1717293.36947   2944036.05362
  19288812.5434  -16687454.05548     35356.80662
  21291439.0904  -18594261.80946 -13750343.34861
 91  5  1  1  2 44.9960000  0  4G 2G 6G13G12
  21454089.4734    1840567.35846   2104182.61361
  20765253.5514   -1686695.30047   2967878.65662
  19289388.1914  -16684415.02847     37724.87662
  21280658.3954  -18650932.92247 -13794502.61961
 91  5  1  1  2 59.9960000  0  4G 2G 6G13G12
  21457343.1134    1857665.87346   2117506.08861
  20771095.3954   -1655987.03646   2991807.12162
  19289984.6914  -16681281.89147     40166.27962
  21269889.9654  -18707531.35347 -13838605.24261
 91  5  1  1  3 14.9960000  0  4G 2G 6G13G12
  21460608.0044    1874822.50346   2130874.84961
  20776959.0744   -1625170.71646   3015819.79062
  19290599.1134  -16678057.00547     42679.17762
  21259132.1844  -18764058.65247 -13882652.44461
 91  5  1  1  3 29.9960000  0  4G 2G 6G13G12
  21463883.9494    1892038.57146   2144289.93661
  20782843.8794   -1594245.29946   3039917.45762
  19291230.0514  -16674739.12547     45264.53562
  21248385.9414  -18820513.05746 -13926642.85361
 91  5  1  1  3 44.9960000  0  4G 2G 6G13G12
  21467171.2624    1909314.83446   2157751.92561
  20788750.5904   -1563210.06946   3064100.69762
  19291879.4814  -16671327.60047     47922.86962
  21237659.2234  -18876893.33747 -13970575.51261
 91  5  1  1  3 59.9960000  0  4G 2G 6G13G12
  21470468.4734    1926650.50146   2171260.19361
  20794675.4344   -1532066.22246   3088368.57762
  19292545.2234  -16667823.69047     50653.18362
  21226945.7544  -18933200.00647 -14014450.80261
 91  5  1  1  4 14.9960000  0  4G 2G 6G13G12
  21473777.4734    1944046.30446   2184815.29761
  20800622.7774   -1500813.52046   3112721.28162
  19293230.1374  -16664227.10147     53455.71462
  21216244.9184  -18989432.12047 -14058267.98161
 91  5  1  1  4 29.9960000  0  4G 2G 6G13G12
  21477099.4104    1961496.81546   2198413.03761
  20806590.8634   -1469457.51146   3137154.47862
  19293934.7624  -16660543.48347     56326.05862
  21205558.8634  -19045594.74647 -14102031.01561
 91  5  1  1  4 44.9950000  0  4G 2G 6G13G12
  21480433.0154    1979005.00046   2212055.71861
  20812578.6554   -1437996.47646   3161669.51162
  19294650.6084  -16656769.41647     59266.89162
  21194887.2964  -19101679.67247 -14145733.50061
 91  5  1  1  4 59.9950000  0  4G 2G 6G13G12
  21483776.7964    1996575.22546   2225746.75561
  20818586.7884   -1406424.28846   3186271.16262
  19295384.4684  -16652902.20647     62280.29362
  21184227.2024  -19157691.81947 -14189379.28461
 91  5  1  1  5 14.9950000  0  4G 2G 6G13G12
  21487132.0544    2014204.92146   2239484.14661
  20824613.9604   -1374744.91946   3210956.33662
  19296138.8744  -16648944.25548     65364.39862
  21173579.3664  -19213628.69446 -14232966.42261
 91  5  1  1  5 29.9950000  0  4G 2G 6G13G12
  21490498.6484    2031893.31246   2253267.27761
  20830663.6014   -1342959.53146   3235724.11862
  19296909.3584  -16644896.64448     68518.37362
  21162949.9604  -19269490.59946 -14276495.14661
 91  5  1  1  5 44.9950000  0  4G 2G 6G13G12
  21493874.4684    2049642.88746   2267098.08361
  20836730.1794   -1311065.59046   3260576.48762
  19297698.0694  -16640756.57648     71744.39762
  21152335.0854  -19325274.56847 -14319963.13961
 91  5  1  1  5 59.9950000  0  4G 2G 6G13G12
  21497264.2264    2067453.63546   2280976.54861
  20842821.0624   -1279063.59446   3285513.05762
  19298501.4834  -16636524.86248     75041.83162
  21141734.6244  -19380980.49547 -14363370.32961
 91  5  1  1  6 14.9950000  0  4G 2G 6G13G12
  21500663.9834    2085325.49346   2294902.62961
  20848933.5074   -1246953.90446   3310533.54462
  19299325.3904  -16632201.84348     78410.40862
  21131150.4134  -19436608.15947 -14406716.53161
 91  5  1  1  6 29.9950000  0  4G 2G 6G13G12
  21504077.4374    2103256.66446   2308874.93361
  20855062.3274   -1214738.39946   3335636.48062
  19300166.2654  -16627789.33748     81848.71662
  21120576.8434  -19492158.87247 -14450002.76661
 91  5  1  1  6 44.9950000  0  4G 2G 6G13G12
  21507501.1404    2121246.24346   2322892.74561
  20861212.7654   -1182418.24246   3360820.96262
  19301022.2334  -16623288.56848     85355.80562
  21110024.3514  -19547633.19847 -14493229.48661
 91  5  1  1  6 59.9950000  0  4G 2G 6G13G12
  21510935.3984    2139296.64546   2336957.95561
  20867383.7494   -1149991.53446   3386088.47462
  19301895.2024  -16618697.40748     88933.33362
  21099478.8274  -19603028.32047 -14536394.48261
 91  5  1  1  7 14.9950000  0  4G 2G 6G13G12
  21514381.8434    2157408.78746   2351071.27661
  20873575.2964   -1117457.63646   3411439.50261
  19302785.3744  -16614015.57248     92581.51462
  21088955.1714  -19658343.01147 -14579496.81161
 91  5  1  1  7 29.9950000  0  4G 2G 6G13G12
  21517839.1944    2175579.34246   2365230.12161
  20879784.2414   -1084819.98946   3436871.38661
  19303692.2414  -16609246.49948     96297.66862
  21078443.8664  -19713580.12047 -14622538.69561
 91  5  1  1  7 44.9950000  0  4G 2G 6G13G12
  21521310.4134    2193807.90846   2379434.17461
  20886015.7734   -1052079.34146   3462383.53261
  19304618.9764  -16604391.06648    100081.12762
  21067946.5074  -19768739.73147 -14665520.18961
 91  5  1  1  7 59.9950000  0  4G 2G 6G13G12
  21524788.3584    2212094.42746   2393683.37661
  20892265.3434   -1019236.13246   3487975.59461
  19305556.1794  -16599449.35248    103931.81162
  21057463.4054  -19823821.60547 -14708441.10061
 91  5  1  1  8 14.9950000  0  4G 2G 6G13G12
  21528277.8584    2230441.41446   2407979.68061
  20898536.2804    -986287.99146   3513649.42761
  19306515.5234  -16594419.23748    107851.38562
  21046998.6014  -19878822.81347 -14751299.14661
 91  5  1  1  8 29.9950000  0  4G 2G 6G13G12
  21531783.7574    2248850.24646   2422324.17961
  20904825.1554    -953233.88346   3539405.80561
  19307487.1324  -16589299.63447    111840.68562
  21036548.3194  -19933741.74147 -14794093.07861
 91  5  1  1  8 44.9950000  0  4G 2G 6G13G12
  21535296.7414    2267318.24246   2436714.78961
  20911136.0304    -920076.70346   3565242.50861
  19308478.9444  -16584093.45147    115897.44662
  21026112.4834  -19988580.55147 -14836824.59361
 91  5  1  1  8 59.9950000  0  4G 2G 6G13G12
  21538821.6244    2285845.05246   2451151.22861
  20917466.6244    -886817.01646   3591159.07961
  19309486.6244  -16578801.28248    120021.21162
  21015693.1634  -20043339.39647 -14879493.80361
 91  5  1  1  9 14.9950000  0  4G 2G 6G13G12
  21542360.8744    2304429.46746   2465632.54761
  20923813.0624    -853456.31046   3617154.37561
  19310509.7494  -16573424.74748    124210.71762
  21005287.9834  -20098018.91247 -14922101.19761
 91  5  1  1  9 29.9950000  0  4G 2G 6G13G12
  21545908.1554    2323072.63646   2480159.64861
  20930181.4914    -819993.82746   3643228.97261
  19311549.0544  -16567963.06748    128466.56262
  20994897.5234  -20152617.83147 -14964645.78261
 91  5  1  1  9 44.9950000  0  4G 2G 6G13G12
  21549469.4604    2341777.09346   2494734.49561
  20936570.5304    -786427.47446   3669384.50261
  19312605.5464  -16562413.91448    132790.57262
  20984525.0464  -20207133.40147 -15007125.40861
 91  5  1  1  9 59.9950000  0  4G 2G 6G13G12
  21553038.5154    2360542.98546   2509357.22961
  20942976.4604    -752757.04146   3695621.14961
  19313677.8514  -16556777.23148    137182.78662
  20974166.3354  -20261564.80547 -15049539.45561
 91  5  1  1 10 14.9950000  0  4G 2G 6G13G12
  21556618.0774    2379366.49646   2524024.84561
  20949401.6484    -718986.84546   3721935.53761
  19314767.1244  -16551057.08748    141640.03562
  20963824.4834  -20315915.55347 -15091890.65061
 91  5  1  1 10 29.9950000  0  4G 2G 6G13G12
  21560214.1404    2398253.13246   2538741.65961
  20955846.5774    -685111.54746   3748331.81061
  19315870.6244  -16545248.37048    146166.29662
  20953497.5304  -20370179.79447 -15134174.43861
 91  5  1  1 10 44.9950000  0  4G 2G 6G13G12
  21563818.8744    2417202.27646   2553507.20061
  20962314.2884    -651132.23846   3774809.13661
  19316993.1014  -16539352.14048    150760.74762
  20943184.7574  -20424357.91147 -15176391.12261
 91  5  1  1 10 59.9950000  0  4G 2G 6G13G12
  21567437.1014    2436210.86446   2568319.04761
  20968799.7654    -617052.21046   3801364.93661
  19318132.6874  -16533371.76348    155420.77262
  20932888.9444  -20478452.49247 -15218542.72361
 91  5  1  1 11 14.9950000  0  4G 2G 6G13G12
  21571064.2654    2455279.62146   2583177.77361
  20975303.7334    -582870.98746   3827999.59361
  19319286.2264  -16527306.96848    160146.57862
  20922613.3584  -20532462.56547 -15260628.47161
 91  5  1  1 11 29.9950000  0  4G 2G 6G13G12
  21574704.6714    2474408.97146   2598083.71561
  20981829.0304    -548588.38446   3854713.25861
  19320455.9374  -16521157.29748    164938.52262
  20912350.1324  -20586387.21447 -15302647.65061
 91  5  1  1 11 44.9950000  0  4G 2G 6G13G12
  21578353.9524    2493597.67646   2613035.89361
  20988370.3824    -514206.05646   3881504.62861
  19321643.0694  -16514924.31548    169795.38462
  20902105.3274  -20640227.46647 -15344601.05461
 91  5  1  1 11 59.9950000  0  4G 2G 6G13G12
  21582019.1714    2512845.25346   2628033.93961
  20994928.4294    -479724.63146   3908373.19961
  19322845.3664  -16508608.84048    174716.52662
  20891879.1244  -20693983.20647 -15386488.59461
 91  5  1  1 12 14.9950000  0  4G 2G 6G13G12
  21585693.3124    2532151.38446   2643077.61161
  21001512.1874    -445144.68246   3935318.54561
  19324063.1554  -16502211.53248    179701.43662
  20881668.1404  -20747654.37247 -15428310.23561
 91  5  1  1 12 29.9950000  0  4G 2G 6G13G12
  21589378.8044    2551516.25146   2658167.05261
  21008113.1324    -410466.54146   3962340.42161
  19325294.7184  -16495732.57248    184749.96962
  20871467.2104  -20801240.64747 -15470065.73661
 91  5  1  1 12 44.9950000  0  4G 2G 6G13G12
  21593076.9444    2570942.68646   2673304.47261
  21014732.1484    -375687.55646   3989440.88261
  19326543.6634  -16489169.41348    189864.11562
  20861290.3124  -20854738.80547 -15511752.58161
 91  5  1  1 12 59.9950000  0  4G 2G 6G13G12
  21596783.1014    2590427.77746   2688487.60161
  21021367.7494    -340810.87746   4016617.46961
  19327806.8584  -16482525.13848    195041.46262
  20851125.0624  -20908151.38147 -15553372.73861
 91  5  1  1 13 14.9950000  0  4G 2G 6G13G12
  21600502.8514    2609975.46746   2703719.50061
  21028024.0304    -305832.77146   4043873.08561
  19329088.3984  -16475796.04148    200284.90762
  20840976.6874  -20961473.99447 -15594922.78461
 91  5  1  1 13 29.9950000  0  4G 2G 6G13G12
  21604235.5774    2629583.30746   2718998.29761
  21034696.5304    -270756.16046   4071205.44661
  19330383.5934  -16468984.88748    205592.30062
  20830848.3744  -21014708.78947 -15636404.39561
 91  5  1  1 13 44.9950000  0  4G 2G 6G13G12
  21607979.8744    2649249.58346   2734322.60961
  21041391.3744    -235582.97146   4098613.06561
  19331697.0464  -16462093.70448    210962.04562
  20820730.0154  -21067857.00947 -15677818.54761
 91  5  1  1 13 59.9950000  0  4G 2G 6G13G12
  21611731.3194    2668974.63446   2749692.72361
  21048103.4684    -200313.05846   4126096.04761
  19333023.4134  -16455122.34448    216394.26562
  20810631.2264  -21120917.88247 -15719164.63761
 91  5  1  1 14 14.9950000  0  4G 2G 6G13G12
  21615495.8514    2688758.71146   2765108.83761
  21054832.5304    -164946.62346   4153654.24361
  19334363.7734  -16448071.02048    221888.79762
  20800553.4374  -21173890.95247 -15760442.31961
 91  5  1  1 14 29.9950000  0  4G 2G 6G13G12
  21619270.7264    2708601.96046   2780571.05661
  21061583.4764    -129483.75946   4181287.56461
  19335722.0854  -16440939.77648    227445.59862
  20790490.5234  -21226775.71847 -15801651.19361
 91  5  1  1 14 44.9950000  0  4G 2G 6G13G12
  21623058.5694    2728508.35946   2796082.47861
  21068349.8824     -93920.79746   4208998.88361
  19337095.6554  -16433725.01348    233067.48662
  20780445.0854  -21279567.83847 -15842787.87261
 91  5  1  1 14 59.9950000  0  4G 2G 6G13G12
  21626859.4214    2748471.76546   2811638.32361
  21075135.3354     -58264.27346   4236783.10561
  19338482.1484  -16426433.17448    238749.42562
  20770418.6164  -21332273.07747 -15883856.84761
 91  5  1  1 15 14.9950000  0  4G 2G 6G13G12
  21630669.0154    2768497.47346   2827242.70661
  21081938.9914     -22508.96646   4264644.31861
  19339886.5464  -16419059.10048    244495.44562
  20760404.8514  -21384885.70147 -15924853.65161
 91  5  1  1 15 29.9950000  0  4G 2G 6G13G12
  21634492.2574    2788582.96946   2842893.68161
  21088760.8744      13342.22346   4292580.24361
  19341304.6244  -16411605.53748    250303.40662
  20750410.2654  -21437407.82447 -15965779.94161
 91  5  1  1 15 44.9950000  0  4G 2G 6G13G12
  21638326.0304    2808727.38346   2858590.58161
  21095601.0304      49288.30946   4320590.12161
  19342736.4914  -16404073.40648    256172.58862
  20740432.3124  -21489839.89847 -16006636.06261
 91  5  1  1 15 59.9950000  0  4G 2G 6G13G12
  21642170.9374    2828933.16546   2874335.29161
  21102457.5074      85331.23646   4348675.45661
  19344185.7964  -16396460.85848    262104.42762
  20730471.7574  -21542179.12047 -16047419.82061
 91  5  1  1 16 14.9950000  0  4G 2G 6G13G12
  21646028.8664    2849199.64746   2890127.30161
  21109336.8434     121470.15246   4376835.58161
  19345648.6714  -16388769.14148    268097.96162
  20720528.5854  -21594425.99547 -16088131.63161
 91  5  1  1 16 29.9950000  0  4G 2G 6G13G12
  21649895.5074    2869527.05046   2905966.79161
  21116230.1244     157704.82946   4405070.31461
  19347128.5154  -16380998.07048    274153.32662
  20710600.0544  -21646579.88247 -16128770.99161
 91  5  1  1 16 44.9950000  0  4G 2G 6G13G12
  21653775.3904    2889914.40946   2921853.00261
  21123142.5934     194034.20346   4433378.84361
  19348623.0074  -16373148.82548    280269.60762
  20700694.3124  -21698641.31847 -16169338.31561
 91  5  1  1 16 59.9950000  0  4G 2G 6G13G12
  21657667.5934    2910364.19646   2937787.84361
  21130075.0544     230460.18846   4461762.65561
  19350132.5154  -16365219.35148    286448.40962
  20690805.1794  -21750607.61847 -16209831.51462
 91  5  1  1 17 14.9950000  0  4G 2G 6G13G12
  21661569.5234    2930873.27946   2953768.89761
  21137026.7334     266979.55846   4490219.23461
  19351655.3664  -16357212.87248    292687.20862
  20680938.9444  -21802481.46847 -16250252.65961
 91  5  1  1 17 29.9950000  0  4G 2G 6G13G12
  21665483.1554    2951443.68246   2969797.72061
  21143993.0234     303594.03346   4518749.92361
  19353193.3434  -16349127.57848    298987.42762
  20671086.3434  -21854260.46847 -16290599.88561
 91  5  1  1 17 44.9950000  0  4G 2G 6G13G12
  21669408.6324    2972074.39546   2985873.53261
  21150978.8744     340302.12846   4547353.55861
  19354747.8434  -16340965.06648    305347.81362
  20661251.6014  -21905945.28447 -16330873.72161
 91  5  1  1 17 59.9950000  0  4G 2G 6G13G12
  21673345.9214    2992765.32246   3001996.26361
  21157982.1244     377103.85346   4576030.14661
  19356314.3584  -16332725.37948    311768.33562
  20651434.4444  -21957535.37847 -16371073.74861
 91  5  1  1 18 14.9950000  0  4G 2G 6G13G12
  21677297.5624    3013516.27246   3018165.77661
  21165003.8984     413998.47846   4604779.12761
  19357895.6554  -16324409.00548    318248.61662
  20641631.6084  -22009030.87447 -16411200.07461
 91  5  1  1 18 29.9950000  0  4G 2G 6G13G12
  21681257.8124    3034326.87046   3034381.76361
  21172041.9914     450985.35446   4633599.98261
  19359493.7264  -16316016.70448    324788.06162
  20631847.8354  -22060431.71847 -16451252.66062
 91  5  1  1 18 44.9950000  0  4G 2G 6G13G12
  21685227.9604    3055196.04146   3050643.37461
  21179098.6014     488063.11346   4662491.65461
  19361105.4214  -16307549.75948    331385.67262
  20622087.2024  -22111738.50747 -16491231.95662
 91  5  1  1 18 59.9950000  0  4G 2G 6G13G12
  21689210.7334    3076127.57046   3066953.58161
  21186172.4914     525235.19646   4691456.82461
  19362729.3584  -16299004.87248    338044.01462
  20612342.8744  -22162947.17747 -16531134.78962
 91  5  1  1 19 14.9950000  0  4G 2G 6G13G12
  21693207.4834    3097119.53046   3083310.88561
  21193262.6944     562499.38346   4720493.76861
  19364370.7884  -16290384.03347    344761.54262
  20602616.2184  -22214059.30247 -16570962.38962
 91  5  1  1 19 29.9950000  0  4G 2G 6G13G12
  21697212.4134    3118173.99146   3099716.88861
  21200373.1484     599857.40346   4749603.83161
  19366025.5544  -16281685.41247    351539.67862
  20592908.5464  -22265072.32847 -16610712.77062
 91  5  1  1 19 44.9950000  0  4G 2G 6G13G12
  21701231.1554    3139289.06146   3116170.11361
  21207500.1714     637307.23646   4778785.43461
  19367694.3194  -16272911.44847    358376.52262
  20583217.3434  -22315987.76047 -16650387.10861
 91  5  1  1 19 59.9950000  0  4G 2G 6G13G12
  21705260.3044    3160462.49246   3132668.81261
  21214642.6084     674846.24346   4808036.53261
  19369379.8904  -16264064.37747    365270.33562
  20573546.8354  -22366807.55047 -16689986.92561
 91  5  1  1 20 14.9950000  0  4G 2G 6G13G12
  21709300.7734    3181695.70946   3149214.09861
  21221804.7184     712475.51146   4837357.96061
  19371074.4604  -16255143.26847    372221.84462
  20563897.1714  -22417530.02047 -16729510.90761
 91  5  1  1 20 29.9950000  0  4G 2G 6G13G12
  21713350.5854    3202988.93246   3165806.14361
  21228981.5694     750195.02946   4866749.70361
  19372788.7734  -16246148.03047    379231.11162
  20554262.9214  -22468154.44247 -16768958.47461
 91  5  1  1 20 44.9950000  0  4G 2G 6G13G12
  21717416.5774    3224342.39546   3182445.12561
  21236175.2104     788004.50346   4896211.54761
  19374514.0074  -16237079.04948    386297.83662
  20544649.0074  -22518680.46247 -16808329.36261
 91  5  1  1 20 59.9950000  0  4G 2G 6G13G12
  21721492.1554    3245755.46446   3199130.58061
  21243387.6634     825903.18046   4925742.90561
  19376255.2734  -16227936.88748    393421.58962
  20535053.9684  -22569108.12847 -16847623.61062
 91  5  1  1 21 14.9950000  0  4G 2G 6G13G12
  21725576.0234    3267227.77746   3215862.21161
  21250615.1404     863890.45946   4955343.30461
  19378008.6944  -16218722.11448    400601.92262
  20525474.5624  -22619437.21947 -16886841.05762
 91  5  1  1 21 29.9950000  0  4G 2G 6G13G12
  21729673.8044    3288761.71346   3232641.83461
  21257861.4054     901968.40346   4985014.36361
  19379776.5774  -16209432.78948    407840.34662
  20515915.3664  -22669665.15547 -16925979.69762
 91  5  1  1 21 44.9950000  0  4G 2G 6G13G12
  21733782.4134    3310356.91946   3249469.21861
  21265125.2494     940136.29746   5014755.50661
  19381557.0774  -16200069.42248    415136.46462
  20506377.8044  -22719791.98547 -16965039.55562
 91  5  1  1 21 59.9950000  0  4G 2G 6G13G12
  21737904.2024    3332011.35046   3266342.72161
  21272403.0464     978391.76445   5044564.88361
  19383354.0074  -16190634.45448    422488.37862
  20496859.0854  -22769819.35447 -17004021.90862
 91  5  1  1 22 14.9950000  0  4G 2G 6G13G12
  21742035.9134    3353726.67846   3283263.71061
  21279698.8044    1016736.33645   5074443.67561
  19385162.6484  -16181126.43948    429897.21362
  20487359.2334  -22819745.28947 -17042925.21062
 91  5  1  1 22 29.9950000  0  4G 2G 6G13G12
  21746179.9214    3375503.87245   3300232.87661
  21287013.2184    1055170.62745   5104392.37061
  19386984.6554  -16171544.81148    437363.40762
  20477879.9374  -22869568.36948 -17081748.35162
 91  5  1  1 22 44.9950000  0  4G 2G 6G13G12
  21750337.1554    3397341.09645   3317248.82561
  21294346.7024    1093692.43646   5134409.25761
  19388822.1794  -16161891.62648    444885.35462
  20468417.5074  -22919290.07048 -17120492.48962
 91  5  1  1 22 59.9950000  0  4G 2G 6G13G12
  21754503.3434    3419238.37545   3334311.57961
  21301694.3514    1132301.39046   5164494.05961
  19390672.8124  -16152167.08348    452462.91162
  20458975.9914  -22968910.04047 -17159157.36562
 91  5  1  1 23 14.9950000  0  4G 2G 6G13G12
  21758682.7884    3441196.53646   3351421.75961
  21309057.3744    1170998.18146   5194647.31161
  19392536.0934  -16142370.53148    460096.58662
  20449552.2264  -23018426.92947 -17197741.93062
 91  5  1  1 23 29.9950000  0  4G 2G 6G13G12
  21762872.5854    3463216.01846   3368579.74361
  21316439.2804    1209782.84746   5224869.04461
  19394415.1484  -16132501.81748    467786.48762
  20440147.5774  -23067840.00847 -17236245.61162
 91  5  1  1 23 44.9950000  0  4G 2G 6G13G12
  21767075.6484    3485296.19946   3385785.01661
  21323836.7884    1248654.64046   5255158.66761
  19396305.4214  -16122561.90248    475531.86862
  20430766.6324  -23117149.53047 -17274668.60262
 91  5  1  1 23 59.9950000  0  4G 2G 6G13G12
  21771288.3194    3507432.50146   3403034.02261
  21331249.0154    1287608.52746   5285512.27661
  19398210.8274  -16112555.43748    483329.10462
  20421401.8274  -23166359.73647 -17313014.18862
 91  5  1  1 24 14.9950000  0  4G 2G 6G13G12
  21775509.0154    3529614.59346   3420318.71161
  21338674.0074    1326633.89146   5315921.56061
  19400126.3984  -16102493.18548    491169.81462
  20412053.9374  -23215480.62447 -17351290.16962
 91  5  1  1 24 29.9950000  0  4G 2G 6G13G12
  21779742.3584    3551860.21046   3437652.89961
  21346116.7334    1365748.26246   5346400.19861
  19402054.9684  -16092357.50348    499067.74562
  20402724.5544  -23264493.99647 -17389482.36762
 91  5  1  1 24 44.9950000  0  4G 2G 6G13G12
  21783985.6244    3574168.70645   3455036.07761
  21353577.3274    1404950.43246   5376947.25161
  19403996.2024  -16082149.43948    507022.07762
  20393419.5854  -23313400.16347 -17427591.03762
 91  5  1  1 24 59.9950000  0  4G 2G 6G13G12
  21788244.1554    3596540.04645   3472468.21561
  21361054.7494    1444240.45646   5407562.76461
  19405952.6944  -16071869.12148    515032.70562
  20384129.9374  -23362198.77847 -17465615.91362
 91  5  1  1 25 14.9950000  0  4G 2G 6G13G12
  21792513.0624    3618974.78945   3489949.74961
  21368548.1404    1483618.41046   5438246.78161
  19407923.9444  -16061516.39348    523099.76562
  20374866.0934  -23410889.00747 -17503556.32562
 91  5  1  1 25 29.9950000  0  4G 2G 6G13G12
  21796794.0154    3641470.83445   3507479.07661
  21376056.3584    1523081.69646   5468997.29761
  19409905.5624  -16051093.83548    531221.23162
  20365622.6634  -23459472.50347 -17541413.57062
 91  5  1  1 25 44.9950000  0  4G 2G 6G13G12
  21801087.1794    3664028.99145   3525056.80461
  21383583.1084    1562631.00246   5499814.83461
  19411902.0234  -16040600.79548    539397.61962
  20356396.5154  -23507948.21147 -17579186.82062
 91  5  1  1 25 59.9950000  0  4G 2G 6G13G12
  21805389.9374    3686641.64345   3542676.97161
  21391123.9294    1602258.45646   5530693.28061
  19413912.1484  -16030045.01348    547622.89662
  20347189.9764  -23556323.23547 -17616881.62262
 91  5  1  1 26 14.9950000  0  4G 2G 6G13G12
  21809706.9834    3709314.08045   3560343.75261
  21398681.8354    1641968.93246   5561636.41461
  19415934.0694  -16019421.67748    555900.81462
  20338004.5774  -23604591.93447 -17654493.56862
 91  5  1  1 26 29.9950000  0  4G 2G 6G13G12
  21814027.9604    3732045.36845   3578056.37661
  21406253.1554    1681761.47845   5592643.50761
  19417969.0464  -16008731.52348    564230.79362
  20328839.3904  -23652754.68647 -17692022.96062
 91  5  1  1 26 44.9950000  0  4G 2G 6G13G12
  21818366.4764    3754838.44445   3595817.13361
  21413839.8984    1721638.56045   5623716.46461
  19420017.9684  -15997972.21648    572614.66262
  20319696.4134  -23700808.39247 -17729467.38562
 91  5  1  1 26 59.9950000  0  4G 2G 6G13G12
  21822716.0934    3777691.90245   3613624.95661
  21421445.4834    1761598.42045   5654853.91261
  19422076.4444  -15987145.48848    581051.06462
  20310574.6484  -23748754.08148 -17766827.62962
 91  5  1  1 27 14.9950000  0  4G 2G 6G13G12
  21827073.0854    3800604.96145   3631479.22261
  21429065.6944    1801639.87845   5686054.95561
  19424149.2804  -15976252.40048    589539.17662
  20301470.6484  -23796592.16548 -17804104.02062
 91  5  1  1 27 29.9950000  0  4G 2G 6G13G12
  21831444.5464    3823578.32445   3649380.47361
  21436701.4834    1841763.43446   5717319.96361
  19426234.8124  -15965292.52048    598079.33262
  20292386.4524  -23844321.63247 -17841295.78262
 91  5  1  1 27 44.9950000  0  4G 2G 6G13G12
  21835830.9444    3846612.00745   3667328.75161
  21444353.0384    1881968.72946   5748648.66861
  19428333.1944  -15954266.03748    606671.39362
  20283324.6014  -23891941.96847 -17878402.51262
 91  5  1  1 27 59.9950000  0  4G 2G 6G13G12
  21840227.5234    3869708.27445   3685325.80961
  21452020.4374    1922257.78546   5780042.64761
  19430444.1324  -15943170.70748    615317.09862
  20274283.0854  -23939450.55947 -17915422.17962
 91  5  1  1 28 14.9950000  0  4G 2G 6G13G12
  21844628.4684    3892861.74345   3703367.42061
  21459700.4444    1962624.94146   5811497.47561
  19432567.4444  -15932012.04548    624012.15162
  20265263.4604  -23986852.37747 -17952358.63962
 91  5  1  1 28 29.9950000  0  4G 2G 6G13G12
  21849048.5624    3916077.31745   3721457.43561
  21467397.2734    2003074.87145   5843016.80861
  19434704.2734  -15920785.71348    632759.93062
  20256265.5154  -24034142.32647 -17989207.91962
 91  5  1  1 28 44.9950000  0  4G 2G 6G13G12
  21853478.0544    3939350.63045   3739592.43361
  21475107.9524    2043602.79645   5874596.89861
  19436851.7964  -15909496.23048    641556.92462
  20247286.7574  -24081324.31647 -18025973.06862
 91  5  1  1 28 59.9950000  0  4G 2G 6G13G12
  21857917.7104    3962680.66545   3757771.60761
  21482835.4914    2084207.31645   5906236.68361
  19439009.4524  -15898145.00948    650402.02962
  20238327.3904  -24128399.01747 -18062654.61462
 91  5  1  1 29 14.9950000  0  4G 2G 6G13G12
  21862368.4604    3986070.58046   3775997.45061
  21490578.7264    2124891.33945   5937938.42261
  19441183.9524  -15886729.20348    659297.45562
  20229391.2884  -24175362.89247 -18099249.81762
 91  5  1  1 29 29.9950000  0  4G 2G 6G13G12
  21866830.8664    4009521.19446   3794270.60361
  21498336.7334    2165655.54045   5969702.63661
  19443369.9684  -15875247.81748    668243.98462
  20220475.4604  -24222214.58647 -18135757.60662
 91  5  1  1 29 44.9950000  0  4G 2G 6G13G12
  21871308.8664    4033035.33846   3812593.23961
  21506109.2264    2206502.40245   6001531.25461
  19445567.0624  -15863698.47548    677243.47662
  20211584.7574  -24268950.90547 -18172175.48962
 91  5  1  1 29 59.9950000  0  4G 2G 6G13G12
  21875791.9294    4056606.59446   3830960.39161
  21513896.5464    2247425.13145   6033418.98161
  19447777.3664  -15852087.94248    686290.64162
  20202710.3434  -24315578.05947 -18208508.30762
 91  5  1  1 30 14.9950000  0  4G 2G 6G13G12
  21880287.3514    4080236.95946   3849373.60461
  21521698.7884    2288425.48345   6065367.18761
  19449998.1944  -15840414.44748    695386.87162
  20193859.7804  -24362093.60648 -18244754.15762
 91  5  1  1 30 29.9950000  0  4G 2G 6G13G12
  21884797.8194    4103928.71946   3867834.65761
  21529516.3584    2329505.27345   6097377.30961
  19452232.3044  -15828675.99048    704533.71562
  20185029.8124  -24408494.93648 -18280911.01062
 91  5  1  1 30 44.9950000  0  4G 2G 6G13G12
  21889315.8744    4127681.21246   3886343.04261
  21537347.4764    2370663.78545   6129448.76961
  19454478.4214  -15816873.27248    713730.63762
  20176220.7184  -24454782.30247 -18316979.06162
 91  5  1  1 30 59.9950000  0  4G 2G 6G13G12
  21893848.0304    4151494.61246   3904898.87861
  21545194.4994    2411900.94245   6161581.51561
  19456736.0234  -15805006.35648    722977.57862
  20167432.7884  -24500954.96947 -18352957.74162
 91  5  1  1 31 14.9950000  0  4G 2G 6G13G12
  21898393.2104    4175366.40145   3923500.22561
  21553057.0304    2453213.68545   6193773.16861
  19459004.5774  -15793078.03648    732272.37062
  20158667.9444  -24547015.27247 -18388848.85562
 91  5  1  1 31 29.9950000  0  4G 2G 6G13G12
  21902945.8434    4199297.91945   3942148.12361
  21560932.1244    2494603.26845   6226024.69261
  19461287.1874  -15781087.11048    741615.93862
  20149923.0624  -24592961.33847 -18424650.96162
 91  5  1  1 31 44.9950000  0  4G 2G 6G13G12
  21907508.8514    4223286.42145   3960840.41961
  21568823.0774    2536066.46145   6258333.57561
  19463581.0384  -15769036.76148    751005.81462
  20141203.9764  -24638795.69447 -18460366.01162
 91  5  1  1 31 59.9950000  0  4G 2G 6G13G12
  21912085.4764    4247336.78745   3979580.93061
  21576728.0774    2577607.88845   6290703.41361
  19465886.6324  -15756922.72848    760445.31062
  20132501.2494  -24684513.09347 -18495989.93262
 91  5  1  1 32 14.9940000  0  4G 2G 6G13G12
  21916672.9324    4271445.38445   3998366.81961
  21584648.0494    2619222.45645   6323130.24961
  19468204.7134  -15744747.74948    769932.29562
  20123826.9554  -24730112.05447 -18531521.56862
 91  5  1  1 32 29.9940000  0  4G 2G 6G13G12
  21921269.9084    4295612.52645   4017198.31361
  21592581.7294    2660912.51245   6355615.90361
  19470531.8304  -15732513.43448    779465.52262
  20115166.1354  -24775601.32447 -18566967.73162
 91  5  1  1 32 44.9940000  0  4G 2G 6G13G12
  21925881.8154    4319840.66845   4036077.34261
  21600529.8774    2702678.93545   6388161.07861
  19472870.7524  -15720216.64248    789047.42662
  20106535.5884  -24820973.43447 -18602322.60662
 91  5  1  1 32 59.9940000  0  4G 2G 6G13G12
  21930506.1504    4344126.32945   4055001.17661
  21608490.1504    2744518.05045   6420762.89161
  19475223.0414  -15707861.13248    798675.08662
  20097921.1824  -24866231.46347 -18637588.58362
 91  5  1  1 33 14.9940000  0  4G 2G 6G13G12
  21935138.5654    4368472.79245   4073972.39761
  21616465.9244    2786432.83945   6453423.66861
  19477584.3464  -15695443.88748    808350.85262
  20089329.8694  -24911371.77547 -18672762.83962
 91  5  1  1 33 29.9940000  0  4G 2G 6G13G12
  21939784.1664    4392878.62345   4092989.86461
  21624457.2524    2828421.58745   6486142.06661
  19479959.6194  -15682966.47248    818073.50762
  20080764.8224  -24956395.38347 -18707846.15662
 91  5  1  1 33 44.9940000  0  4G 2G 6G13G12
  21944441.3774    4417344.37846   4112054.01561
  21632461.2914    2870484.41845   6518918.20061
  19482345.0574  -15670428.56048    827843.30162
  20072219.9244  -25001301.50547 -18742837.90762
 91  5  1  1 33 59.9940000  0  4G 2G 6G13G12
  21949107.1664    4441870.22846   4131164.98961
  21640479.4404    2912621.31745   6551752.03261
  19484742.4864  -15657830.16848    837660.22462
  20063698.2214  -25046089.37848 -18777737.51862
 91  5  1  1 34 14.9940000  0  4G 2G 6G13G12
  21953784.5024    4466455.58846   4150322.35761
  21648512.2604    2954831.36645   6584642.87261
  19487151.6584  -15645172.22048    847523.55162
  20055199.5574  -25090759.33348 -18812545.24762
 91  5  1  1 34 29.9940000  0  4G 2G 6G13G12
  21958475.2994    4491100.70946   4169526.28761
  21656559.6044    2997114.55045   6617590.69961
  19489570.6904  -15632454.80848    857433.21462
  20046718.8544  -25135310.63147 -18847260.51762
 91  5  1  1 34 44.9940000  0  4G 2G 6G13G12
  21963173.2054    4515792.14246   4188766.29061
  21664617.4164    3039457.05045   6650584.74461
  19492000.1274  -15619691.52448    867378.62862
  20038261.3224  -25179756.46547 -18881893.61662
 91  5  1  1 34 59.9940000  0  4G 2G 6G13G12
  21967883.2444    4540536.29546   4208047.39061
  21672688.6584    3081865.04745   6683629.82861
  19494438.4164  -15606876.19748    877364.58462
  20029822.5884  -25224090.06447 -18916439.26462
 91  5  1  1 35 14.9940000  0  4G 2G 6G13G12
  21972603.1194    4565343.05046   4227377.26161
  21680771.6044    3124348.08245   6716733.36761
  19496890.2444  -15593999.30348    887398.52362
  20021411.0574  -25268301.12947 -18950889.43862
 91  5  1  1 35 29.9940000  0  4G 2G 6G13G12
  21977333.7214    4590211.54946   4246755.25061
  21688871.1584    3166905.17045   6749894.61261
  19499350.8154  -15581061.69548    897479.76262
  20013020.7214  -25312390.10047 -18985244.46862
 91  5  1  1 35 44.9940000  0  4G 2G 6G13G12
  21982077.9084    4615141.13546   4266180.83061
  21696982.7914    3209535.19845   6783112.70161
  19501825.7994  -15568064.27048    907607.61462
  20004654.1904  -25356357.22147 -19019504.54962
 91  5  1  1 35 59.9940000  0  4G 2G 6G13G12
  21986833.7054    4640129.22046   4285652.00761
  21705110.0884    3252235.24046   6816385.31261
  19504308.9404  -15555009.79348    917779.92162
  19996310.1504  -25400204.86347 -19053671.53462
 91  5  1  1 36 14.9940000  0  4G 2G 6G13G12
  21991598.9324    4665177.67946   4305170.20761
  21713248.9944    3295006.88045   6849713.73761
  19506805.4474  -15541896.87348    927997.76562
  19987990.3854  -25443930.89347 -19087743.74662
 91  5  1  1 36 29.9940000  0  4G 2G 6G13G12
  21996376.2994    4690284.79646   4324734.13961
  21721400.1434    3337848.17445   6883096.45161
  19509311.2604  -15528727.50148    938259.59962
  19979692.1504  -25487536.48447 -19121722.11462
 91  5  1  1 36 44.9940000  0  4G 2G 6G13G12
  22001165.8224    4715452.82445   4344345.56061
  21729564.5804    3380761.07145   6916534.94861
  19511827.5884  -15515499.45048    948567.16362
  19971420.7444  -25531018.98848 -19155604.56462
 91  5  1  1 36 59.9940000  0  4G 2G 6G13G12
  22005966.5254    4740681.61245   4364004.28361
  21737745.3304    3423745.05145   6950028.85361
  19514357.2834  -15502213.09048    958920.15562
  19963169.8694  -25574378.26348 -19189390.99262
 91  5  1  1 37 14.9940000  0  4G 2G 6G13G12
  22010777.7914    4765969.42545   4383709.03061
  21745939.7914    3466798.12645   6983576.59361
  19516895.3464  -15488870.29848    969317.12862
  19954940.7754  -25617615.63248 -19223082.42962
 91  5  1  1 37 29.9940000  0  4G 2G 6G13G12
  22015601.6744    4791317.20345   4403460.50461
  21754144.8464    3509920.97845   7017178.71061
  19519445.3854  -15475470.65048    979758.39862
  19946736.8224  -25660729.66947 -19256677.76862
 91  5  1  1 37 44.9940000  0  4G 2G 6G13G12
  22020436.5494    4816727.22845   4423260.48061
  21762365.0574    3553115.48945   7050836.63961
  19522006.6584  -15462011.98348    990245.66062
  19938556.2214  -25703717.91947 -19290175.10162
 91  5  1  1 37 59.9940000  0  4G 2G 6G13G12
  22025286.2994    4842197.09345   4443107.08661
  21770598.5804    3596379.02045   7084548.35961
  19524577.5654  -15448496.82548   1000776.93362
  19930395.8614  -25746582.27147 -19323575.89262
 91  5  1  1 38 14.9940000  0  4G 2G 6G13G12
  22030144.0884    4867726.38645   4462999.99461
  21778842.4404    3639710.95045   7118313.37561
  19527160.3934  -15434925.76548   1011351.77662
  19922262.5414  -25789322.76247 -19356880.15662
 91  5  1  1 38 29.9940000  0  4G 2G 6G13G12
  22035013.2524    4893315.11245   4482939.20361
  21787100.6584    3683110.79845   7152131.31361
  19529754.0414  -15421299.07948   1021969.96262
  19914154.2134  -25831939.10947 -19390087.66962
 91  5  1  1 38 44.9940000  0  4G 2G 6G13G12
  22039893.5884    4918960.44646   4502922.52061
  21795371.7524    3726575.47945   7185999.77361
  19532355.7524  -15407619.84948   1032629.08762
  19906070.5724  -25874433.99348 -19423200.53662
 91  5  1  1 38 59.9940000  0  4G 2G 6G13G12
  22044785.3774    4944660.94346   4522948.82261
  21803653.1584    3770103.23845   7219917.37361
  19534970.2294  -15393889.84948   1043327.77762
  19898005.8614  -25916808.36247 -19456219.49862
 91  5  1  1 39 14.9940000  0  4G 2G 6G13G12
  22049686.5724    4970422.03946   4543022.36561
  21811948.8304    3813699.18345   7253888.10661
  19537592.1194  -15380103.66948   1054070.25162
  19889962.8384  -25959056.41947 -19489140.04862
 91  5  1  1 39 29.9940000  0  4G 2G 6G13G12
  22054600.3694    4996248.68146   4563146.98661
  21820259.6744    3857367.92345   7287915.59361
  19540225.9474  -15366256.66348   1064860.11862
  19881948.9864  -26001172.97947 -19521958.14563
 91  5  1  1 39 44.9940000  0  4G 2G 6G13G12
  22059527.2914    5022138.43946   4583320.75861
  21828582.1904    3901106.90045   7321997.77361
  19542872.3464  -15352351.45048   1075695.33662
  19873957.8854  -26043159.75947 -19554675.11962
 91  5  1  1 39 59.9940000  0  4G 2G 6G13G12
  22064465.0494    5048085.43446   4603539.15361
  21836919.8544    3944909.89445   7356129.82661
  19545528.9084  -15338394.21148   1086571.09962
  19865996.0964  -26085022.37648 -19587295.33262
 91  5  1  1 40 14.9940000  0  4G 2G 6G13G12
  22069413.5024    5074090.18245   4623802.51661
  21845267.9004    3988777.15545   7390311.96661
  19548194.1194  -15324384.56748   1097487.69962
  19858051.5334  -26126759.93748 -19619818.07862
 91  5  1  1 40 29.9940000  0  4G 2G 6G13G12
  22074374.0804    5100155.62845   4644113.16861
  21853625.7134    4032711.35644   7424546.27461
  19550870.9244  -15310319.67448   1108447.35162
  19850137.1044  -26168369.10448 -19652240.77162
 91  5  1  1 40 44.9940000  0  4G 2G 6G13G12
  22079343.1664    5126280.64145   4664470.26061
  21861998.5104    4076710.85444   7458831.47461
  19553558.1044  -15296201.14148   1119448.79662
  19842240.6904  -26209850.80248 -19684564.13562
 91  5  1  1 40 59.9940000  0  4G 2G 6G13G12
  22084328.7054    5152467.27845   4684875.36261
  21870385.2134    4120777.49745   7493168.99861
  19556254.5964  -15282027.00648   1130493.57362
  19834373.5024  -26251202.53648 -19716786.24062
 91  5  1  1 41 14.9940000  0  4G 2G 6G13G12
  22089320.7054    5178710.20245   4705324.31661
  21878784.4244    4164905.75445   7527554.53661
  19558961.4084  -15267802.90348   1141577.28462
  19826523.6584  -26292429.17247 -19748910.88362
 91  5  1  1 41 29.9940000  0  4G 2G 6G13G12
  22094326.6274    5205011.66945   4725818.91361
  21887190.9164    4209097.56045   7561989.58261
  19561678.4244  -15253526.78648   1152701.52862
  19818703.9714  -26333528.08347 -19780936.01263
 91  5  1  1 41 44.9940000  0  4G 2G 6G13G12
  22099342.7914    5231369.37545   4746357.33161
  21895612.4164    4253350.38945   7596472.17761
  19564404.6584  -15239200.93048   1163864.52562
  19810909.8304  -26374501.15048 -19812863.07663
 91  5  1  1 41 59.9940000  0  4G 2G 6G13G12
  22104370.9554    5257783.84645   4766939.97661
  21904047.6904    4297664.48545   7631002.48461
  19567138.9554  -15224824.90148   1175066.61462
  19803136.0024  -26415347.62348 -19844691.47762
 91  5  1  1 42 14.9940000  0  4G 2G 6G13G12
  22109410.5494    5284256.73845   4787568.16761
  21912492.4004    4342041.13645   7665581.56861
  19569886.9404  -15210397.49548   1186308.74162
  19795390.3154  -26456065.40748 -19876419.59062
 91  5  1  1 42 29.9940000  0  4G 2G 6G13G12
  22114458.6274    5310791.82345   4808244.81861
  21920950.9244    4386483.80245   7700212.09161
  19572641.8464  -15195915.19148   1197593.64862
  19787664.8614  -26496650.45748 -19908044.27762
 91  5  1  1 42 44.9940000  0  4G 2G 6G13G12
  22119515.2524    5337383.70945   4828965.70161
  21929420.6504    4430986.51545   7734889.40461
  19575407.3464  -15181383.66648   1208916.90262
  19779965.7364  -26537108.04247 -19939569.64062
 91  5  1  1 42 59.9940000  0  4G 2G 6G13G12
  22124591.5964    5364031.59845   4849730.22661
  21937893.7684    4475548.52145   7769612.92261
  19578180.6274  -15166803.62048   1220277.96162
  19772288.6044  -26577438.33247 -19970995.82262
 91  5  1  1 43 14.9940000  0  4G 2G 6G13G12
  22129671.8694    5390737.37545   4870539.86761
  21946388.0024    4520171.37745   7804383.85661
  19580965.0654  -15152173.59248   1231677.97062
  19764637.6434  -26617639.04047 -20002321.03762
 91  5  1  1 43 29.9940000  0  4G 2G 6G13G12
  22134764.5884    5417501.58045   4891395.05461
  21954890.7444    4564855.30045   7839202.33761
  19583760.2134  -15137493.12748   1243117.28462
  19757017.7604  -26657709.21747 -20033544.53962
 91  5  1  1 43 44.9940000  0  4G 2G 6G13G12
  22139864.6434    5444302.78145   4912279.02061
  21963404.1584    4609578.43745   7874051.37761
  19586558.3614  -15122784.09748   1254578.85162
  19749412.0334  -26697670.13948 -20064682.90263
 91  5  1  1 43 59.9940000  0  4G 2G 6G13G12
  22144975.5254    5471168.25745   4933213.09361
  21971930.0494    4654367.91045   7908952.12561
  19589368.4004  -15108019.28948   1266083.88862
  19741834.0964  -26737494.12247 -20095714.55363
 91  5  1  1 44 14.9940000  0  4G 2G 6G13G12
  22150098.5254    5498092.97445   4954193.32961
  21980463.5184    4699218.27045   7943900.30761
  19592188.3304  -15093203.95748   1277628.29862
  19734281.0964  -26777186.01547 -20126643.27863
 91  5  1  1 44 29.9940000  0  4G 2G 6G13G12
  22155233.1744    5525076.87644   4975219.68361
  21989007.5574    4744129.14045   7978895.64761
  19595015.9474  -15078338.36948   1289211.86462
  19726750.8854  -26816745.43947 -20157468.78763
 91  5  1  1 44 44.9940000  0  4G 2G 6G13G12
  22160381.5964    5552120.69845   4996292.73061
  21997563.6744    4789101.08345   8013938.59461
  19597856.3154  -15063421.69948   1300835.22962
  19719248.9084  -26856171.23647 -20188190.17563
 91  5  1  1 44 59.9940000  0  4G 2G 6G13G12
  22165541.2364    5579223.34545   5017411.59461
  22006133.9084    4834132.77345   8049028.08061
  19600703.4634  -15048455.33048   1312497.32262
  19711772.7134  -26895464.04747 -20218807.93563
 91  5  1  1 45 14.9940000  0  4G 2G 6G13G12
  22170707.4634    5606381.88144   5038574.06361
  22014715.3694    4879221.15845   8084161.75361
  19603559.3934  -15033442.57448   1324195.56762
  19704318.5654  -26934626.28447 -20249323.94763
 91  5  1  1 45 29.9940000  0  4G 2G 6G13G12
  22175886.5884    5633599.70244   5059782.71061
  22023307.1354    4924368.95845   8119341.73261
  19606425.6504  -15018380.24748   1335932.43162
  19696894.9084  -26973654.41048 -20279735.44762
 91  5  1  1 45 44.9940000  0  4G 2G 6G13G12
  22181076.5654    5660874.91244   5081036.07461
  22031908.4554    4969574.16845   8154566.43461
  19609301.4474  -15003270.31948   1347706.39462
  19689491.7604  -27012549.95547 -20310043.63762
 91  5  1  1 45 59.9940000  0  4G 2G 6G13G12
  22186277.2524    5688211.87544   5102337.52961
  22040523.8614    5014841.01245   8189839.15761
  19612186.5884  -14988108.45848   1359520.82862
  19682115.5724  -27051308.05047 -20340244.72762
 91  5  1  1 46 14.9940000  0  4G 2G 6G13G12
  22191488.4634    5715607.94944   5123685.07761
  22049149.3544    5060166.39545   8225157.50261
  19615079.4164  -14972897.49948   1371373.51062
  19674766.1194  -27089931.08948 -20370340.57962
 91  5  1  1 46 29.9940000  0  4G 2G 6G13G12
  22196716.1194    5743060.11744   5145076.32161
  22057785.9864    5105547.07945   8260518.93361
  19617982.7364  -14957641.04047   1383261.65262
  19667444.4084  -27128421.76748 -20400333.29063
 91  5  1  1 46 44.9940000  0  4G 2G 6G13G12
  22201951.7294    5770569.61144   5166512.24061
  22066431.4944    5150983.84545   8295924.02961
  19620894.7444  -14942337.89247   1395186.18462
  19660143.5574  -27166778.55348 -20430221.67063
 91  5  1  1 46 59.9940000  0  4G 2G 6G13G12
  22207198.3464    5798139.46644   5187995.21561
  22075087.1194    5196479.41245   8331374.94761
  19623816.5494  -14926985.16547   1407149.33962
  19652870.2914  -27204998.08348 -20460003.10263
 91  5  1  1 47 14.9940000  0  4G 2G 6G13G12
  22212451.4404    5825766.55543   5209522.76361
  22083758.1274    5242030.38945   8366869.03661
  19626746.5414  -14911586.52448   1419148.27762
  19645623.7444  -27243083.12848 -20489679.73963
 91  5  1  1 47 29.9940000  0  4G 2G 6G13G12
  22217720.2914    5853452.80943   5231096.37261
  22092436.9794    5287638.47245   8402407.62461
  19629686.3854  -14896139.82148   1431184.66562
  19638398.8384  -27281031.42447 -20519249.82663
 91  5  1  1 47 44.9940000  0  4G 2G 6G13G12
  22223002.7684    5881193.68544   5252712.59161
  22101125.0414    5333298.75145   8437986.94061
  19632633.1584  -14880649.57648   1443254.98062
  19631203.6044  -27318847.05747 -20548716.54663
 91  5  1  1 47 59.9940000  0  4G 2G 6G13G12
  22228293.9794    5908990.32544   5274372.28461
  22109824.5654    5379012.20545   8473607.65461
  19635589.6744  -14865114.96947   1455359.85662
  19624035.2054  -27356528.62948 -20578078.79462
 91  5  1  1 48 14.9940000  0  4G 2G 6G13G12
  22233589.6434    5936840.39244   5296073.57161
  22118533.1044    5424776.04945   8509267.63461
  19638552.8544  -14849538.73247   1467497.18062
  19616891.8224  -27394078.17748 -20607338.16162
 91  5  1  1 48 29.9940000  0  4G 2G 6G13G12
  22238899.2604    5964743.25144   5317815.94861
  22127251.5494    5470589.51045   8544966.28661
  19641526.8074  -14833921.60048   1479666.36962
  19609768.8694  -27431495.80848 -20636494.72362
 91  5  1  1 48 44.9940000  0  4G 2G 6G13G12
  22244220.8614    5992704.69444   5339604.05961
  22135979.4004    5516458.13845   8580707.90061
  19644507.4004  -14818257.84648   1491871.88662
  19602674.5104  -27468775.40748 -20665543.73962
 91  5  1  1 48 59.9940000  0  4G 2G 6G13G12
  22249555.8694    6020721.91344   5361435.63761
  22144719.8304    5562378.66745   8616489.98061
  19647497.3854  -14802550.68048   1504111.23062
  19595607.8384  -27505919.48448 -20694487.15362
 91  5  1  1 49 14.9940000  0  4G 2G 6G13G12
  22254897.7994    6048798.39344   5383313.33261
  22153467.9164    5608354.34745   8652315.01761
  19650494.9634  -14786796.90848   1516386.89562
  19588565.1114  -27542924.26147 -20723322.02362
 91  5  1  1 49 29.9940000  0  4G 2G 6G13G12
  22260252.2684    6076929.77144
  22162226.0884    5654380.49445   8688179.41861
  19653501.2604  -14771000.85648   1528695.49762
  19581547.0414  -27579793.61847 -20752051.38062
 91  5  1  1 49 44.9940000  0  4G 2G 6G13G12
  22265615.9714    6105117.83444
  22170991.5724    5700458.74245   8724084.38061
  19656515.7834  -14755160.69848   1541038.47162
  19574558.1584  -27616525.37348 -20780673.51063
 91  5  1  1 49 59.9940000  0  4G 2G 6G13G12
  22270990.5884    6133365.89744
  22179772.4864    5746592.01945   8760032.21161
  19659538.6114  -14739273.56548   1553418.04762
  19567597.7364  -27653115.90048 -20809185.59963
 91  5  1  1 50 14.9940000  0  4G 2G 6G13G12
  22276375.0884    6161671.48944
  22188560.8694    5792777.57245   8796020.80861
  19662570.5254  -14723342.22148   1565832.07162
  19560660.4944  -27689567.52948 -20837589.44863
 91  5  1  1 50 29.9940000  0  4G 2G 6G13G12
  22281773.8854    6190032.26944
  22197361.8154    5839012.79345   8832048.05561
  19665608.5024  -14707368.87848   1578278.81361
  19553748.2214  -27725882.01447 -20865886.44063
 91  5  1  1 50 44.9940000  0  4G 2G 6G13G12
  22287183.6044    6218451.43444
  22206169.7214    5885300.80945   8868116.48961
  19668658.5884  -14691350.54748   1590760.61861
  19546863.1904  -27762055.79447 -20894073.79863
 91  5  1  1 50 59.9940000  0  4G 2G 6G13G12
  22292602.1824    6246927.70644
  22214988.6974    5931639.83145   8904224.64561
  19671714.1274  -14675288.76248   1603276.28762
  19540009.3224  -27798089.95847 -20922152.35762
 91  5  1  1 51 14.9940000  0  4G 2G 6G13G12
  22298029.6274    6275459.91144
  22223817.5574    5978028.33745   8940371.34061
  19674779.6354  -14659184.96748   1615824.67862
  19533178.0334  -27833985.39848 -20950122.81462
 91  5  1  1 51 29.9940000  0  4G 2G 6G13G12
  22303471.5184    6304048.81444
  22232652.9634    6024467.11545   8976557.24461
  19677850.7444  -14643038.38648   1628406.41761
  19526373.8154  -27869740.83248 -20977984.17362
 91  5  1  1 51 44.9940000  0  4G 2G 6G13G12
  22308918.2684    6332696.97543
  22241499.1434    6070958.02945   9012783.75461
  19680933.1824  -14626846.71948   1641023.28661
  19519598.3774  -27905353.45748 -21005734.25162
 91  5  1  1 51 59.9940000  0  4G 2G 6G13G12
  22314383.3694    6361401.36343        -0.46271
  22250355.2754    6117498.04345   9049048.53961
  19684020.9244  -14610613.25248   1653672.72361
  19512848.2054  -27940825.93748 -21033375.11562
 91  5  1  1 52 14.9940000  0  4G 2G 6G13G12
  22319857.6584    6390161.24643     22409.76161
  22259221.6824    6164085.99345   9085350.67461
  19687118.3544  -14594338.82648   1666354.08261
  19506125.3544  -27976158.71548 -21060907.13062
 91  5  1  1 52 29.9940000  0  4G 2G 6G13G12
  22325339.0724    6418979.36343     44865.37061
  22268094.8464    6210724.29545   9121692.05961
  19690223.3614  -14578020.79848   1679069.42162
  19499426.9634  -28011348.70847 -21088327.89863
 91  5  1  1 52 44.9940000  0  4G 2G 6G13G12
  22330833.9084    6447843.40143     67356.81761
  22276979.2994    6257400.49545   9158062.96761
  19693333.9944  -14561671.70748   1691808.96461
  19492754.3074  -28046407.90247 -21115646.75463
 91  5  1  1 52 59.9940000  0  4G 2G 6G13G12
  22336336.4164    6476752.63843     89883.45061
  22285869.6044    6304113.56545   9194462.58861
  19696451.5024  -14545292.30348   1704572.12261
  19486108.1974  -28081336.46348 -21142863.81763
 91  5  1  1 53 14.9940000  0  4G 2G 6G13G12
  22341846.4794    6505720.24243    112455.59161
  22294768.6824    6350876.54645   9230901.09061
  19699576.7444  -14528869.71048   1717368.94961
  19479488.1974  -28116121.01748 -21169968.65563
 91  5  1  1 53 29.9940000  0  4G 2G 6G13G12
  22347373.0804    6534744.73942    135071.95261
  22303677.4714    6397687.42845   9267376.92161
  19702710.1904  -14512405.44848   1730198.23861
  19472894.9324  -28150762.81348 -21196962.25463
 91  5  1  1 53 44.9940000  0  4G 2G 6G13G12
  22352906.9004    6563825.64542
  22312590.4324    6444545.47545   9303889.44661
  19705851.0104  -14495900.24748   1743059.42461
  19466331.7364  -28185261.96948 -21223844.70062
 91  5  1  1 53 59.9940000  0  4G 2G 6G13G12
  22358452.9794    6592961.56742
  22321517.1274    6491449.14944   9340437.58461
  19709000.5494  -14479355.42748   1755951.48761
  19459793.7754  -28219619.37947 -21250616.69662
 91  5  1  1 54 14.9940000  0  4G 2G 6G13G12
  22364002.6354    6622152.86441
  22330448.2994    6538398.39343   9377021.22961
  19712156.4324  -14462770.96048   1768874.44461
  19453280.6974  -28253834.45147 -21277277.78762
 91  5  1  1 54 29.9940000  0  3G 6G13G12
  22339393.7214    6585391.55543   9413639.12161
  19715318.2054  -14446148.57148   1781826.95261
  19446798.9084  -28287908.14848 -21303828.71762
 91  5  1  1 54 44.9940000  0  3G 6G13G12
  22348342.2684    6632431.35243   9450293.35461
  19718489.6114  -14429485.38848   1794811.24161
  19440341.8774  -28321837.29948 -21330267.00762
 91  5  1  1 54 59.9940000  0  3G 6G13G12
  22357301.6434    6679518.62043   9486984.59761
  19721668.8074  -14412780.16348   1807828.28561
  19433912.8774  -28355620.32048 -21356591.43162
 91  5  1  1 55 14.9940000  0  3G 6G13G12
  22366273.5414    6726649.29244   9523709.62861
  19724854.4004  -14396037.17248   1820874.76761
  19427513.6584  -28389260.89348 -21382804.85362
 91  5  1  1 55 29.9940000  0  3G 6G13G12
  22375250.3154    6773823.90245   9560468.89161
  19728048.2524  -14379255.73248   1833951.20061
  19421138.2214  -28422757.82848 -21408906.35263
 91  5  1  1 55 44.9940000  0  3G 6G13G12
  22384237.4244    6821041.76245   9597261.83261
  19731248.8154  -14362436.62548   1847056.98961
  19414791.1114  -28456111.09548 -21434895.90562
 91  5  1  1 55 59.9940000  0  3G 6G13G12
  22393231.1194    6868304.19845   9634089.50761
  19734457.1434  -14345577.99648   1860193.56961
  19408473.1194  -28489318.78947 -21460772.03262
 91  5  1  1 56 14.9940000  0  3G 6G13G12
  22402233.9634    6915612.48045   9670952.88761
  19737673.2054  -14328678.38248   1873362.09161
  19402179.7914  -28522378.99347 -21486533.23363
 91  5  1  1 56 29.9940000  0  3G 6G13G12
  22411245.8774    6962963.31145   9707849.42761
  19740895.2994  -14311740.83548   1886560.17561
  19395916.2054  -28555294.40548 -21512181.60862
 91  5  1  1 56 44.9940000  0  3G 6G13G12
  22420262.1274    7010358.53645   9744780.56561
  19744126.6584  -14294763.85848   1899788.97861
  19389680.8074  -28588062.70248 -21537715.33663
 91  5  1  1 56 59.9940000  0  3G 6G13G12
  22429291.1504    7057796.65544   9781745.14361
  19747364.8464  -14277748.55948   1913047.64461
  19383474.3774  -28620684.65048 -21563135.02763
 91  5  1  1 57 14.9940000  0  3G 6G13G12
  22438328.0574    7105274.98844   9818741.04661
  19750608.7364  -14260697.72148   1926334.00161
  19377294.7054  -28653162.25148 -21588442.23862
 91  5  1  1 57 29.9940000  0  3G 6G13G12
  22447368.1114    7152796.63644   9855770.70761
  19753859.9944  -14243608.25948   1939650.45561
  19371142.5024  -28685491.94448 -21613634.20762
 91  5  1  1 57 44.9940000  0  3G 6G13G12
  22456421.4404    7200360.51744   9892833.28261
  19757120.5494  -14226480.75548   1952996.54861
  19365016.6974  -28717674.06648 -21638711.17462
 91  5  1  1 57 59.9940000  0  3G 6G13G12
  22465479.7834         -0.77354
  19760386.0254  -14209315.58648   1966371.99961
  19358919.0964  -28749708.60248 -21663673.14562
 91  5  1  1 58 14.9940000  0  3G 6G13G12
  22474543.7604      47642.95244
  19763659.5414  -14192116.46048   1979773.91261
  19352850.9084  -28781598.76547 -21688522.61762
 91  5  1  1 58 29.9940000  0  3G 6G13G12
  22483619.2834      95325.04045        -0.06771
  19766939.0024  -14174882.68148   1993202.82261
  19346808.6044  -28813343.54547 -21713258.80662
 91  5  1  1 58 44.9940000  0  3G 6G13G12
  22492701.1194     143046.93945     37185.63861
  19770225.0804  -14157612.70848   2006659.93862
  19340797.1434  -28844940.91147 -21737880.12262
 91  5  1  1 58 59.9940000  0  3G 6G13G12
  22501789.4944     190805.34045     74399.77561
  19773518.0024  -14140309.78048   2020142.72661
  19334812.5414  -28876393.52648 -21762388.64762
 91  5  1  1 59 14.9940000  0  3G 6G13G12
  22510885.2754     238600.63545    111642.66861
  19776817.2364  -14122973.53248   2033651.47361
  19328855.5804  -28907700.57348 -21786783.74663
 91  5  1  1 59 29.9940000  0  3G 6G13G12
  22519987.3154     286430.18245
  19780121.7444  -14105606.36748   2047184.31562
  19322923.3694  -28938863.96648 -21811066.90963
 91  5  1  1 59 44.9940000  0  4G 6G13G20G12
  22529096.4554     334297.28945
  19783433.1904  -14088204.80948   2060743.95061
  23316097.1114         -0.74653
  19317022.5654  -28969879.73348 -21835235.03163
